<?xml version="1.0" encoding="UTF-8" standalone="no" ?>
<gpx xmlns="http://www.topografix.com/GPX/1/1" xmlns:xsi="http://www.w3.org/2001/XMLSchema-instance" xsi:schemaLocation="http://www.topografix.com/GPX/1/1 http://www.topografix.com/GPX/1/1/gpx.xsd" version="1.1" creator="VisuGPX - https://www.visugpx.com">
  <metadata>
    <name>Landeyeux, Chaumont Bike N°743</name>
  </metadata>
  <trk>
    <name><![CDATA[Landeyeux, Chaumont Bike N°743_1]]></name>
    <trkseg>
      <trkpt lat="47.03328" lon="6.90622">
        <ele>723.3</ele>
        <time>2020-07-04T07:30:00.000Z</time>
      </trkpt>
      <trkpt lat="47.03348" lon="6.9065">
        <ele>723.71</ele>
        <time>2020-07-04T07:30:06.796Z</time>
      </trkpt>
      <trkpt lat="47.03351" lon="6.90657">
        <ele>723.65</ele>
        <time>2020-07-04T07:30:07.672Z</time>
      </trkpt>
      <trkpt lat="47.03332" lon="6.90669">
        <ele>722.98</ele>
        <time>2020-07-04T07:30:10.169Z</time>
      </trkpt>
      <trkpt lat="47.03332" lon="6.9067">
        <ele>722.98</ele>
        <time>2020-07-04T07:30:10.314Z</time>
      </trkpt>
      <trkpt lat="47.03323" lon="6.90676">
        <ele>722.31</ele>
        <time>2020-07-04T07:30:11.279Z</time>
      </trkpt>
      <trkpt lat="47.03309" lon="6.90685">
        <ele>721.81</ele>
        <time>2020-07-04T07:30:13.118Z</time>
      </trkpt>
      <trkpt lat="47.03302" lon="6.90691">
        <ele>721.4</ele>
        <time>2020-07-04T07:30:13.944Z</time>
      </trkpt>
      <trkpt lat="47.03294" lon="6.90697">
        <ele>721.17</ele>
        <time>2020-07-04T07:30:15.110Z</time>
      </trkpt>
      <trkpt lat="47.03286" lon="6.90705">
        <ele>720.74</ele>
        <time>2020-07-04T07:30:16.150Z</time>
      </trkpt>
      <trkpt lat="47.03283" lon="6.90709">
        <ele>720.5</ele>
        <time>2020-07-04T07:30:16.534Z</time>
      </trkpt>
      <trkpt lat="47.03274" lon="6.90719">
        <ele>720.27</ele>
        <time>2020-07-04T07:30:18.089Z</time>
      </trkpt>
      <trkpt lat="47.03264" lon="6.90732">
        <ele>719.87</ele>
        <time>2020-07-04T07:30:19.744Z</time>
      </trkpt>
      <trkpt lat="47.03254" lon="6.90746">
        <ele>719.44</ele>
        <time>2020-07-04T07:30:21.435Z</time>
      </trkpt>
      <trkpt lat="47.03245" lon="6.90759">
        <ele>719.2</ele>
        <time>2020-07-04T07:30:23.202Z</time>
      </trkpt>
      <trkpt lat="47.03237" lon="6.90774">
        <ele>718.8</ele>
        <time>2020-07-04T07:30:24.795Z</time>
      </trkpt>
      <trkpt lat="47.03232" lon="6.90785">
        <ele>718.61</ele>
        <time>2020-07-04T07:30:26.026Z</time>
      </trkpt>
      <trkpt lat="47.03232" lon="6.90785">
        <ele>718.61</ele>
        <time>2020-07-04T07:30:26.026Z</time>
      </trkpt>
      <trkpt lat="47.03228" lon="6.90791">
        <ele>718.41</ele>
        <time>2020-07-04T07:30:26.699Z</time>
      </trkpt>
      <trkpt lat="47.03217" lon="6.90816">
        <ele>717.94</ele>
        <time>2020-07-04T07:30:29.403Z</time>
      </trkpt>
      <trkpt lat="47.03212" lon="6.90828">
        <ele>717.94</ele>
        <time>2020-07-04T07:30:31.389Z</time>
      </trkpt>
      <trkpt lat="47.03205" lon="6.90844">
        <ele>717.76</ele>
        <time>2020-07-04T07:30:33.361Z</time>
      </trkpt>
      <trkpt lat="47.03192" lon="6.90874">
        <ele>717.23</ele>
        <time>2020-07-04T07:30:36.640Z</time>
      </trkpt>
      <trkpt lat="47.03179" lon="6.90902">
        <ele>716.78</ele>
        <time>2020-07-04T07:30:39.853Z</time>
      </trkpt>
      <trkpt lat="47.03171" lon="6.9092">
        <ele>716.69</ele>
        <time>2020-07-04T07:30:42.697Z</time>
      </trkpt>
      <trkpt lat="47.03163" lon="6.90934">
        <ele>716.59</ele>
        <time>2020-07-04T07:30:44.700Z</time>
      </trkpt>
      <trkpt lat="47.03154" lon="6.9095">
        <ele>716.22</ele>
        <time>2020-07-04T07:30:46.524Z</time>
      </trkpt>
      <trkpt lat="47.0314" lon="6.90975">
        <ele>715.98</ele>
        <time>2020-07-04T07:30:49.939Z</time>
      </trkpt>
      <trkpt lat="47.0314" lon="6.90975">
        <ele>715.98</ele>
        <time>2020-07-04T07:30:49.939Z</time>
      </trkpt>
      <trkpt lat="47.03139" lon="6.90976">
        <ele>715.73</ele>
        <time>2020-07-04T07:30:50.057Z</time>
      </trkpt>
      <trkpt lat="47.03128" lon="6.90993">
        <ele>715.26</ele>
        <time>2020-07-04T07:30:52.046Z</time>
      </trkpt>
      <trkpt lat="47.0311" lon="6.91017">
        <ele>714.25</ele>
        <time>2020-07-04T07:30:54.732Z</time>
      </trkpt>
      <trkpt lat="47.03107" lon="6.91021">
        <ele>714.08</ele>
        <time>2020-07-04T07:30:55.178Z</time>
      </trkpt>
      <trkpt lat="47.03097" lon="6.91034">
        <ele>713.39</ele>
        <time>2020-07-04T07:30:56.526Z</time>
      </trkpt>
      <trkpt lat="47.03083" lon="6.91051">
        <ele>712.28</ele>
        <time>2020-07-04T07:30:58.222Z</time>
      </trkpt>
      <trkpt lat="47.03066" lon="6.91069">
        <ele>710.86</ele>
        <time>2020-07-04T07:31:00.267Z</time>
      </trkpt>
      <trkpt lat="47.0305" lon="6.91085">
        <ele>709.87</ele>
        <time>2020-07-04T07:31:02.229Z</time>
      </trkpt>
      <trkpt lat="47.0305" lon="6.91085">
        <ele>709.87</ele>
        <time>2020-07-04T07:31:02.229Z</time>
      </trkpt>
      <trkpt lat="47.03045" lon="6.9109">
        <ele>708.88</ele>
        <time>2020-07-04T07:31:02.819Z</time>
      </trkpt>
      <trkpt lat="47.03021" lon="6.91113">
        <ele>706.44</ele>
        <time>2020-07-04T07:31:05.616Z</time>
      </trkpt>
      <trkpt lat="47.03003" lon="6.91128">
        <ele>704.45</ele>
        <time>2020-07-04T07:31:07.636Z</time>
      </trkpt>
      <trkpt lat="47.02979" lon="6.91147">
        <ele>701.91</ele>
        <time>2020-07-04T07:31:10.296Z</time>
      </trkpt>
      <trkpt lat="47.02947" lon="6.91171">
        <ele>698.42</ele>
        <time>2020-07-04T07:31:13.803Z</time>
      </trkpt>
      <trkpt lat="47.0291" lon="6.91195">
        <ele>694.58</ele>
        <time>2020-07-04T07:31:17.750Z</time>
      </trkpt>
      <trkpt lat="47.02899" lon="6.91204">
        <ele>693.44</ele>
        <time>2020-07-04T07:31:18.978Z</time>
      </trkpt>
      <trkpt lat="47.02892" lon="6.9121">
        <ele>692.88</ele>
        <time>2020-07-04T07:31:19.769Z</time>
      </trkpt>
      <trkpt lat="47.02885" lon="6.91216">
        <ele>692</ele>
        <time>2020-07-04T07:31:20.560Z</time>
      </trkpt>
      <trkpt lat="47.02877" lon="6.91228">
        <ele>690.79</ele>
        <time>2020-07-04T07:31:21.677Z</time>
      </trkpt>
      <trkpt lat="47.02865" lon="6.91246">
        <ele>690.2</ele>
        <time>2020-07-04T07:31:23.708Z</time>
      </trkpt>
      <trkpt lat="47.02866" lon="6.91248">
        <ele>690.13</ele>
        <time>2020-07-04T07:31:23.895Z</time>
      </trkpt>
      <trkpt lat="47.02867" lon="6.91251">
        <ele>690.06</ele>
        <time>2020-07-04T07:31:24.174Z</time>
      </trkpt>
      <trkpt lat="47.02868" lon="6.91253">
        <ele>690</ele>
        <time>2020-07-04T07:31:24.372Z</time>
      </trkpt>
      <trkpt lat="47.02868" lon="6.91256">
        <ele>689.93</ele>
        <time>2020-07-04T07:31:24.614Z</time>
      </trkpt>
      <trkpt lat="47.02874" lon="6.91256">
        <ele>689.95</ele>
        <time>2020-07-04T07:31:25.929Z</time>
      </trkpt>
      <trkpt lat="47.02876" lon="6.91256">
        <ele>690.07</ele>
        <time>2020-07-04T07:31:26.724Z</time>
      </trkpt>
      <trkpt lat="47.02879" lon="6.91257">
        <ele>690.14</ele>
        <time>2020-07-04T07:31:27.550Z</time>
      </trkpt>
      <trkpt lat="47.02882" lon="6.9126">
        <ele>690.29</ele>
        <time>2020-07-04T07:31:28.791Z</time>
      </trkpt>
      <trkpt lat="47.02885" lon="6.91266">
        <ele>690.49</ele>
        <time>2020-07-04T07:31:30.478Z</time>
      </trkpt>
      <trkpt lat="47.02891" lon="6.91279">
        <ele>689.94</ele>
        <time>2020-07-04T07:31:31.559Z</time>
      </trkpt>
      <trkpt lat="47.02891" lon="6.91278">
        <ele>689.94</ele>
        <time>2020-07-04T07:31:31.704Z</time>
      </trkpt>
      <trkpt lat="47.02893" lon="6.91284">
        <ele>689.4</ele>
        <time>2020-07-04T07:31:32.148Z</time>
      </trkpt>
      <trkpt lat="47.02899" lon="6.91294">
        <ele>689.64</ele>
        <time>2020-07-04T07:31:34.694Z</time>
      </trkpt>
      <trkpt lat="47.02904" lon="6.913">
        <ele>689.54</ele>
        <time>2020-07-04T07:31:35.637Z</time>
      </trkpt>
      <trkpt lat="47.02919" lon="6.91313">
        <ele>689.38</ele>
        <time>2020-07-04T07:31:38.396Z</time>
      </trkpt>
      <trkpt lat="47.02959" lon="6.91346">
        <ele>689.27</ele>
        <time>2020-07-04T07:31:47.801Z</time>
      </trkpt>
      <trkpt lat="47.02985" lon="6.91365">
        <ele>689.48</ele>
        <time>2020-07-04T07:31:54.409Z</time>
      </trkpt>
      <trkpt lat="47.03007" lon="6.91382">
        <ele>689.52</ele>
        <time>2020-07-04T07:31:59.771Z</time>
      </trkpt>
      <trkpt lat="47.03027" lon="6.91396">
        <ele>689.35</ele>
        <time>2020-07-04T07:32:03.353Z</time>
      </trkpt>
      <trkpt lat="47.03024" lon="6.91402">
        <ele>689.55</ele>
        <time>2020-07-04T07:32:05.040Z</time>
      </trkpt>
      <trkpt lat="47.03013" lon="6.91429">
        <ele>689.41</ele>
        <time>2020-07-04T07:32:09.181Z</time>
      </trkpt>
      <trkpt lat="47.03007" lon="6.91442">
        <ele>689.5</ele>
        <time>2020-07-04T07:32:11.644Z</time>
      </trkpt>
      <trkpt lat="47.02997" lon="6.91461">
        <ele>689.5</ele>
        <time>2020-07-04T07:32:15.094Z</time>
      </trkpt>
      <trkpt lat="47.02989" lon="6.91478">
        <ele>689.59</ele>
        <time>2020-07-04T07:32:18.295Z</time>
      </trkpt>
      <trkpt lat="47.0298" lon="6.91495">
        <ele>689.59</ele>
        <time>2020-07-04T07:32:21.413Z</time>
      </trkpt>
      <trkpt lat="47.02965" lon="6.91527">
        <ele>691.4</ele>
        <time>2020-07-04T07:32:32.592Z</time>
      </trkpt>
      <trkpt lat="47.02958" lon="6.9154">
        <ele>692.32</ele>
        <time>2020-07-04T07:32:37.877Z</time>
      </trkpt>
      <trkpt lat="47.02952" lon="6.91549">
        <ele>693.26</ele>
        <time>2020-07-04T07:32:43.104Z</time>
      </trkpt>
      <trkpt lat="47.02946" lon="6.91557">
        <ele>694.12</ele>
        <time>2020-07-04T07:32:47.865Z</time>
      </trkpt>
      <trkpt lat="47.0294" lon="6.91562">
        <ele>694.42</ele>
        <time>2020-07-04T07:32:50.301Z</time>
      </trkpt>
      <trkpt lat="47.02933" lon="6.91565">
        <ele>695.03</ele>
        <time>2020-07-04T07:32:53.776Z</time>
      </trkpt>
      <trkpt lat="47.02927" lon="6.91566">
        <ele>695.37</ele>
        <time>2020-07-04T07:32:56.116Z</time>
      </trkpt>
      <trkpt lat="47.02922" lon="6.91566">
        <ele>695.87</ele>
        <time>2020-07-04T07:32:58.878Z</time>
      </trkpt>
      <trkpt lat="47.02916" lon="6.91565">
        <ele>696.35</ele>
        <time>2020-07-04T07:33:01.659Z</time>
      </trkpt>
      <trkpt lat="47.02908" lon="6.91562">
        <ele>697.14</ele>
        <time>2020-07-04T07:33:06.036Z</time>
      </trkpt>
      <trkpt lat="47.02897" lon="6.91557">
        <ele>698.56</ele>
        <time>2020-07-04T07:33:14.268Z</time>
      </trkpt>
      <trkpt lat="47.02897" lon="6.91556">
        <ele>698.56</ele>
        <time>2020-07-04T07:33:14.413Z</time>
      </trkpt>
      <trkpt lat="47.02866" lon="6.9154">
        <ele>699.98</ele>
        <time>2020-07-04T07:33:25.968Z</time>
      </trkpt>
      <trkpt lat="47.02812" lon="6.9151">
        <ele>704.17</ele>
        <time>2020-07-04T07:33:51.140Z</time>
      </trkpt>
      <trkpt lat="47.02797" lon="6.91504">
        <ele>705.05</ele>
        <time>2020-07-04T07:33:57.176Z</time>
      </trkpt>
      <trkpt lat="47.02792" lon="6.91502">
        <ele>705.25</ele>
        <time>2020-07-04T07:33:58.879Z</time>
      </trkpt>
      <trkpt lat="47.02791" lon="6.91502">
        <ele>705.25</ele>
        <time>2020-07-04T07:33:59.092Z</time>
      </trkpt>
      <trkpt lat="47.0279" lon="6.91502">
        <ele>705.45</ele>
        <time>2020-07-04T07:33:59.911Z</time>
      </trkpt>
      <trkpt lat="47.02784" lon="6.91503">
        <ele>705.61</ele>
        <time>2020-07-04T07:34:01.605Z</time>
      </trkpt>
      <trkpt lat="47.02777" lon="6.91505">
        <ele>706.08</ele>
        <time>2020-07-04T07:34:04.563Z</time>
      </trkpt>
      <trkpt lat="47.02772" lon="6.91509">
        <ele>706.52</ele>
        <time>2020-07-04T07:34:07.138Z</time>
      </trkpt>
      <trkpt lat="47.02768" lon="6.91515">
        <ele>706.87</ele>
        <time>2020-07-04T07:34:09.431Z</time>
      </trkpt>
      <trkpt lat="47.02762" lon="6.91527">
        <ele>707.61</ele>
        <time>2020-07-04T07:34:13.867Z</time>
      </trkpt>
      <trkpt lat="47.02762" lon="6.91535">
        <ele>707.76</ele>
        <time>2020-07-04T07:34:15.415Z</time>
      </trkpt>
      <trkpt lat="47.02762" lon="6.91545">
        <ele>708.31</ele>
        <time>2020-07-04T07:34:18.585Z</time>
      </trkpt>
      <trkpt lat="47.02764" lon="6.91555">
        <ele>708.85</ele>
        <time>2020-07-04T07:34:21.766Z</time>
      </trkpt>
      <trkpt lat="47.02766" lon="6.91562">
        <ele>709.27</ele>
        <time>2020-07-04T07:34:24.181Z</time>
      </trkpt>
      <trkpt lat="47.02776" lon="6.91587">
        <ele>710.64</ele>
        <time>2020-07-04T07:34:32.586Z</time>
      </trkpt>
      <trkpt lat="47.02782" lon="6.91599">
        <ele>711.13</ele>
        <time>2020-07-04T07:34:36.313Z</time>
      </trkpt>
      <trkpt lat="47.02781" lon="6.91599">
        <ele>711.13</ele>
        <time>2020-07-04T07:34:36.526Z</time>
      </trkpt>
      <trkpt lat="47.02785" lon="6.91607">
        <ele>711.63</ele>
        <time>2020-07-04T07:34:39.505Z</time>
      </trkpt>
      <trkpt lat="47.02804" lon="6.91654">
        <ele>714.15</ele>
        <time>2020-07-04T07:34:55.152Z</time>
      </trkpt>
      <trkpt lat="47.02811" lon="6.91672">
        <ele>715.08</ele>
        <time>2020-07-04T07:35:01.007Z</time>
      </trkpt>
      <trkpt lat="47.02814" lon="6.91682">
        <ele>715.54</ele>
        <time>2020-07-04T07:35:04.005Z</time>
      </trkpt>
      <trkpt lat="47.02816" lon="6.9169">
        <ele>715.96</ele>
        <time>2020-07-04T07:35:06.532Z</time>
      </trkpt>
      <trkpt lat="47.02818" lon="6.91699">
        <ele>716.31</ele>
        <time>2020-07-04T07:35:08.997Z</time>
      </trkpt>
      <trkpt lat="47.02819" lon="6.9171">
        <ele>716.84</ele>
        <time>2020-07-04T07:35:12.233Z</time>
      </trkpt>
      <trkpt lat="47.0282" lon="6.91724">
        <ele>717.34</ele>
        <time>2020-07-04T07:35:15.847Z</time>
      </trkpt>
      <trkpt lat="47.02823" lon="6.91763">
        <ele>718.31</ele>
        <time>2020-07-04T07:35:24.357Z</time>
      </trkpt>
      <trkpt lat="47.02823" lon="6.91762">
        <ele>718.31</ele>
        <time>2020-07-04T07:35:24.502Z</time>
      </trkpt>
      <trkpt lat="47.02823" lon="6.91763">
        <ele>719.28</ele>
        <time>2020-07-04T07:35:25.060Z</time>
      </trkpt>
      <trkpt lat="47.02823" lon="6.91777">
        <ele>720.06</ele>
        <time>2020-07-04T07:35:29.536Z</time>
      </trkpt>
      <trkpt lat="47.02822" lon="6.91797">
        <ele>720.77</ele>
        <time>2020-07-04T07:35:34.679Z</time>
      </trkpt>
      <trkpt lat="47.0282" lon="6.91811">
        <ele>721.46</ele>
        <time>2020-07-04T07:35:38.872Z</time>
      </trkpt>
      <trkpt lat="47.02817" lon="6.91826">
        <ele>721.93</ele>
        <time>2020-07-04T07:35:42.670Z</time>
      </trkpt>
      <trkpt lat="47.02813" lon="6.91837">
        <ele>722.59</ele>
        <time>2020-07-04T07:35:46.526Z</time>
      </trkpt>
      <trkpt lat="47.02805" lon="6.91853">
        <ele>723.65</ele>
        <time>2020-07-04T07:35:52.698Z</time>
      </trkpt>
      <trkpt lat="47.02797" lon="6.91865">
        <ele>724.49</ele>
        <time>2020-07-04T07:35:57.718Z</time>
      </trkpt>
      <trkpt lat="47.02786" lon="6.9188">
        <ele>725.41</ele>
        <time>2020-07-04T07:36:03.742Z</time>
      </trkpt>
      <trkpt lat="47.02786" lon="6.9188">
        <ele>726.08</ele>
        <time>2020-07-04T07:36:03.742Z</time>
      </trkpt>
      <trkpt lat="47.02786" lon="6.9188">
        <ele>726.08</ele>
        <time>2020-07-04T07:36:03.742Z</time>
      </trkpt>
      <trkpt lat="47.02771" lon="6.91894">
        <ele>726.76</ele>
        <time>2020-07-04T07:36:09.556Z</time>
      </trkpt>
      <trkpt lat="47.02754" lon="6.9191">
        <ele>728.08</ele>
        <time>2020-07-04T07:36:17.898Z</time>
      </trkpt>
      <trkpt lat="47.02737" lon="6.91926">
        <ele>729.34</ele>
        <time>2020-07-04T07:36:26.064Z</time>
      </trkpt>
      <trkpt lat="47.0273" lon="6.91931">
        <ele>729.79</ele>
        <time>2020-07-04T07:36:29.112Z</time>
      </trkpt>
      <trkpt lat="47.02724" lon="6.91934">
        <ele>730.21</ele>
        <time>2020-07-04T07:36:31.747Z</time>
      </trkpt>
      <trkpt lat="47.02712" lon="6.9194">
        <ele>731.02</ele>
        <time>2020-07-04T07:36:36.928Z</time>
      </trkpt>
      <trkpt lat="47.02704" lon="6.91943">
        <ele>731.68</ele>
        <time>2020-07-04T07:36:40.744Z</time>
      </trkpt>
      <trkpt lat="47.02661" lon="6.91954">
        <ele>734.61</ele>
        <time>2020-07-04T07:36:59.008Z</time>
      </trkpt>
      <trkpt lat="47.02638" lon="6.91959">
        <ele>735.45</ele>
        <time>2020-07-04T07:37:06.391Z</time>
      </trkpt>
      <trkpt lat="47.02638" lon="6.91959">
        <ele>735.45</ele>
        <time>2020-07-04T07:37:06.391Z</time>
      </trkpt>
      <trkpt lat="47.02635" lon="6.9196">
        <ele>736.29</ele>
        <time>2020-07-04T07:37:08.912Z</time>
      </trkpt>
      <trkpt lat="47.02608" lon="6.91967">
        <ele>738.13</ele>
        <time>2020-07-04T07:37:20.383Z</time>
      </trkpt>
      <trkpt lat="47.02599" lon="6.9197">
        <ele>738.63</ele>
        <time>2020-07-04T07:37:23.908Z</time>
      </trkpt>
      <trkpt lat="47.02593" lon="6.91974">
        <ele>739.02</ele>
        <time>2020-07-04T07:37:26.513Z</time>
      </trkpt>
      <trkpt lat="47.02586" lon="6.9198">
        <ele>739.68</ele>
        <time>2020-07-04T07:37:30.305Z</time>
      </trkpt>
      <trkpt lat="47.0258" lon="6.91987">
        <ele>740.07</ele>
        <time>2020-07-04T07:37:33.169Z</time>
      </trkpt>
      <trkpt lat="47.02575" lon="6.91995">
        <ele>740.67</ele>
        <time>2020-07-04T07:37:36.621Z</time>
      </trkpt>
      <trkpt lat="47.02572" lon="6.92001">
        <ele>741.03</ele>
        <time>2020-07-04T07:37:38.806Z</time>
      </trkpt>
      <trkpt lat="47.02567" lon="6.92017">
        <ele>741.65</ele>
        <time>2020-07-04T07:37:43.312Z</time>
      </trkpt>
      <trkpt lat="47.02565" lon="6.92027">
        <ele>742.27</ele>
        <time>2020-07-04T07:37:46.804Z</time>
      </trkpt>
      <trkpt lat="47.02563" lon="6.92041">
        <ele>742.84</ele>
        <time>2020-07-04T07:37:50.639Z</time>
      </trkpt>
      <trkpt lat="47.02564" lon="6.92052">
        <ele>743.34</ele>
        <time>2020-07-04T07:37:53.780Z</time>
      </trkpt>
      <trkpt lat="47.02564" lon="6.92058">
        <ele>743.53</ele>
        <time>2020-07-04T07:37:55.265Z</time>
      </trkpt>
      <trkpt lat="47.02565" lon="6.92066">
        <ele>743.87</ele>
        <time>2020-07-04T07:37:57.490Z</time>
      </trkpt>
      <trkpt lat="47.02569" lon="6.9208">
        <ele>744.65</ele>
        <time>2020-07-04T07:38:02.100Z</time>
      </trkpt>
      <trkpt lat="47.02571" lon="6.92088">
        <ele>745.47</ele>
        <time>2020-07-04T07:38:06.860Z</time>
      </trkpt>
      <trkpt lat="47.02571" lon="6.92087">
        <ele>745.47</ele>
        <time>2020-07-04T07:38:07.005Z</time>
      </trkpt>
      <trkpt lat="47.02579" lon="6.92112">
        <ele>746.3</ele>
        <time>2020-07-04T07:38:13.714Z</time>
      </trkpt>
      <trkpt lat="47.02582" lon="6.92122">
        <ele>746.79</ele>
        <time>2020-07-04T07:38:16.800Z</time>
      </trkpt>
      <trkpt lat="47.02567" lon="6.92152">
        <ele>749.47</ele>
        <time>2020-07-04T07:38:31.631Z</time>
      </trkpt>
      <trkpt lat="47.02544" lon="6.92194">
        <ele>753.67</ele>
        <time>2020-07-04T07:38:55.223Z</time>
      </trkpt>
      <trkpt lat="47.02537" lon="6.92206">
        <ele>755.32</ele>
        <time>2020-07-04T07:39:04.045Z</time>
      </trkpt>
      <trkpt lat="47.02544" lon="6.92213">
        <ele>755.23</ele>
        <time>2020-07-04T07:39:05.362Z</time>
      </trkpt>
      <trkpt lat="47.02535" lon="6.92243">
        <ele>758.45</ele>
        <time>2020-07-04T07:39:23.671Z</time>
      </trkpt>
      <trkpt lat="47.0253" lon="6.92259">
        <ele>760.28</ele>
        <time>2020-07-04T07:39:33.503Z</time>
      </trkpt>
      <trkpt lat="47.02529" lon="6.9226">
        <ele>763.59</ele>
        <time>2020-07-04T07:39:34.494Z</time>
      </trkpt>
      <trkpt lat="47.02508" lon="6.92317">
        <ele>766.89</ele>
        <time>2020-07-04T07:39:54.072Z</time>
      </trkpt>
      <trkpt lat="47.02501" lon="6.92341">
        <ele>769.33</ele>
        <time>2020-07-04T07:40:08.654Z</time>
      </trkpt>
      <trkpt lat="47.025" lon="6.92346">
        <ele>769.73</ele>
        <time>2020-07-04T07:40:10.892Z</time>
      </trkpt>
      <trkpt lat="47.02496" lon="6.9236">
        <ele>771.47</ele>
        <time>2020-07-04T07:40:19.371Z</time>
      </trkpt>
      <trkpt lat="47.02492" lon="6.92373">
        <ele>772.98</ele>
        <time>2020-07-04T07:40:27.339Z</time>
      </trkpt>
      <trkpt lat="47.02489" lon="6.92382">
        <ele>774.38</ele>
        <time>2020-07-04T07:40:32.935Z</time>
      </trkpt>
      <trkpt lat="47.02488" lon="6.92384">
        <ele>774.74</ele>
        <time>2020-07-04T07:40:34.320Z</time>
      </trkpt>
      <trkpt lat="47.02485" lon="6.92387">
        <ele>775.33</ele>
        <time>2020-07-04T07:40:37.296Z</time>
      </trkpt>
      <trkpt lat="47.02482" lon="6.92388">
        <ele>775.72</ele>
        <time>2020-07-04T07:40:39.595Z</time>
      </trkpt>
      <trkpt lat="47.02468" lon="6.92391">
        <ele>777.74</ele>
        <time>2020-07-04T07:40:51.189Z</time>
      </trkpt>
      <trkpt lat="47.02452" lon="6.92369">
        <ele>778.23</ele>
        <time>2020-07-04T07:40:57.047Z</time>
      </trkpt>
      <trkpt lat="47.02432" lon="6.92342">
        <ele>779.11</ele>
        <time>2020-07-04T07:41:05.256Z</time>
      </trkpt>
      <trkpt lat="47.02431" lon="6.92342">
        <ele>779.11</ele>
        <time>2020-07-04T07:41:05.468Z</time>
      </trkpt>
      <trkpt lat="47.02405" lon="6.92307">
        <ele>780</ele>
        <time>2020-07-04T07:41:15.218Z</time>
      </trkpt>
      <trkpt lat="47.02395" lon="6.92293">
        <ele>780.39</ele>
        <time>2020-07-04T07:41:19.178Z</time>
      </trkpt>
      <trkpt lat="47.02392" lon="6.9229">
        <ele>780.49</ele>
        <time>2020-07-04T07:41:20.209Z</time>
      </trkpt>
      <trkpt lat="47.02373" lon="6.9226">
        <ele>781.45</ele>
        <time>2020-07-04T07:41:28.867Z</time>
      </trkpt>
      <trkpt lat="47.02369" lon="6.92254">
        <ele>781.38</ele>
        <time>2020-07-04T07:41:29.738Z</time>
      </trkpt>
      <trkpt lat="47.02363" lon="6.92248">
        <ele>781.19</ele>
        <time>2020-07-04T07:41:30.674Z</time>
      </trkpt>
      <trkpt lat="47.02348" lon="6.92229">
        <ele>782.34</ele>
        <time>2020-07-04T07:41:38.445Z</time>
      </trkpt>
      <trkpt lat="47.0234" lon="6.92219">
        <ele>783.07</ele>
        <time>2020-07-04T07:41:42.920Z</time>
      </trkpt>
      <trkpt lat="47.02331" lon="6.92208">
        <ele>783.99</ele>
        <time>2020-07-04T07:41:48.272Z</time>
      </trkpt>
      <trkpt lat="47.02327" lon="6.92201">
        <ele>784.17</ele>
        <time>2020-07-04T07:41:50.071Z</time>
      </trkpt>
      <trkpt lat="47.02316" lon="6.92187">
        <ele>784.16</ele>
        <time>2020-07-04T07:41:53.133Z</time>
      </trkpt>
      <trkpt lat="47.02309" lon="6.92176">
        <ele>783.82</ele>
        <time>2020-07-04T07:41:54.362Z</time>
      </trkpt>
      <trkpt lat="47.02304" lon="6.92168">
        <ele>783.59</ele>
        <time>2020-07-04T07:41:55.268Z</time>
      </trkpt>
      <trkpt lat="47.02286" lon="6.92149">
        <ele>783</ele>
        <time>2020-07-04T07:41:58.114Z</time>
      </trkpt>
      <trkpt lat="47.02269" lon="6.92131">
        <ele>782.93</ele>
        <time>2020-07-04T07:42:02.352Z</time>
      </trkpt>
      <trkpt lat="47.02256" lon="6.92117">
        <ele>782.72</ele>
        <time>2020-07-04T07:42:04.781Z</time>
      </trkpt>
      <trkpt lat="47.02246" lon="6.92105">
        <ele>782.25</ele>
        <time>2020-07-04T07:42:06.279Z</time>
      </trkpt>
      <trkpt lat="47.02231" lon="6.92087">
        <ele>782.51</ele>
        <time>2020-07-04T07:42:10.974Z</time>
      </trkpt>
      <trkpt lat="47.02222" lon="6.92075">
        <ele>782.18</ele>
        <time>2020-07-04T07:42:12.526Z</time>
      </trkpt>
      <trkpt lat="47.02221" lon="6.92075">
        <ele>782.18</ele>
        <time>2020-07-04T07:42:12.738Z</time>
      </trkpt>
      <trkpt lat="47.02212" lon="6.92064">
        <ele>781.86</ele>
        <time>2020-07-04T07:42:14.230Z</time>
      </trkpt>
      <trkpt lat="47.022" lon="6.92052">
        <ele>781.86</ele>
        <time>2020-07-04T07:42:17.316Z</time>
      </trkpt>
      <trkpt lat="47.02174" lon="6.92024">
        <ele>781.91</ele>
        <time>2020-07-04T07:42:24.267Z</time>
      </trkpt>
      <trkpt lat="47.02166" lon="6.92015">
        <ele>782.91</ele>
        <time>2020-07-04T07:42:29.793Z</time>
      </trkpt>
      <trkpt lat="47.02152" lon="6.92005">
        <ele>784.52</ele>
        <time>2020-07-04T07:42:38.690Z</time>
      </trkpt>
      <trkpt lat="47.02132" lon="6.91991">
        <ele>786.54</ele>
        <time>2020-07-04T07:42:49.962Z</time>
      </trkpt>
      <trkpt lat="47.02095" lon="6.91969">
        <ele>789.83</ele>
        <time>2020-07-04T07:43:08.791Z</time>
      </trkpt>
      <trkpt lat="47.02083" lon="6.9196">
        <ele>789.78</ele>
        <time>2020-07-04T07:43:11.500Z</time>
      </trkpt>
      <trkpt lat="47.02057" lon="6.9194">
        <ele>789.45</ele>
        <time>2020-07-04T07:43:16.025Z</time>
      </trkpt>
      <trkpt lat="47.02045" lon="6.9193">
        <ele>789.12</ele>
        <time>2020-07-04T07:43:17.850Z</time>
      </trkpt>
      <trkpt lat="47.02047" lon="6.91931">
        <ele>789.29</ele>
        <time>2020-07-04T07:43:18.831Z</time>
      </trkpt>
      <trkpt lat="47.02046" lon="6.91931">
        <ele>789.29</ele>
        <time>2020-07-04T07:43:19.043Z</time>
      </trkpt>
      <trkpt lat="47.02045" lon="6.9193">
        <ele>789.12</ele>
        <time>2020-07-04T07:43:19.161Z</time>
      </trkpt>
      <trkpt lat="47.02036" lon="6.91924">
        <ele>789.76</ele>
        <time>2020-07-04T07:43:23.226Z</time>
      </trkpt>
      <trkpt lat="47.02023" lon="6.91917">
        <ele>789.82</ele>
        <time>2020-07-04T07:43:26.290Z</time>
      </trkpt>
      <trkpt lat="47.01999" lon="6.91903">
        <ele>790.28</ele>
        <time>2020-07-04T07:43:32.847Z</time>
      </trkpt>
      <trkpt lat="47.01984" lon="6.91893">
        <ele>790.71</ele>
        <time>2020-07-04T07:43:37.447Z</time>
      </trkpt>
      <trkpt lat="47.01971" lon="6.91884">
        <ele>790.73</ele>
        <time>2020-07-04T07:43:40.540Z</time>
      </trkpt>
      <trkpt lat="47.0196" lon="6.91878">
        <ele>790.64</ele>
        <time>2020-07-04T07:43:42.437Z</time>
      </trkpt>
      <trkpt lat="47.01945" lon="6.91872">
        <ele>790.33</ele>
        <time>2020-07-04T07:43:44.589Z</time>
      </trkpt>
      <trkpt lat="47.01944" lon="6.9187">
        <ele>790.29</ele>
        <time>2020-07-04T07:43:44.813Z</time>
      </trkpt>
      <trkpt lat="47.01942" lon="6.91868">
        <ele>790.41</ele>
        <time>2020-07-04T07:43:45.710Z</time>
      </trkpt>
      <trkpt lat="47.01932" lon="6.91864">
        <ele>791.08</ele>
        <time>2020-07-04T07:43:49.969Z</time>
      </trkpt>
      <trkpt lat="47.01891" lon="6.91852">
        <ele>795.79</ele>
        <time>2020-07-04T07:44:16.317Z</time>
      </trkpt>
      <trkpt lat="47.01861" lon="6.91842">
        <ele>799.51</ele>
        <time>2020-07-04T07:44:37.665Z</time>
      </trkpt>
      <trkpt lat="47.01832" lon="6.91832">
        <ele>803.43</ele>
        <time>2020-07-04T07:45:01.442Z</time>
      </trkpt>
      <trkpt lat="47.0182" lon="6.91827">
        <ele>805.19</ele>
        <time>2020-07-04T07:45:11.664Z</time>
      </trkpt>
      <trkpt lat="47.01807" lon="6.91824">
        <ele>806.97</ele>
        <time>2020-07-04T07:45:22.448Z</time>
      </trkpt>
      <trkpt lat="47.01793" lon="6.91822">
        <ele>808.4</ele>
        <time>2020-07-04T07:45:30.347Z</time>
      </trkpt>
      <trkpt lat="47.01792" lon="6.91822">
        <ele>808.4</ele>
        <time>2020-07-04T07:45:30.560Z</time>
      </trkpt>
      <trkpt lat="47.01786" lon="6.91822">
        <ele>809.83</ele>
        <time>2020-07-04T07:45:35.476Z</time>
      </trkpt>
      <trkpt lat="47.01774" lon="6.9182">
        <ele>811.47</ele>
        <time>2020-07-04T07:45:45.373Z</time>
      </trkpt>
      <trkpt lat="47.01754" lon="6.91815">
        <ele>814.26</ele>
        <time>2020-07-04T07:46:01.998Z</time>
      </trkpt>
      <trkpt lat="47.01745" lon="6.91811">
        <ele>815.55</ele>
        <time>2020-07-04T07:46:09.705Z</time>
      </trkpt>
      <trkpt lat="47.01731" lon="6.91804">
        <ele>817.58</ele>
        <time>2020-07-04T07:46:21.825Z</time>
      </trkpt>
      <trkpt lat="47.01718" lon="6.91798">
        <ele>819.58</ele>
        <time>2020-07-04T07:46:32.993Z</time>
      </trkpt>
      <trkpt lat="47.01704" lon="6.91789">
        <ele>821.55</ele>
        <time>2020-07-04T07:46:44.745Z</time>
      </trkpt>
      <trkpt lat="47.01691" lon="6.91781">
        <ele>823.11</ele>
        <time>2020-07-04T07:46:53.436Z</time>
      </trkpt>
      <trkpt lat="47.01677" lon="6.9177">
        <ele>824.04</ele>
        <time>2020-07-04T07:46:59.687Z</time>
      </trkpt>
      <trkpt lat="47.01669" lon="6.91765">
        <ele>824.79</ele>
        <time>2020-07-04T07:47:03.923Z</time>
      </trkpt>
      <trkpt lat="47.01661" lon="6.9176">
        <ele>824.6</ele>
        <time>2020-07-04T07:47:05.100Z</time>
      </trkpt>
      <trkpt lat="47.01642" lon="6.91751">
        <ele>825.46</ele>
        <time>2020-07-04T07:47:12.106Z</time>
      </trkpt>
      <trkpt lat="47.01623" lon="6.91743">
        <ele>825.12</ele>
        <time>2020-07-04T07:47:14.933Z</time>
      </trkpt>
      <trkpt lat="47.01596" lon="6.91726">
        <ele>824.34</ele>
        <time>2020-07-04T07:47:18.706Z</time>
      </trkpt>
      <trkpt lat="47.01579" lon="6.91712">
        <ele>824.29</ele>
        <time>2020-07-04T07:47:22.692Z</time>
      </trkpt>
      <trkpt lat="47.01567" lon="6.91703">
        <ele>823.85</ele>
        <time>2020-07-04T07:47:24.315Z</time>
      </trkpt>
      <trkpt lat="47.01552" lon="6.91695">
        <ele>823.18</ele>
        <time>2020-07-04T07:47:26.070Z</time>
      </trkpt>
      <trkpt lat="47.01539" lon="6.91687">
        <ele>823.08</ele>
        <time>2020-07-04T07:47:28.771Z</time>
      </trkpt>
      <trkpt lat="47.01532" lon="6.91684">
        <ele>822.68</ele>
        <time>2020-07-04T07:47:29.487Z</time>
      </trkpt>
      <trkpt lat="47.01521" lon="6.91679">
        <ele>822.63</ele>
        <time>2020-07-04T07:47:31.781Z</time>
      </trkpt>
      <trkpt lat="47.0152" lon="6.91679">
        <ele>822.63</ele>
        <time>2020-07-04T07:47:31.994Z</time>
      </trkpt>
      <trkpt lat="47.01516" lon="6.91677">
        <ele>822.59</ele>
        <time>2020-07-04T07:47:32.661Z</time>
      </trkpt>
      <trkpt lat="47.0151" lon="6.91675">
        <ele>822.55</ele>
        <time>2020-07-04T07:47:33.849Z</time>
      </trkpt>
      <trkpt lat="47.01507" lon="6.91674">
        <ele>822.52</ele>
        <time>2020-07-04T07:47:34.333Z</time>
      </trkpt>
      <trkpt lat="47.01491" lon="6.9167">
        <ele>822.37</ele>
        <time>2020-07-04T07:47:36.902Z</time>
      </trkpt>
      <trkpt lat="47.01465" lon="6.91662">
        <ele>823.26</ele>
        <time>2020-07-04T07:47:45.044Z</time>
      </trkpt>
      <trkpt lat="47.0146" lon="6.91661">
        <ele>823.44</ele>
        <time>2020-07-04T07:47:46.637Z</time>
      </trkpt>
      <trkpt lat="47.0144" lon="6.91657">
        <ele>824.51</ele>
        <time>2020-07-04T07:47:54.286Z</time>
      </trkpt>
      <trkpt lat="47.01425" lon="6.91656">
        <ele>825.56</ele>
        <time>2020-07-04T07:48:00.702Z</time>
      </trkpt>
      <trkpt lat="47.0141" lon="6.91657">
        <ele>826.73</ele>
        <time>2020-07-04T07:48:07.528Z</time>
      </trkpt>
      <trkpt lat="47.01399" lon="6.91658">
        <ele>827.78</ele>
        <time>2020-07-04T07:48:13.349Z</time>
      </trkpt>
      <trkpt lat="47.01388" lon="6.91658">
        <ele>828.27</ele>
        <time>2020-07-04T07:48:17.294Z</time>
      </trkpt>
      <trkpt lat="47.01376" lon="6.91659">
        <ele>828.62</ele>
        <time>2020-07-04T07:48:20.777Z</time>
      </trkpt>
      <trkpt lat="47.01368" lon="6.91661">
        <ele>828.75</ele>
        <time>2020-07-04T07:48:22.797Z</time>
      </trkpt>
      <trkpt lat="47.0135" lon="6.91667">
        <ele>829.43</ele>
        <time>2020-07-04T07:48:28.716Z</time>
      </trkpt>
      <trkpt lat="47.01342" lon="6.91668">
        <ele>829.56</ele>
        <time>2020-07-04T07:48:30.719Z</time>
      </trkpt>
      <trkpt lat="47.01315" lon="6.91668">
        <ele>829.34</ele>
        <time>2020-07-04T07:48:35.056Z</time>
      </trkpt>
      <trkpt lat="47.01291" lon="6.91667">
        <ele>827.35</ele>
        <time>2020-07-04T07:48:37.398Z</time>
      </trkpt>
      <trkpt lat="47.0128" lon="6.91666">
        <ele>826.42</ele>
        <time>2020-07-04T07:48:38.473Z</time>
      </trkpt>
      <trkpt lat="47.01267" lon="6.91666">
        <ele>825.81</ele>
        <time>2020-07-04T07:48:39.840Z</time>
      </trkpt>
      <trkpt lat="47.01255" lon="6.91668">
        <ele>825.46</ele>
        <time>2020-07-04T07:48:41.351Z</time>
      </trkpt>
      <trkpt lat="47.0125" lon="6.91668">
        <ele>825.44</ele>
        <time>2020-07-04T07:48:42.352Z</time>
      </trkpt>
      <trkpt lat="47.01245" lon="6.91668">
        <ele>825.44</ele>
        <time>2020-07-04T07:48:43.414Z</time>
      </trkpt>
      <trkpt lat="47.0124" lon="6.91667">
        <ele>825.48</ele>
        <time>2020-07-04T07:48:44.570Z</time>
      </trkpt>
      <trkpt lat="47.01229" lon="6.91663">
        <ele>825.79</ele>
        <time>2020-07-04T07:48:47.783Z</time>
      </trkpt>
      <trkpt lat="47.01223" lon="6.91662">
        <ele>826.17</ele>
        <time>2020-07-04T07:48:50.233Z</time>
      </trkpt>
      <trkpt lat="47.01217" lon="6.91662">
        <ele>826.68</ele>
        <time>2020-07-04T07:48:53.126Z</time>
      </trkpt>
      <trkpt lat="47.01211" lon="6.91664">
        <ele>827</ele>
        <time>2020-07-04T07:48:55.442Z</time>
      </trkpt>
      <trkpt lat="47.01209" lon="6.91665">
        <ele>827.05</ele>
        <time>2020-07-04T07:48:56.015Z</time>
      </trkpt>
      <trkpt lat="47.01209" lon="6.91666">
        <ele>827.05</ele>
        <time>2020-07-04T07:48:56.160Z</time>
      </trkpt>
      <trkpt lat="47.01204" lon="6.91668">
        <ele>827.11</ele>
        <time>2020-07-04T07:48:57.391Z</time>
      </trkpt>
      <trkpt lat="47.01196" lon="6.91675">
        <ele>827.45</ele>
        <time>2020-07-04T07:49:00.364Z</time>
      </trkpt>
      <trkpt lat="47.01187" lon="6.91683">
        <ele>827.93</ele>
        <time>2020-07-04T07:49:04.165Z</time>
      </trkpt>
      <trkpt lat="47.01181" lon="6.91691">
        <ele>827.83</ele>
        <time>2020-07-04T07:49:05.397Z</time>
      </trkpt>
      <trkpt lat="47.01175" lon="6.91697">
        <ele>826.58</ele>
        <time>2020-07-04T07:49:06.105Z</time>
      </trkpt>
      <trkpt lat="47.01161" lon="6.91707">
        <ele>823.69</ele>
        <time>2020-07-04T07:49:07.625Z</time>
      </trkpt>
      <trkpt lat="47.01153" lon="6.91718">
        <ele>821.95</ele>
        <time>2020-07-04T07:49:08.695Z</time>
      </trkpt>
      <trkpt lat="47.01147" lon="6.91727">
        <ele>820.28</ele>
        <time>2020-07-04T07:49:09.532Z</time>
      </trkpt>
      <trkpt lat="47.01144" lon="6.91734">
        <ele>819</ele>
        <time>2020-07-04T07:49:10.082Z</time>
      </trkpt>
      <trkpt lat="47.01141" lon="6.91745">
        <ele>817.41</ele>
        <time>2020-07-04T07:49:10.870Z</time>
      </trkpt>
      <trkpt lat="47.01138" lon="6.9176">
        <ele>815.42</ele>
        <time>2020-07-04T07:49:11.910Z</time>
      </trkpt>
      <trkpt lat="47.01136" lon="6.91766">
        <ele>814.67</ele>
        <time>2020-07-04T07:49:12.354Z</time>
      </trkpt>
      <trkpt lat="47.01133" lon="6.91774">
        <ele>813.83</ele>
        <time>2020-07-04T07:49:12.962Z</time>
      </trkpt>
      <trkpt lat="47.01127" lon="6.91783">
        <ele>812.69</ele>
        <time>2020-07-04T07:49:13.799Z</time>
      </trkpt>
      <trkpt lat="47.01118" lon="6.91796">
        <ele>811.2</ele>
        <time>2020-07-04T07:49:15.031Z</time>
      </trkpt>
      <trkpt lat="47.01115" lon="6.91801">
        <ele>810.64</ele>
        <time>2020-07-04T07:49:15.474Z</time>
      </trkpt>
      <trkpt lat="47.01115" lon="6.91801">
        <ele>810.64</ele>
        <time>2020-07-04T07:49:15.474Z</time>
      </trkpt>
      <trkpt lat="47.01111" lon="6.91808">
        <ele>810.08</ele>
        <time>2020-07-04T07:49:16.082Z</time>
      </trkpt>
      <trkpt lat="47.01104" lon="6.9182">
        <ele>808.82</ele>
        <time>2020-07-04T07:49:17.133Z</time>
      </trkpt>
      <trkpt lat="47.0109" lon="6.91841">
        <ele>806.66</ele>
        <time>2020-07-04T07:49:19.086Z</time>
      </trkpt>
      <trkpt lat="47.01081" lon="6.91853">
        <ele>805.48</ele>
        <time>2020-07-04T07:49:20.273Z</time>
      </trkpt>
      <trkpt lat="47.01073" lon="6.91861">
        <ele>804.61</ele>
        <time>2020-07-04T07:49:21.218Z</time>
      </trkpt>
      <trkpt lat="47.01065" lon="6.91868">
        <ele>803.58</ele>
        <time>2020-07-04T07:49:22.127Z</time>
      </trkpt>
      <trkpt lat="47.01055" lon="6.91875">
        <ele>802.28</ele>
        <time>2020-07-04T07:49:23.208Z</time>
      </trkpt>
      <trkpt lat="47.01047" lon="6.91879">
        <ele>801.56</ele>
        <time>2020-07-04T07:49:24.032Z</time>
      </trkpt>
      <trkpt lat="47.01042" lon="6.9188">
        <ele>800.92</ele>
        <time>2020-07-04T07:49:24.525Z</time>
      </trkpt>
      <trkpt lat="47.01037" lon="6.91881">
        <ele>800.13</ele>
        <time>2020-07-04T07:49:25.017Z</time>
      </trkpt>
      <trkpt lat="47.01027" lon="6.91879">
        <ele>798.44</ele>
        <time>2020-07-04T07:49:26.002Z</time>
      </trkpt>
      <trkpt lat="47.01019" lon="6.91877">
        <ele>796.98</ele>
        <time>2020-07-04T07:49:26.793Z</time>
      </trkpt>
      <trkpt lat="47.01011" lon="6.91873">
        <ele>795.59</ele>
        <time>2020-07-04T07:49:27.618Z</time>
      </trkpt>
      <trkpt lat="47.01003" lon="6.9187">
        <ele>794.12</ele>
        <time>2020-07-04T07:49:28.424Z</time>
      </trkpt>
      <trkpt lat="47.01" lon="6.9187">
        <ele>793.58</ele>
        <time>2020-07-04T07:49:28.716Z</time>
      </trkpt>
      <trkpt lat="47.00997" lon="6.9187">
        <ele>793.09</ele>
        <time>2020-07-04T07:49:29.009Z</time>
      </trkpt>
      <trkpt lat="47.00994" lon="6.9187">
        <ele>792.84</ele>
        <time>2020-07-04T07:49:29.302Z</time>
      </trkpt>
      <trkpt lat="47.00991" lon="6.91877">
        <ele>792.73</ele>
        <time>2020-07-04T07:49:30.086Z</time>
      </trkpt>
      <trkpt lat="47.00989" lon="6.91881">
        <ele>792.61</ele>
        <time>2020-07-04T07:49:30.482Z</time>
      </trkpt>
      <trkpt lat="47.00987" lon="6.91883">
        <ele>792.47</ele>
        <time>2020-07-04T07:49:30.714Z</time>
      </trkpt>
      <trkpt lat="47.00985" lon="6.91884">
        <ele>792.17</ele>
        <time>2020-07-04T07:49:30.920Z</time>
      </trkpt>
      <trkpt lat="47.00982" lon="6.91883">
        <ele>791.57</ele>
        <time>2020-07-04T07:49:31.220Z</time>
      </trkpt>
      <trkpt lat="47.00977" lon="6.9188">
        <ele>790.34</ele>
        <time>2020-07-04T07:49:31.747Z</time>
      </trkpt>
      <trkpt lat="47.00968" lon="6.91868">
        <ele>788.88</ele>
        <time>2020-07-04T07:49:32.934Z</time>
      </trkpt>
      <trkpt lat="47.00958" lon="6.91876">
        <ele>787.3</ele>
        <time>2020-07-04T07:49:34.045Z</time>
      </trkpt>
      <trkpt lat="47.00953" lon="6.91882">
        <ele>786.3</ele>
        <time>2020-07-04T07:49:34.675Z</time>
      </trkpt>
      <trkpt lat="47.00949" lon="6.91889">
        <ele>785.75</ele>
        <time>2020-07-04T07:49:35.283Z</time>
      </trkpt>
      <trkpt lat="47.00947" lon="6.91897">
        <ele>784.94</ele>
        <time>2020-07-04T07:49:35.850Z</time>
      </trkpt>
      <trkpt lat="47.00945" lon="6.91901">
        <ele>784.33</ele>
        <time>2020-07-04T07:49:36.180Z</time>
      </trkpt>
      <trkpt lat="47.00944" lon="6.9191">
        <ele>783.38</ele>
        <time>2020-07-04T07:49:36.786Z</time>
      </trkpt>
      <trkpt lat="47.00943" lon="6.91918">
        <ele>782.09</ele>
        <time>2020-07-04T07:49:37.327Z</time>
      </trkpt>
      <trkpt lat="47.00943" lon="6.91928">
        <ele>780.91</ele>
        <time>2020-07-04T07:49:37.993Z</time>
      </trkpt>
      <trkpt lat="47.00943" lon="6.91947">
        <ele>778.79</ele>
        <time>2020-07-04T07:49:39.257Z</time>
      </trkpt>
      <trkpt lat="47.00945" lon="6.91972">
        <ele>775.77</ele>
        <time>2020-07-04T07:49:40.931Z</time>
      </trkpt>
      <trkpt lat="47.00945" lon="6.91977">
        <ele>775.28</ele>
        <time>2020-07-04T07:49:41.264Z</time>
      </trkpt>
      <trkpt lat="47.00945" lon="6.91981">
        <ele>774.99</ele>
        <time>2020-07-04T07:49:41.530Z</time>
      </trkpt>
      <trkpt lat="47.00946" lon="6.92001">
        <ele>772.45</ele>
        <time>2020-07-04T07:49:42.864Z</time>
      </trkpt>
      <trkpt lat="47.00946" lon="6.92009">
        <ele>771.84</ele>
        <time>2020-07-04T07:49:43.396Z</time>
      </trkpt>
      <trkpt lat="47.00945" lon="6.92014">
        <ele>771.33</ele>
        <time>2020-07-04T07:49:43.743Z</time>
      </trkpt>
      <trkpt lat="47.00943" lon="6.92018">
        <ele>771.27</ele>
        <time>2020-07-04T07:49:44.223Z</time>
      </trkpt>
      <trkpt lat="47.00942" lon="6.9202">
        <ele>771.04</ele>
        <time>2020-07-04T07:49:44.388Z</time>
      </trkpt>
      <trkpt lat="47.00937" lon="6.92023">
        <ele>770.98</ele>
        <time>2020-07-04T07:49:45.222Z</time>
      </trkpt>
      <trkpt lat="47.00935" lon="6.92029">
        <ele>771.03</ele>
        <time>2020-07-04T07:49:46.298Z</time>
      </trkpt>
      <trkpt lat="47.00933" lon="6.92034">
        <ele>769.75</ele>
        <time>2020-07-04T07:49:46.684Z</time>
      </trkpt>
      <trkpt lat="47.0093" lon="6.92036">
        <ele>768.69</ele>
        <time>2020-07-04T07:49:47.005Z</time>
      </trkpt>
      <trkpt lat="47.00922" lon="6.92037">
        <ele>767.07</ele>
        <time>2020-07-04T07:49:47.789Z</time>
      </trkpt>
      <trkpt lat="47.00921" lon="6.92033">
        <ele>766.51</ele>
        <time>2020-07-04T07:49:48.072Z</time>
      </trkpt>
      <trkpt lat="47.00918" lon="6.92027">
        <ele>765.8</ele>
        <time>2020-07-04T07:49:48.567Z</time>
      </trkpt>
      <trkpt lat="47.00916" lon="6.9201">
        <ele>763.63</ele>
        <time>2020-07-04T07:49:49.715Z</time>
      </trkpt>
      <trkpt lat="47.00915" lon="6.92009">
        <ele>763.03</ele>
        <time>2020-07-04T07:49:49.833Z</time>
      </trkpt>
      <trkpt lat="47.00913" lon="6.92009">
        <ele>762.54</ele>
        <time>2020-07-04T07:49:50.028Z</time>
      </trkpt>
      <trkpt lat="47.00909" lon="6.92012">
        <ele>761.49</ele>
        <time>2020-07-04T07:49:50.466Z</time>
      </trkpt>
      <trkpt lat="47.00903" lon="6.92018">
        <ele>759.83</ele>
        <time>2020-07-04T07:49:51.175Z</time>
      </trkpt>
      <trkpt lat="47.00898" lon="6.92021">
        <ele>758.78</ele>
        <time>2020-07-04T07:49:51.702Z</time>
      </trkpt>
      <trkpt lat="47.00894" lon="6.92022">
        <ele>757.91</ele>
        <time>2020-07-04T07:49:52.098Z</time>
      </trkpt>
      <trkpt lat="47.00888" lon="6.92024">
        <ele>756.11</ele>
        <time>2020-07-04T07:49:52.698Z</time>
      </trkpt>
      <trkpt lat="47.00884" lon="6.92028">
        <ele>755.2</ele>
        <time>2020-07-04T07:49:53.170Z</time>
      </trkpt>
      <trkpt lat="47.00882" lon="6.92033">
        <ele>754.51</ele>
        <time>2020-07-04T07:49:53.556Z</time>
      </trkpt>
      <trkpt lat="47.00882" lon="6.92033">
        <ele>754.51</ele>
        <time>2020-07-04T07:49:53.556Z</time>
      </trkpt>
      <trkpt lat="47.00881" lon="6.92035">
        <ele>753.81</ele>
        <time>2020-07-04T07:49:53.721Z</time>
      </trkpt>
      <trkpt lat="47.00876" lon="6.92047">
        <ele>751.58</ele>
        <time>2020-07-04T07:49:54.657Z</time>
      </trkpt>
      <trkpt lat="47.00869" lon="6.92055">
        <ele>749.64</ele>
        <time>2020-07-04T07:49:55.522Z</time>
      </trkpt>
      <trkpt lat="47.00865" lon="6.92061">
        <ele>748.33</ele>
        <time>2020-07-04T07:49:56.081Z</time>
      </trkpt>
      <trkpt lat="47.0086" lon="6.92065">
        <ele>747.27</ele>
        <time>2020-07-04T07:49:56.636Z</time>
      </trkpt>
      <trkpt lat="47.00852" lon="6.9207">
        <ele>745.52</ele>
        <time>2020-07-04T07:49:57.485Z</time>
      </trkpt>
      <trkpt lat="47.00845" lon="6.92076">
        <ele>743.97</ele>
        <time>2020-07-04T07:49:58.276Z</time>
      </trkpt>
      <trkpt lat="47.00837" lon="6.92079">
        <ele>742.48</ele>
        <time>2020-07-04T07:49:59.081Z</time>
      </trkpt>
      <trkpt lat="47.00831" lon="6.92081">
        <ele>740.88</ele>
        <time>2020-07-04T07:49:59.682Z</time>
      </trkpt>
      <trkpt lat="47.00816" lon="6.9209">
        <ele>737.24</ele>
        <time>2020-07-04T07:50:01.263Z</time>
      </trkpt>
      <trkpt lat="47.0081" lon="6.92096">
        <ele>735.15</ele>
        <time>2020-07-04T07:50:01.971Z</time>
      </trkpt>
      <trkpt lat="47.00806" lon="6.92101">
        <ele>734.09</ele>
        <time>2020-07-04T07:50:02.484Z</time>
      </trkpt>
      <trkpt lat="47.00797" lon="6.92117">
        <ele>731.6</ele>
        <time>2020-07-04T07:50:03.864Z</time>
      </trkpt>
      <trkpt lat="47.00792" lon="6.92124">
        <ele>730.79</ele>
        <time>2020-07-04T07:50:04.539Z</time>
      </trkpt>
      <trkpt lat="47.00788" lon="6.92127">
        <ele>730.2</ele>
        <time>2020-07-04T07:50:04.977Z</time>
      </trkpt>
      <trkpt lat="47.00783" lon="6.9213">
        <ele>729.64</ele>
        <time>2020-07-04T07:50:05.504Z</time>
      </trkpt>
      <trkpt lat="47.00778" lon="6.92134">
        <ele>729</ele>
        <time>2020-07-04T07:50:06.060Z</time>
      </trkpt>
      <trkpt lat="47.00773" lon="6.92135">
        <ele>728.22</ele>
        <time>2020-07-04T07:50:06.552Z</time>
      </trkpt>
      <trkpt lat="47.00773" lon="6.92166">
        <ele>726.89</ele>
        <time>2020-07-04T07:50:08.497Z</time>
      </trkpt>
      <trkpt lat="47.00772" lon="6.92181">
        <ele>726.49</ele>
        <time>2020-07-04T07:50:09.660Z</time>
      </trkpt>
      <trkpt lat="47.00772" lon="6.92188">
        <ele>726.09</ele>
        <time>2020-07-04T07:50:10.125Z</time>
      </trkpt>
      <trkpt lat="47.0077" lon="6.92209">
        <ele>725.59</ele>
        <time>2020-07-04T07:50:11.833Z</time>
      </trkpt>
      <trkpt lat="47.00767" lon="6.92232">
        <ele>725.06</ele>
        <time>2020-07-04T07:50:13.745Z</time>
      </trkpt>
      <trkpt lat="47.00762" lon="6.92257">
        <ele>724.67</ele>
        <time>2020-07-04T07:50:16.147Z</time>
      </trkpt>
      <trkpt lat="47.00754" lon="6.92288">
        <ele>724.44</ele>
        <time>2020-07-04T07:50:19.680Z</time>
      </trkpt>
      <trkpt lat="47.00748" lon="6.92322">
        <ele>724.34</ele>
        <time>2020-07-04T07:50:24.462Z</time>
      </trkpt>
      <trkpt lat="47.00745" lon="6.92343">
        <ele>724.45</ele>
        <time>2020-07-04T07:50:27.800Z</time>
      </trkpt>
      <trkpt lat="47.00745" lon="6.92345">
        <ele>724.46</ele>
        <time>2020-07-04T07:50:28.111Z</time>
      </trkpt>
      <trkpt lat="47.00745" lon="6.92345">
        <ele>724.46</ele>
        <time>2020-07-04T07:50:28.111Z</time>
      </trkpt>
      <trkpt lat="47.00743" lon="6.92362">
        <ele>724.47</ele>
        <time>2020-07-04T07:50:30.630Z</time>
      </trkpt>
      <trkpt lat="47.0074" lon="6.9238">
        <ele>724.32</ele>
        <time>2020-07-04T07:50:32.561Z</time>
      </trkpt>
      <trkpt lat="47.00738" lon="6.92398">
        <ele>724</ele>
        <time>2020-07-04T07:50:34.173Z</time>
      </trkpt>
      <trkpt lat="47.00734" lon="6.92424">
        <ele>723.51</ele>
        <time>2020-07-04T07:50:36.497Z</time>
      </trkpt>
      <trkpt lat="47.00732" lon="6.92451">
        <ele>723.66</ele>
        <time>2020-07-04T07:50:40.746Z</time>
      </trkpt>
      <trkpt lat="47.00728" lon="6.9249">
        <ele>723.65</ele>
        <time>2020-07-04T07:50:46.427Z</time>
      </trkpt>
      <trkpt lat="47.00724" lon="6.92524">
        <ele>723.53</ele>
        <time>2020-07-04T07:50:51.064Z</time>
      </trkpt>
      <trkpt lat="47.00721" lon="6.92544">
        <ele>723.62</ele>
        <time>2020-07-04T07:50:54.216Z</time>
      </trkpt>
      <trkpt lat="47.00721" lon="6.92545">
        <ele>723.71</ele>
        <time>2020-07-04T07:50:54.764Z</time>
      </trkpt>
      <trkpt lat="47.00718" lon="6.92567">
        <ele>724.06</ele>
        <time>2020-07-04T07:50:58.876Z</time>
      </trkpt>
      <trkpt lat="47.00715" lon="6.92578">
        <ele>724.37</ele>
        <time>2020-07-04T07:51:01.522Z</time>
      </trkpt>
      <trkpt lat="47.0071" lon="6.9259">
        <ele>724.19</ele>
        <time>2020-07-04T07:51:02.868Z</time>
      </trkpt>
      <trkpt lat="47.00701" lon="6.92605">
        <ele>723.77</ele>
        <time>2020-07-04T07:51:04.540Z</time>
      </trkpt>
      <trkpt lat="47.00694" lon="6.92617">
        <ele>723.9</ele>
        <time>2020-07-04T07:51:07.112Z</time>
      </trkpt>
      <trkpt lat="47.00687" lon="6.9263">
        <ele>723.44</ele>
        <time>2020-07-04T07:51:08.368Z</time>
      </trkpt>
      <trkpt lat="47.00681" lon="6.9264">
        <ele>723.07</ele>
        <time>2020-07-04T07:51:09.379Z</time>
      </trkpt>
      <trkpt lat="47.00673" lon="6.92672">
        <ele>722.81</ele>
        <time>2020-07-04T07:51:12.964Z</time>
      </trkpt>
      <trkpt lat="47.0067" lon="6.92688">
        <ele>722.53</ele>
        <time>2020-07-04T07:51:14.446Z</time>
      </trkpt>
      <trkpt lat="47.00669" lon="6.92692">
        <ele>722.34</ele>
        <time>2020-07-04T07:51:14.708Z</time>
      </trkpt>
      <trkpt lat="47.00667" lon="6.92696">
        <ele>722.29</ele>
        <time>2020-07-04T07:51:15.206Z</time>
      </trkpt>
      <trkpt lat="47.0067" lon="6.92713">
        <ele>722.16</ele>
        <time>2020-07-04T07:51:17.061Z</time>
      </trkpt>
      <trkpt lat="47.00673" lon="6.92727">
        <ele>722.09</ele>
        <time>2020-07-04T07:51:18.981Z</time>
      </trkpt>
      <trkpt lat="47.00677" lon="6.92737">
        <ele>722.08</ele>
        <time>2020-07-04T07:51:20.629Z</time>
      </trkpt>
      <trkpt lat="47.00681" lon="6.92747">
        <ele>722.31</ele>
        <time>2020-07-04T07:51:22.919Z</time>
      </trkpt>
      <trkpt lat="47.00686" lon="6.92757">
        <ele>722.13</ele>
        <time>2020-07-04T07:51:24.071Z</time>
      </trkpt>
      <trkpt lat="47.00691" lon="6.92766">
        <ele>722.19</ele>
        <time>2020-07-04T07:51:25.878Z</time>
      </trkpt>
      <trkpt lat="47.00696" lon="6.92774">
        <ele>722.44</ele>
        <time>2020-07-04T07:51:28.155Z</time>
      </trkpt>
      <trkpt lat="47.00696" lon="6.92774">
        <ele>722.39</ele>
        <time>2020-07-04T07:51:28.155Z</time>
      </trkpt>
      <trkpt lat="47.00696" lon="6.92773">
        <ele>722.31</ele>
        <time>2020-07-04T07:51:28.221Z</time>
      </trkpt>
      <trkpt lat="47.00696" lon="6.92774">
        <ele>722.44</ele>
        <time>2020-07-04T07:51:28.780Z</time>
      </trkpt>
      <trkpt lat="47.00711" lon="6.92795">
        <ele>722.34</ele>
        <time>2020-07-04T07:51:32.883Z</time>
      </trkpt>
      <trkpt lat="47.00723" lon="6.92809">
        <ele>722.53</ele>
        <time>2020-07-04T07:51:36.558Z</time>
      </trkpt>
      <trkpt lat="47.00731" lon="6.92821">
        <ele>723.04</ele>
        <time>2020-07-04T07:51:40.663Z</time>
      </trkpt>
      <trkpt lat="47.00733" lon="6.92825">
        <ele>722.95</ele>
        <time>2020-07-04T07:51:41.097Z</time>
      </trkpt>
      <trkpt lat="47.00742" lon="6.92838">
        <ele>723.19</ele>
        <time>2020-07-04T07:51:44.346Z</time>
      </trkpt>
      <trkpt lat="47.00746" lon="6.9285">
        <ele>723.36</ele>
        <time>2020-07-04T07:51:46.680Z</time>
      </trkpt>
      <trkpt lat="47.00749" lon="6.92859">
        <ele>723.45</ele>
        <time>2020-07-04T07:51:48.330Z</time>
      </trkpt>
      <trkpt lat="47.00751" lon="6.92866">
        <ele>723.57</ele>
        <time>2020-07-04T07:51:49.726Z</time>
      </trkpt>
      <trkpt lat="47.00753" lon="6.92881">
        <ele>723.79</ele>
        <time>2020-07-04T07:51:52.471Z</time>
      </trkpt>
      <trkpt lat="47.00758" lon="6.92899">
        <ele>724.11</ele>
        <time>2020-07-04T07:51:56.087Z</time>
      </trkpt>
      <trkpt lat="47.00763" lon="6.92912">
        <ele>724.29</ele>
        <time>2020-07-04T07:51:58.667Z</time>
      </trkpt>
      <trkpt lat="47.00767" lon="6.92919">
        <ele>724.36</ele>
        <time>2020-07-04T07:52:00.142Z</time>
      </trkpt>
      <trkpt lat="47.00771" lon="6.92926">
        <ele>724.34</ele>
        <time>2020-07-04T07:52:01.403Z</time>
      </trkpt>
      <trkpt lat="47.00774" lon="6.92936">
        <ele>724.28</ele>
        <time>2020-07-04T07:52:02.601Z</time>
      </trkpt>
      <trkpt lat="47.00777" lon="6.92946">
        <ele>724.47</ele>
        <time>2020-07-04T07:52:04.666Z</time>
      </trkpt>
      <trkpt lat="47.00777" lon="6.92961">
        <ele>724.51</ele>
        <time>2020-07-04T07:52:06.920Z</time>
      </trkpt>
      <trkpt lat="47.00775" lon="6.92978">
        <ele>723.77</ele>
        <time>2020-07-04T07:52:08.002Z</time>
      </trkpt>
      <trkpt lat="47.00775" lon="6.92992">
        <ele>722.92</ele>
        <time>2020-07-04T07:52:08.933Z</time>
      </trkpt>
      <trkpt lat="47.00776" lon="6.93017">
        <ele>721.32</ele>
        <time>2020-07-04T07:52:10.600Z</time>
      </trkpt>
      <trkpt lat="47.00778" lon="6.93036">
        <ele>719.97</ele>
        <time>2020-07-04T07:52:11.879Z</time>
      </trkpt>
      <trkpt lat="47.00779" lon="6.9305">
        <ele>719.36</ele>
        <time>2020-07-04T07:52:12.757Z</time>
      </trkpt>
      <trkpt lat="47.00779" lon="6.93061">
        <ele>719.03</ele>
        <time>2020-07-04T07:52:13.567Z</time>
      </trkpt>
      <trkpt lat="47.00778" lon="6.93071">
        <ele>718.64</ele>
        <time>2020-07-04T07:52:14.234Z</time>
      </trkpt>
      <trkpt lat="47.00776" lon="6.93083">
        <ele>717.78</ele>
        <time>2020-07-04T07:52:15.056Z</time>
      </trkpt>
      <trkpt lat="47.00774" lon="6.93096">
        <ele>716.93</ele>
        <time>2020-07-04T07:52:15.942Z</time>
      </trkpt>
      <trkpt lat="47.00772" lon="6.93109">
        <ele>716.16</ele>
        <time>2020-07-04T07:52:16.829Z</time>
      </trkpt>
      <trkpt lat="47.00769" lon="6.93125">
        <ele>715.48</ele>
        <time>2020-07-04T07:52:17.893Z</time>
      </trkpt>
      <trkpt lat="47.00768" lon="6.93133">
        <ele>715.21</ele>
        <time>2020-07-04T07:52:18.467Z</time>
      </trkpt>
      <trkpt lat="47.00765" lon="6.93143">
        <ele>714.89</ele>
        <time>2020-07-04T07:52:19.279Z</time>
      </trkpt>
      <trkpt lat="47.00761" lon="6.93172">
        <ele>714.59</ele>
        <time>2020-07-04T07:52:22.248Z</time>
      </trkpt>
      <trkpt lat="47.00758" lon="6.93194">
        <ele>714.78</ele>
        <time>2020-07-04T07:52:25.915Z</time>
      </trkpt>
      <trkpt lat="47.00757" lon="6.93206">
        <ele>715.18</ele>
        <time>2020-07-04T07:52:28.948Z</time>
      </trkpt>
      <trkpt lat="47.00757" lon="6.93219">
        <ele>715.79</ele>
        <time>2020-07-04T07:52:32.704Z</time>
      </trkpt>
      <trkpt lat="47.00758" lon="6.93234">
        <ele>716.54</ele>
        <time>2020-07-04T07:52:37.198Z</time>
      </trkpt>
      <trkpt lat="47.0076" lon="6.9325">
        <ele>717.34</ele>
        <time>2020-07-04T07:52:42.018Z</time>
      </trkpt>
      <trkpt lat="47.00762" lon="6.93262">
        <ele>717.95</ele>
        <time>2020-07-04T07:52:45.685Z</time>
      </trkpt>
      <trkpt lat="47.00766" lon="6.93276">
        <ele>718.42</ele>
        <time>2020-07-04T07:52:49.418Z</time>
      </trkpt>
      <trkpt lat="47.00772" lon="6.93314">
        <ele>719.07</ele>
        <time>2020-07-04T07:52:56.699Z</time>
      </trkpt>
      <trkpt lat="47.00773" lon="6.93319">
        <ele>718.79</ele>
        <time>2020-07-04T07:52:57.045Z</time>
      </trkpt>
      <trkpt lat="47.00772" lon="6.93319">
        <ele>718.79</ele>
        <time>2020-07-04T07:52:57.258Z</time>
      </trkpt>
      <trkpt lat="47.00776" lon="6.93343">
        <ele>718.5</ele>
        <time>2020-07-04T07:52:59.666Z</time>
      </trkpt>
      <trkpt lat="47.00777" lon="6.93351">
        <ele>718.35</ele>
        <time>2020-07-04T07:53:00.375Z</time>
      </trkpt>
      <trkpt lat="47.00779" lon="6.93355">
        <ele>718.24</ele>
        <time>2020-07-04T07:53:00.783Z</time>
      </trkpt>
      <trkpt lat="47.0078" lon="6.93358">
        <ele>718.1</ele>
        <time>2020-07-04T07:53:00.995Z</time>
      </trkpt>
      <trkpt lat="47.00787" lon="6.93369">
        <ele>717.85</ele>
        <time>2020-07-04T07:53:02.344Z</time>
      </trkpt>
      <trkpt lat="47.00792" lon="6.93378">
        <ele>717.75</ele>
        <time>2020-07-04T07:53:03.543Z</time>
      </trkpt>
      <trkpt lat="47.00797" lon="6.93391">
        <ele>717.68</ele>
        <time>2020-07-04T07:53:05.499Z</time>
      </trkpt>
      <trkpt lat="47.00799" lon="6.934">
        <ele>717.69</ele>
        <time>2020-07-04T07:53:06.890Z</time>
      </trkpt>
      <trkpt lat="47.008" lon="6.93407">
        <ele>717.67</ele>
        <time>2020-07-04T07:53:07.865Z</time>
      </trkpt>
      <trkpt lat="47.008" lon="6.93419">
        <ele>717.63</ele>
        <time>2020-07-04T07:53:09.482Z</time>
      </trkpt>
      <trkpt lat="47.00802" lon="6.93436">
        <ele>717.47</ele>
        <time>2020-07-04T07:53:11.241Z</time>
      </trkpt>
      <trkpt lat="47.00805" lon="6.93457">
        <ele>717.09</ele>
        <time>2020-07-04T07:53:13.131Z</time>
      </trkpt>
      <trkpt lat="47.00812" lon="6.93488">
        <ele>716.57</ele>
        <time>2020-07-04T07:53:16.094Z</time>
      </trkpt>
      <trkpt lat="47.00815" lon="6.93502">
        <ele>716.37</ele>
        <time>2020-07-04T07:53:17.479Z</time>
      </trkpt>
      <trkpt lat="47.0082" lon="6.93526">
        <ele>716.29</ele>
        <time>2020-07-04T07:53:20.871Z</time>
      </trkpt>
      <trkpt lat="47.00825" lon="6.93548">
        <ele>716.26</ele>
        <time>2020-07-04T07:53:24.136Z</time>
      </trkpt>
      <trkpt lat="47.00829" lon="6.93563">
        <ele>716.32</ele>
        <time>2020-07-04T07:53:26.592Z</time>
      </trkpt>
      <trkpt lat="47.00831" lon="6.93575">
        <ele>715.91</ele>
        <time>2020-07-04T07:53:27.464Z</time>
      </trkpt>
      <trkpt lat="47.0083" lon="6.93591">
        <ele>714.21</ele>
        <time>2020-07-04T07:53:28.533Z</time>
      </trkpt>
      <trkpt lat="47.00832" lon="6.93621">
        <ele>712.46</ele>
        <time>2020-07-04T07:53:30.538Z</time>
      </trkpt>
      <trkpt lat="47.00835" lon="6.93636">
        <ele>711.33</ele>
        <time>2020-07-04T07:53:31.578Z</time>
      </trkpt>
      <trkpt lat="47.00838" lon="6.93657">
        <ele>709.02</ele>
        <time>2020-07-04T07:53:33.005Z</time>
      </trkpt>
      <trkpt lat="47.00844" lon="6.93679">
        <ele>708.35</ele>
        <time>2020-07-04T07:53:34.790Z</time>
      </trkpt>
      <trkpt lat="47.00843" lon="6.93679">
        <ele>708.35</ele>
        <time>2020-07-04T07:53:35.003Z</time>
      </trkpt>
      <trkpt lat="47.00844" lon="6.93679">
        <ele>707.69</ele>
        <time>2020-07-04T07:53:35.100Z</time>
      </trkpt>
      <trkpt lat="47.00847" lon="6.93693">
        <ele>707.13</ele>
        <time>2020-07-04T07:53:36.074Z</time>
      </trkpt>
      <trkpt lat="47.00848" lon="6.93701">
        <ele>707.07</ele>
        <time>2020-07-04T07:53:36.933Z</time>
      </trkpt>
      <trkpt lat="47.00848" lon="6.93712">
        <ele>706.11</ele>
        <time>2020-07-04T07:53:37.665Z</time>
      </trkpt>
      <trkpt lat="47.00848" lon="6.93728">
        <ele>704.59</ele>
        <time>2020-07-04T07:53:38.729Z</time>
      </trkpt>
      <trkpt lat="47.00848" lon="6.9375">
        <ele>702.87</ele>
        <time>2020-07-04T07:53:40.193Z</time>
      </trkpt>
      <trkpt lat="47.00848" lon="6.93761">
        <ele>702.2</ele>
        <time>2020-07-04T07:53:40.925Z</time>
      </trkpt>
      <trkpt lat="47.00845" lon="6.93777">
        <ele>701.62</ele>
        <time>2020-07-04T07:53:42.070Z</time>
      </trkpt>
      <trkpt lat="47.00841" lon="6.93793">
        <ele>700.74</ele>
        <time>2020-07-04T07:53:43.204Z</time>
      </trkpt>
      <trkpt lat="47.00838" lon="6.93806">
        <ele>699.91</ele>
        <time>2020-07-04T07:53:44.117Z</time>
      </trkpt>
      <trkpt lat="47.00837" lon="6.9382">
        <ele>698.71</ele>
        <time>2020-07-04T07:53:45.053Z</time>
      </trkpt>
      <trkpt lat="47.00839" lon="6.93835">
        <ele>697.38</ele>
        <time>2020-07-04T07:53:46.070Z</time>
      </trkpt>
      <trkpt lat="47.00842" lon="6.93846">
        <ele>696.79</ele>
        <time>2020-07-04T07:53:46.858Z</time>
      </trkpt>
      <trkpt lat="47.00846" lon="6.93859">
        <ele>695.83</ele>
        <time>2020-07-04T07:53:47.807Z</time>
      </trkpt>
      <trkpt lat="47.0085" lon="6.93867">
        <ele>695.43</ele>
        <time>2020-07-04T07:53:48.448Z</time>
      </trkpt>
      <trkpt lat="47.00855" lon="6.93875">
        <ele>694.73</ele>
        <time>2020-07-04T07:53:49.170Z</time>
      </trkpt>
      <trkpt lat="47.0087" lon="6.93899">
        <ele>693.85</ele>
        <time>2020-07-04T07:53:51.665Z</time>
      </trkpt>
      <trkpt lat="47.00877" lon="6.93911">
        <ele>693.27</ele>
        <time>2020-07-04T07:53:52.731Z</time>
      </trkpt>
      <trkpt lat="47.00882" lon="6.93921">
        <ele>692.74</ele>
        <time>2020-07-04T07:53:53.511Z</time>
      </trkpt>
      <trkpt lat="47.00884" lon="6.93925">
        <ele>692.53</ele>
        <time>2020-07-04T07:53:53.824Z</time>
      </trkpt>
      <trkpt lat="47.00886" lon="6.93931">
        <ele>692.25</ele>
        <time>2020-07-04T07:53:54.247Z</time>
      </trkpt>
      <trkpt lat="47.00887" lon="6.93937">
        <ele>691.83</ele>
        <time>2020-07-04T07:53:54.658Z</time>
      </trkpt>
      <trkpt lat="47.00887" lon="6.93943">
        <ele>691.5</ele>
        <time>2020-07-04T07:53:55.057Z</time>
      </trkpt>
      <trkpt lat="47.00887" lon="6.9395">
        <ele>691.1</ele>
        <time>2020-07-04T07:53:55.523Z</time>
      </trkpt>
      <trkpt lat="47.00886" lon="6.93962">
        <ele>690.44</ele>
        <time>2020-07-04T07:53:56.327Z</time>
      </trkpt>
      <trkpt lat="47.00886" lon="6.93976">
        <ele>689.83</ele>
        <time>2020-07-04T07:53:57.199Z</time>
      </trkpt>
      <trkpt lat="47.00886" lon="6.93994">
        <ele>689.22</ele>
        <time>2020-07-04T07:53:58.458Z</time>
      </trkpt>
      <trkpt lat="47.00887" lon="6.94002">
        <ele>688.99</ele>
        <time>2020-07-04T07:53:59.071Z</time>
      </trkpt>
      <trkpt lat="47.00888" lon="6.94012">
        <ele>688.64</ele>
        <time>2020-07-04T07:53:59.771Z</time>
      </trkpt>
      <trkpt lat="47.00889" lon="6.94029">
        <ele>687.86</ele>
        <time>2020-07-04T07:54:00.906Z</time>
      </trkpt>
      <trkpt lat="47.0089" lon="6.94052">
        <ele>686.77</ele>
        <time>2020-07-04T07:54:02.439Z</time>
      </trkpt>
      <trkpt lat="47.00892" lon="6.94078">
        <ele>685.58</ele>
        <time>2020-07-04T07:54:04.033Z</time>
      </trkpt>
      <trkpt lat="47.00893" lon="6.941">
        <ele>684.59</ele>
        <time>2020-07-04T07:54:05.386Z</time>
      </trkpt>
      <trkpt lat="47.00893" lon="6.94108">
        <ele>684.26</ele>
        <time>2020-07-04T07:54:05.897Z</time>
      </trkpt>
      <trkpt lat="47.00892" lon="6.94115">
        <ele>683.88</ele>
        <time>2020-07-04T07:54:06.373Z</time>
      </trkpt>
      <trkpt lat="47.00891" lon="6.94122">
        <ele>683.46</ele>
        <time>2020-07-04T07:54:06.849Z</time>
      </trkpt>
      <trkpt lat="47.00889" lon="6.94133">
        <ele>682.88</ele>
        <time>2020-07-04T07:54:07.606Z</time>
      </trkpt>
      <trkpt lat="47.00887" lon="6.94144">
        <ele>682.36</ele>
        <time>2020-07-04T07:54:08.363Z</time>
      </trkpt>
      <trkpt lat="47.00887" lon="6.94151">
        <ele>682.09</ele>
        <time>2020-07-04T07:54:08.825Z</time>
      </trkpt>
      <trkpt lat="47.00887" lon="6.94164">
        <ele>681.63</ele>
        <time>2020-07-04T07:54:09.718Z</time>
      </trkpt>
      <trkpt lat="47.00887" lon="6.94183">
        <ele>680.93</ele>
        <time>2020-07-04T07:54:10.998Z</time>
      </trkpt>
      <trkpt lat="47.00888" lon="6.94203">
        <ele>680.25</ele>
        <time>2020-07-04T07:54:12.400Z</time>
      </trkpt>
      <trkpt lat="47.0089" lon="6.94235">
        <ele>679.24</ele>
        <time>2020-07-04T07:54:14.721Z</time>
      </trkpt>
      <trkpt lat="47.00891" lon="6.94247">
        <ele>678.82</ele>
        <time>2020-07-04T07:54:15.557Z</time>
      </trkpt>
      <trkpt lat="47.00892" lon="6.9428">
        <ele>677.75</ele>
        <time>2020-07-04T07:54:17.912Z</time>
      </trkpt>
      <trkpt lat="47.00893" lon="6.94298">
        <ele>677.16</ele>
        <time>2020-07-04T07:54:19.195Z</time>
      </trkpt>
      <trkpt lat="47.00895" lon="6.94302">
        <ele>677.03</ele>
        <time>2020-07-04T07:54:19.580Z</time>
      </trkpt>
      <trkpt lat="47.00897" lon="6.9431">
        <ele>676.6</ele>
        <time>2020-07-04T07:54:20.147Z</time>
      </trkpt>
      <trkpt lat="47.00899" lon="6.94322">
        <ele>676.05</ele>
        <time>2020-07-04T07:54:20.908Z</time>
      </trkpt>
      <trkpt lat="47.00901" lon="6.94335">
        <ele>675.63</ele>
        <time>2020-07-04T07:54:21.869Z</time>
      </trkpt>
      <trkpt lat="47.00903" lon="6.94369">
        <ele>674.79</ele>
        <time>2020-07-04T07:54:24.576Z</time>
      </trkpt>
      <trkpt lat="47.00906" lon="6.94405">
        <ele>674.25</ele>
        <time>2020-07-04T07:54:27.924Z</time>
      </trkpt>
      <trkpt lat="47.00908" lon="6.94418">
        <ele>674.15</ele>
        <time>2020-07-04T07:54:29.329Z</time>
      </trkpt>
      <trkpt lat="47.0091" lon="6.94427">
        <ele>674.11</ele>
        <time>2020-07-04T07:54:30.581Z</time>
      </trkpt>
      <trkpt lat="47.00912" lon="6.94438">
        <ele>674.05</ele>
        <time>2020-07-04T07:54:31.835Z</time>
      </trkpt>
      <trkpt lat="47.00919" lon="6.94465">
        <ele>674.03</ele>
        <time>2020-07-04T07:54:35.956Z</time>
      </trkpt>
      <trkpt lat="47.00919" lon="6.94464">
        <ele>674.03</ele>
        <time>2020-07-04T07:54:36.101Z</time>
      </trkpt>
      <trkpt lat="47.00919" lon="6.94466">
        <ele>674.02</ele>
        <time>2020-07-04T07:54:36.322Z</time>
      </trkpt>
      <trkpt lat="47.00924" lon="6.94484">
        <ele>673.67</ele>
        <time>2020-07-04T07:54:38.027Z</time>
      </trkpt>
      <trkpt lat="47.00928" lon="6.94502">
        <ele>673.31</ele>
        <time>2020-07-04T07:54:39.661Z</time>
      </trkpt>
      <trkpt lat="47.00931" lon="6.94513">
        <ele>673.05</ele>
        <time>2020-07-04T07:54:40.638Z</time>
      </trkpt>
      <trkpt lat="47.00933" lon="6.94524">
        <ele>672.77</ele>
        <time>2020-07-04T07:54:41.542Z</time>
      </trkpt>
      <trkpt lat="47.00935" lon="6.94548">
        <ele>672.28</ele>
        <time>2020-07-04T07:54:43.588Z</time>
      </trkpt>
      <trkpt lat="47.00937" lon="6.94576">
        <ele>671.54</ele>
        <time>2020-07-04T07:54:45.769Z</time>
      </trkpt>
      <trkpt lat="47.00943" lon="6.94598">
        <ele>670.63</ele>
        <time>2020-07-04T07:54:47.336Z</time>
      </trkpt>
      <trkpt lat="47.00962" lon="6.94645">
        <ele>670.3</ele>
        <time>2020-07-04T07:54:53.263Z</time>
      </trkpt>
      <trkpt lat="47.00964" lon="6.9465">
        <ele>670.4</ele>
        <time>2020-07-04T07:54:54.356Z</time>
      </trkpt>
      <trkpt lat="47.00969" lon="6.94667">
        <ele>670.78</ele>
        <time>2020-07-04T07:54:58.059Z</time>
      </trkpt>
      <trkpt lat="47.00976" lon="6.9469">
        <ele>670.32</ele>
        <time>2020-07-04T07:55:00.259Z</time>
      </trkpt>
      <trkpt lat="47.00989" lon="6.94722">
        <ele>670.12</ele>
        <time>2020-07-04T07:55:04.354Z</time>
      </trkpt>
      <trkpt lat="47.01" lon="6.94752">
        <ele>669.91</ele>
        <time>2020-07-04T07:55:08.039Z</time>
      </trkpt>
      <trkpt lat="47.01015" lon="6.94793">
        <ele>669.84</ele>
        <time>2020-07-04T07:55:14.559Z</time>
      </trkpt>
      <trkpt lat="47.01025" lon="6.94814">
        <ele>669.83</ele>
        <time>2020-07-04T07:55:18.238Z</time>
      </trkpt>
      <trkpt lat="47.01031" lon="6.94824">
        <ele>670.02</ele>
        <time>2020-07-04T07:55:20.625Z</time>
      </trkpt>
      <trkpt lat="47.0104" lon="6.94843">
        <ele>670.27</ele>
        <time>2020-07-04T07:55:24.545Z</time>
      </trkpt>
      <trkpt lat="47.01044" lon="6.94852">
        <ele>670.28</ele>
        <time>2020-07-04T07:55:26.121Z</time>
      </trkpt>
      <trkpt lat="47.01048" lon="6.94862">
        <ele>670.43</ele>
        <time>2020-07-04T07:55:28.154Z</time>
      </trkpt>
      <trkpt lat="47.0105" lon="6.94871">
        <ele>670.53</ele>
        <time>2020-07-04T07:55:29.752Z</time>
      </trkpt>
      <trkpt lat="47.0105" lon="6.9487">
        <ele>670.53</ele>
        <time>2020-07-04T07:55:29.897Z</time>
      </trkpt>
      <trkpt lat="47.01053" lon="6.94883">
        <ele>670.62</ele>
        <time>2020-07-04T07:55:32.077Z</time>
      </trkpt>
      <trkpt lat="47.01058" lon="6.94898">
        <ele>670.69</ele>
        <time>2020-07-04T07:55:34.640Z</time>
      </trkpt>
      <trkpt lat="47.01063" lon="6.94915">
        <ele>670.74</ele>
        <time>2020-07-04T07:55:37.423Z</time>
      </trkpt>
      <trkpt lat="47.01076" lon="6.94949">
        <ele>670.55</ele>
        <time>2020-07-04T07:55:42.512Z</time>
      </trkpt>
      <trkpt lat="47.01087" lon="6.9498">
        <ele>669.67</ele>
        <time>2020-07-04T07:55:45.262Z</time>
      </trkpt>
      <trkpt lat="47.01094" lon="6.94996">
        <ele>669.39</ele>
        <time>2020-07-04T07:55:47.021Z</time>
      </trkpt>
      <trkpt lat="47.01106" lon="6.95029">
        <ele>669.56</ele>
        <time>2020-07-04T07:55:52.791Z</time>
      </trkpt>
      <trkpt lat="47.01111" lon="6.95041">
        <ele>669.69</ele>
        <time>2020-07-04T07:55:55.117Z</time>
      </trkpt>
      <trkpt lat="47.01114" lon="6.95051">
        <ele>669.73</ele>
        <time>2020-07-04T07:55:56.782Z</time>
      </trkpt>
      <trkpt lat="47.01117" lon="6.95063">
        <ele>669.67</ele>
        <time>2020-07-04T07:55:58.457Z</time>
      </trkpt>
      <trkpt lat="47.0112" lon="6.95077">
        <ele>669.43</ele>
        <time>2020-07-04T07:55:59.779Z</time>
      </trkpt>
      <trkpt lat="47.01123" lon="6.95091">
        <ele>669.04</ele>
        <time>2020-07-04T07:56:00.911Z</time>
      </trkpt>
      <trkpt lat="47.01124" lon="6.95114">
        <ele>668.11</ele>
        <time>2020-07-04T07:56:02.400Z</time>
      </trkpt>
      <trkpt lat="47.01124" lon="6.95124">
        <ele>667.81</ele>
        <time>2020-07-04T07:56:03.136Z</time>
      </trkpt>
      <trkpt lat="47.01126" lon="6.95145">
        <ele>667.47</ele>
        <time>2020-07-04T07:56:05.056Z</time>
      </trkpt>
      <trkpt lat="47.01128" lon="6.95158">
        <ele>667.46</ele>
        <time>2020-07-04T07:56:06.954Z</time>
      </trkpt>
      <trkpt lat="47.0113" lon="6.95168">
        <ele>667.39</ele>
        <time>2020-07-04T07:56:08.070Z</time>
      </trkpt>
      <trkpt lat="47.01133" lon="6.95181">
        <ele>667.15</ele>
        <time>2020-07-04T07:56:09.284Z</time>
      </trkpt>
      <trkpt lat="47.01136" lon="6.9519">
        <ele>667</ele>
        <time>2020-07-04T07:56:10.207Z</time>
      </trkpt>
      <trkpt lat="47.01146" lon="6.95211">
        <ele>666.87</ele>
        <time>2020-07-04T07:56:13.039Z</time>
      </trkpt>
      <trkpt lat="47.01175" lon="6.95281">
        <ele>666.86</ele>
        <time>2020-07-04T07:56:24.872Z</time>
      </trkpt>
      <trkpt lat="47.0119" lon="6.95317">
        <ele>667.18</ele>
        <time>2020-07-04T07:56:31.677Z</time>
      </trkpt>
      <trkpt lat="47.01207" lon="6.9536">
        <ele>666.45</ele>
        <time>2020-07-04T07:56:36.281Z</time>
      </trkpt>
      <trkpt lat="47.0122" lon="6.95397">
        <ele>666.87</ele>
        <time>2020-07-04T07:56:43.256Z</time>
      </trkpt>
      <trkpt lat="47.01227" lon="6.95414">
        <ele>667.6</ele>
        <time>2020-07-04T07:56:48.418Z</time>
      </trkpt>
      <trkpt lat="47.01233" lon="6.95419">
        <ele>667.9</ele>
        <time>2020-07-04T07:56:50.854Z</time>
      </trkpt>
      <trkpt lat="47.01239" lon="6.95423">
        <ele>667.96</ele>
        <time>2020-07-04T07:56:52.382Z</time>
      </trkpt>
      <trkpt lat="47.01244" lon="6.95427">
        <ele>667.94</ele>
        <time>2020-07-04T07:56:53.530Z</time>
      </trkpt>
      <trkpt lat="47.01249" lon="6.95433">
        <ele>667.8</ele>
        <time>2020-07-04T07:56:54.407Z</time>
      </trkpt>
      <trkpt lat="47.01253" lon="6.9544">
        <ele>667.67</ele>
        <time>2020-07-04T07:56:55.259Z</time>
      </trkpt>
      <trkpt lat="47.01257" lon="6.95452">
        <ele>667.33</ele>
        <time>2020-07-04T07:56:56.306Z</time>
      </trkpt>
      <trkpt lat="47.01269" lon="6.95478">
        <ele>666.15</ele>
        <time>2020-07-04T07:56:58.403Z</time>
      </trkpt>
      <trkpt lat="47.01276" lon="6.95493">
        <ele>665.37</ele>
        <time>2020-07-04T07:56:59.543Z</time>
      </trkpt>
      <trkpt lat="47.01285" lon="6.95508">
        <ele>664.59</ele>
        <time>2020-07-04T07:57:00.854Z</time>
      </trkpt>
      <trkpt lat="47.01294" lon="6.95522">
        <ele>664.57</ele>
        <time>2020-07-04T07:57:03.577Z</time>
      </trkpt>
      <trkpt lat="47.01299" lon="6.95529">
        <ele>664.76</ele>
        <time>2020-07-04T07:57:05.540Z</time>
      </trkpt>
      <trkpt lat="47.01308" lon="6.95543">
        <ele>665.2</ele>
        <time>2020-07-04T07:57:09.563Z</time>
      </trkpt>
      <trkpt lat="47.01312" lon="6.95552">
        <ele>665.42</ele>
        <time>2020-07-04T07:57:11.710Z</time>
      </trkpt>
      <trkpt lat="47.01316" lon="6.9556">
        <ele>665.3</ele>
        <time>2020-07-04T07:57:12.671Z</time>
      </trkpt>
      <trkpt lat="47.0132" lon="6.95572">
        <ele>665.4</ele>
        <time>2020-07-04T07:57:14.822Z</time>
      </trkpt>
      <trkpt lat="47.01324" lon="6.95582">
        <ele>665.68</ele>
        <time>2020-07-04T07:57:17.308Z</time>
      </trkpt>
      <trkpt lat="47.01328" lon="6.95587">
        <ele>665.53</ele>
        <time>2020-07-04T07:57:17.969Z</time>
      </trkpt>
      <trkpt lat="47.01339" lon="6.95596">
        <ele>665.57</ele>
        <time>2020-07-04T07:57:20.725Z</time>
      </trkpt>
      <trkpt lat="47.0135" lon="6.95609">
        <ele>664.91</ele>
        <time>2020-07-04T07:57:22.212Z</time>
      </trkpt>
      <trkpt lat="47.01354" lon="6.95618">
        <ele>664.03</ele>
        <time>2020-07-04T07:57:22.927Z</time>
      </trkpt>
      <trkpt lat="47.01356" lon="6.95622">
        <ele>663.62</ele>
        <time>2020-07-04T07:57:23.257Z</time>
      </trkpt>
      <trkpt lat="47.01358" lon="6.95628">
        <ele>663.14</ele>
        <time>2020-07-04T07:57:23.701Z</time>
      </trkpt>
      <trkpt lat="47.01359" lon="6.95632">
        <ele>662.75</ele>
        <time>2020-07-04T07:57:23.985Z</time>
      </trkpt>
      <trkpt lat="47.0136" lon="6.95638">
        <ele>662.23</ele>
        <time>2020-07-04T07:57:24.396Z</time>
      </trkpt>
      <trkpt lat="47.01361" lon="6.95646">
        <ele>661.7</ele>
        <time>2020-07-04T07:57:24.937Z</time>
      </trkpt>
      <trkpt lat="47.01363" lon="6.95675">
        <ele>660.35</ele>
        <time>2020-07-04T07:57:26.876Z</time>
      </trkpt>
      <trkpt lat="47.01363" lon="6.95674">
        <ele>660.35</ele>
        <time>2020-07-04T07:57:27.020Z</time>
      </trkpt>
      <trkpt lat="47.01363" lon="6.95681">
        <ele>659.01</ele>
        <time>2020-07-04T07:57:27.486Z</time>
      </trkpt>
      <trkpt lat="47.01365" lon="6.95709">
        <ele>656.87</ele>
        <time>2020-07-04T07:57:29.359Z</time>
      </trkpt>
      <trkpt lat="47.01366" lon="6.95714">
        <ele>656.46</ele>
        <time>2020-07-04T07:57:29.705Z</time>
      </trkpt>
      <trkpt lat="47.01367" lon="6.95724">
        <ele>655.46</ele>
        <time>2020-07-04T07:57:30.378Z</time>
      </trkpt>
      <trkpt lat="47.01371" lon="6.95741">
        <ele>654.04</ele>
        <time>2020-07-04T07:57:31.574Z</time>
      </trkpt>
      <trkpt lat="47.01372" lon="6.95746">
        <ele>653.69</ele>
        <time>2020-07-04T07:57:31.921Z</time>
      </trkpt>
      <trkpt lat="47.01375" lon="6.95753">
        <ele>653.11</ele>
        <time>2020-07-04T07:57:32.471Z</time>
      </trkpt>
      <trkpt lat="47.01377" lon="6.95759">
        <ele>652.55</ele>
        <time>2020-07-04T07:57:32.915Z</time>
      </trkpt>
      <trkpt lat="47.01385" lon="6.9578">
        <ele>649.87</ele>
        <time>2020-07-04T07:57:34.515Z</time>
      </trkpt>
      <trkpt lat="47.01388" lon="6.95789">
        <ele>648.74</ele>
        <time>2020-07-04T07:57:35.182Z</time>
      </trkpt>
      <trkpt lat="47.0139" lon="6.95799">
        <ele>647.28</ele>
        <time>2020-07-04T07:57:35.875Z</time>
      </trkpt>
      <trkpt lat="47.01393" lon="6.95812">
        <ele>645.45</ele>
        <time>2020-07-04T07:57:36.788Z</time>
      </trkpt>
      <trkpt lat="47.01402" lon="6.95853">
        <ele>639.75</ele>
        <time>2020-07-04T07:57:39.653Z</time>
      </trkpt>
      <trkpt lat="47.01403" lon="6.95859">
        <ele>639.05</ele>
        <time>2020-07-04T07:57:40.064Z</time>
      </trkpt>
      <trkpt lat="47.01404" lon="6.95866">
        <ele>638.64</ele>
        <time>2020-07-04T07:57:40.540Z</time>
      </trkpt>
      <trkpt lat="47.01405" lon="6.95875">
        <ele>638.37</ele>
        <time>2020-07-04T07:57:41.214Z</time>
      </trkpt>
      <trkpt lat="47.01405" lon="6.95882">
        <ele>638.19</ele>
        <time>2020-07-04T07:57:41.761Z</time>
      </trkpt>
      <trkpt lat="47.01405" lon="6.95885">
        <ele>638.05</ele>
        <time>2020-07-04T07:57:41.960Z</time>
      </trkpt>
      <trkpt lat="47.01404" lon="6.95888">
        <ele>637.79</ele>
        <time>2020-07-04T07:57:42.182Z</time>
      </trkpt>
      <trkpt lat="47.01402" lon="6.95892">
        <ele>637.47</ele>
        <time>2020-07-04T07:57:42.512Z</time>
      </trkpt>
      <trkpt lat="47.01403" lon="6.95903">
        <ele>636.8</ele>
        <time>2020-07-04T07:57:43.250Z</time>
      </trkpt>
      <trkpt lat="47.01405" lon="6.95914">
        <ele>636.2</ele>
        <time>2020-07-04T07:57:44.008Z</time>
      </trkpt>
      <trkpt lat="47.01416" lon="6.95953">
        <ele>634.28</ele>
        <time>2020-07-04T07:57:46.815Z</time>
      </trkpt>
      <trkpt lat="47.01421" lon="6.9597">
        <ele>633.46</ele>
        <time>2020-07-04T07:57:47.958Z</time>
      </trkpt>
      <trkpt lat="47.01427" lon="6.95998">
        <ele>632.79</ele>
        <time>2020-07-04T07:57:50.348Z</time>
      </trkpt>
      <trkpt lat="47.01427" lon="6.95997">
        <ele>632.79</ele>
        <time>2020-07-04T07:57:50.493Z</time>
      </trkpt>
      <trkpt lat="47.01429" lon="6.96004">
        <ele>632.12</ele>
        <time>2020-07-04T07:57:50.998Z</time>
      </trkpt>
      <trkpt lat="47.01443" lon="6.96076">
        <ele>630.15</ele>
        <time>2020-07-04T07:57:56.794Z</time>
      </trkpt>
      <trkpt lat="47.01451" lon="6.96119">
        <ele>628.07</ele>
        <time>2020-07-04T07:57:59.759Z</time>
      </trkpt>
      <trkpt lat="47.01455" lon="6.96149">
        <ele>626.67</ele>
        <time>2020-07-04T07:58:01.792Z</time>
      </trkpt>
      <trkpt lat="47.0146" lon="6.96171">
        <ele>625.57</ele>
        <time>2020-07-04T07:58:03.335Z</time>
      </trkpt>
      <trkpt lat="47.01468" lon="6.96196">
        <ele>625.09</ele>
        <time>2020-07-04T07:58:05.781Z</time>
      </trkpt>
      <trkpt lat="47.01476" lon="6.96217">
        <ele>624.25</ele>
        <time>2020-07-04T07:58:07.441Z</time>
      </trkpt>
      <trkpt lat="47.01485" lon="6.96245">
        <ele>623.42</ele>
        <time>2020-07-04T07:58:09.821Z</time>
      </trkpt>
      <trkpt lat="47.01493" lon="6.96265">
        <ele>622.72</ele>
        <time>2020-07-04T07:58:11.523Z</time>
      </trkpt>
      <trkpt lat="47.01498" lon="6.96282">
        <ele>622.11</ele>
        <time>2020-07-04T07:58:12.833Z</time>
      </trkpt>
      <trkpt lat="47.01509" lon="6.96306">
        <ele>620.99</ele>
        <time>2020-07-04T07:58:14.738Z</time>
      </trkpt>
      <trkpt lat="47.01518" lon="6.96328">
        <ele>619.84</ele>
        <time>2020-07-04T07:58:16.312Z</time>
      </trkpt>
      <trkpt lat="47.01525" lon="6.96345">
        <ele>619.35</ele>
        <time>2020-07-04T07:58:17.886Z</time>
      </trkpt>
      <trkpt lat="47.01529" lon="6.9636">
        <ele>618.49</ele>
        <time>2020-07-04T07:58:18.957Z</time>
      </trkpt>
      <trkpt lat="47.01538" lon="6.96386">
        <ele>617.32</ele>
        <time>2020-07-04T07:58:20.846Z</time>
      </trkpt>
      <trkpt lat="47.01543" lon="6.96403">
        <ele>616.52</ele>
        <time>2020-07-04T07:58:22.003Z</time>
      </trkpt>
      <trkpt lat="47.01545" lon="6.9641">
        <ele>616.01</ele>
        <time>2020-07-04T07:58:22.508Z</time>
      </trkpt>
      <trkpt lat="47.01547" lon="6.9642">
        <ele>615.45</ele>
        <time>2020-07-04T07:58:23.201Z</time>
      </trkpt>
      <trkpt lat="47.0155" lon="6.9646">
        <ele>612.65</ele>
        <time>2020-07-04T07:58:25.878Z</time>
      </trkpt>
      <trkpt lat="47.01552" lon="6.96471">
        <ele>612.15</ele>
        <time>2020-07-04T07:58:26.584Z</time>
      </trkpt>
      <trkpt lat="47.01554" lon="6.96485">
        <ele>611.52</ele>
        <time>2020-07-04T07:58:27.469Z</time>
      </trkpt>
      <trkpt lat="47.01556" lon="6.965">
        <ele>610.82</ele>
        <time>2020-07-04T07:58:28.486Z</time>
      </trkpt>
      <trkpt lat="47.01558" lon="6.96525">
        <ele>610.19</ele>
        <time>2020-07-04T07:58:30.471Z</time>
      </trkpt>
      <trkpt lat="47.01559" lon="6.96537">
        <ele>610.25</ele>
        <time>2020-07-04T07:58:32.347Z</time>
      </trkpt>
      <trkpt lat="47.01565" lon="6.96575">
        <ele>609.53</ele>
        <time>2020-07-04T07:58:35.743Z</time>
      </trkpt>
      <trkpt lat="47.0157" lon="6.96598">
        <ele>608.67</ele>
        <time>2020-07-04T07:58:37.394Z</time>
      </trkpt>
      <trkpt lat="47.01576" lon="6.96629">
        <ele>607.65</ele>
        <time>2020-07-04T07:58:39.714Z</time>
      </trkpt>
      <trkpt lat="47.01581" lon="6.96644">
        <ele>607.06</ele>
        <time>2020-07-04T07:58:40.860Z</time>
      </trkpt>
      <trkpt lat="47.01592" lon="6.96682">
        <ele>604.98</ele>
        <time>2020-07-04T07:58:43.606Z</time>
      </trkpt>
      <trkpt lat="47.01597" lon="6.96695">
        <ele>604.53</ele>
        <time>2020-07-04T07:58:44.703Z</time>
      </trkpt>
      <trkpt lat="47.01601" lon="6.9671">
        <ele>603.66</ele>
        <time>2020-07-04T07:58:45.774Z</time>
      </trkpt>
      <trkpt lat="47.01611" lon="6.96762">
        <ele>601.53</ele>
        <time>2020-07-04T07:58:49.303Z</time>
      </trkpt>
      <trkpt lat="47.01613" lon="6.9677">
        <ele>601.29</ele>
        <time>2020-07-04T07:58:49.946Z</time>
      </trkpt>
      <trkpt lat="47.01616" lon="6.96781">
        <ele>600.95</ele>
        <time>2020-07-04T07:58:50.833Z</time>
      </trkpt>
      <trkpt lat="47.01618" lon="6.96787">
        <ele>600.75</ele>
        <time>2020-07-04T07:58:51.325Z</time>
      </trkpt>
      <trkpt lat="47.01627" lon="6.96821">
        <ele>598.75</ele>
        <time>2020-07-04T07:58:53.751Z</time>
      </trkpt>
      <trkpt lat="47.01632" lon="6.96839">
        <ele>597.33</ele>
        <time>2020-07-04T07:58:55.043Z</time>
      </trkpt>
      <trkpt lat="47.01638" lon="6.96852">
        <ele>596.52</ele>
        <time>2020-07-04T07:58:56.088Z</time>
      </trkpt>
      <trkpt lat="47.01646" lon="6.96868">
        <ele>596.08</ele>
        <time>2020-07-04T07:58:57.719Z</time>
      </trkpt>
      <trkpt lat="47.01653" lon="6.96882">
        <ele>595.61</ele>
        <time>2020-07-04T07:58:59.049Z</time>
      </trkpt>
      <trkpt lat="47.0166" lon="6.96892">
        <ele>595.34</ele>
        <time>2020-07-04T07:59:00.289Z</time>
      </trkpt>
      <trkpt lat="47.01664" lon="6.96898">
        <ele>595.2</ele>
        <time>2020-07-04T07:59:01.041Z</time>
      </trkpt>
      <trkpt lat="47.01672" lon="6.96907">
        <ele>595.12</ele>
        <time>2020-07-04T07:59:02.665Z</time>
      </trkpt>
      <trkpt lat="47.0168" lon="6.96915">
        <ele>595.13</ele>
        <time>2020-07-04T07:59:04.741Z</time>
      </trkpt>
      <trkpt lat="47.01683" lon="6.96919">
        <ele>595.09</ele>
        <time>2020-07-04T07:59:05.378Z</time>
      </trkpt>
      <trkpt lat="47.01683" lon="6.96918">
        <ele>595.09</ele>
        <time>2020-07-04T07:59:05.523Z</time>
      </trkpt>
      <trkpt lat="47.01694" lon="6.96933">
        <ele>595.05</ele>
        <time>2020-07-04T07:59:08.588Z</time>
      </trkpt>
      <trkpt lat="47.01709" lon="6.96956">
        <ele>594.81</ele>
        <time>2020-07-04T07:59:11.941Z</time>
      </trkpt>
      <trkpt lat="47.0172" lon="6.96974">
        <ele>594.92</ele>
        <time>2020-07-04T07:59:15.670Z</time>
      </trkpt>
      <trkpt lat="47.01723" lon="6.96981">
        <ele>594.93</ele>
        <time>2020-07-04T07:59:16.888Z</time>
      </trkpt>
      <trkpt lat="47.0173" lon="6.97002">
        <ele>594.73</ele>
        <time>2020-07-04T07:59:19.303Z</time>
      </trkpt>
      <trkpt lat="47.01734" lon="6.97015">
        <ele>594.48</ele>
        <time>2020-07-04T07:59:20.563Z</time>
      </trkpt>
      <trkpt lat="47.01738" lon="6.97024">
        <ele>594.34</ele>
        <time>2020-07-04T07:59:21.587Z</time>
      </trkpt>
      <trkpt lat="47.01742" lon="6.97034">
        <ele>594.21</ele>
        <time>2020-07-04T07:59:22.727Z</time>
      </trkpt>
      <trkpt lat="47.01763" lon="6.97072">
        <ele>594</ele>
        <time>2020-07-04T07:59:29.189Z</time>
      </trkpt>
      <trkpt lat="47.01769" lon="6.97085">
        <ele>593.78</ele>
        <time>2020-07-04T07:59:30.660Z</time>
      </trkpt>
      <trkpt lat="47.01781" lon="6.97107">
        <ele>592.85</ele>
        <time>2020-07-04T07:59:32.652Z</time>
      </trkpt>
      <trkpt lat="47.0179" lon="6.9712">
        <ele>591.48</ele>
        <time>2020-07-04T07:59:33.884Z</time>
      </trkpt>
      <trkpt lat="47.01805" lon="6.9715">
        <ele>589.61</ele>
        <time>2020-07-04T07:59:36.359Z</time>
      </trkpt>
      <trkpt lat="47.01815" lon="6.97171">
        <ele>589.64</ele>
        <time>2020-07-04T07:59:40.128Z</time>
      </trkpt>
      <trkpt lat="47.0182" lon="6.97181">
        <ele>589.7</ele>
        <time>2020-07-04T07:59:42.049Z</time>
      </trkpt>
      <trkpt lat="47.01824" lon="6.97189">
        <ele>589.71</ele>
        <time>2020-07-04T07:59:43.506Z</time>
      </trkpt>
      <trkpt lat="47.01827" lon="6.97196">
        <ele>589.75</ele>
        <time>2020-07-04T07:59:44.787Z</time>
      </trkpt>
      <trkpt lat="47.01829" lon="6.97204">
        <ele>589.81</ele>
        <time>2020-07-04T07:59:46.150Z</time>
      </trkpt>
      <trkpt lat="47.01832" lon="6.97215">
        <ele>589.84</ele>
        <time>2020-07-04T07:59:47.927Z</time>
      </trkpt>
      <trkpt lat="47.01835" lon="6.97226">
        <ele>590</ele>
        <time>2020-07-04T07:59:50.023Z</time>
      </trkpt>
      <trkpt lat="47.0185" lon="6.97261">
        <ele>589.37</ele>
        <time>2020-07-04T07:59:53.816Z</time>
      </trkpt>
      <trkpt lat="47.01855" lon="6.97271">
        <ele>589.15</ele>
        <time>2020-07-04T07:59:54.908Z</time>
      </trkpt>
      <trkpt lat="47.0186" lon="6.97279">
        <ele>589.01</ele>
        <time>2020-07-04T07:59:55.945Z</time>
      </trkpt>
      <trkpt lat="47.01874" lon="6.97296">
        <ele>588.99</ele>
        <time>2020-07-04T07:59:59.742Z</time>
      </trkpt>
      <trkpt lat="47.01878" lon="6.97303">
        <ele>589.12</ele>
        <time>2020-07-04T08:00:01.377Z</time>
      </trkpt>
      <trkpt lat="47.01883" lon="6.97311">
        <ele>589.18</ele>
        <time>2020-07-04T08:00:03.076Z</time>
      </trkpt>
      <trkpt lat="47.01891" lon="6.97326">
        <ele>589.33</ele>
        <time>2020-07-04T08:00:06.160Z</time>
      </trkpt>
      <trkpt lat="47.01895" lon="6.97335">
        <ele>589.25</ele>
        <time>2020-07-04T08:00:07.294Z</time>
      </trkpt>
      <trkpt lat="47.01898" lon="6.9734">
        <ele>589.01</ele>
        <time>2020-07-04T08:00:07.747Z</time>
      </trkpt>
      <trkpt lat="47.01908" lon="6.97359">
        <ele>588.09</ele>
        <time>2020-07-04T08:00:09.336Z</time>
      </trkpt>
      <trkpt lat="47.01915" lon="6.97372">
        <ele>587.68</ele>
        <time>2020-07-04T08:00:10.647Z</time>
      </trkpt>
      <trkpt lat="47.0192" lon="6.97381">
        <ele>587.17</ele>
        <time>2020-07-04T08:00:11.366Z</time>
      </trkpt>
      <trkpt lat="47.01931" lon="6.97396">
        <ele>585.91</ele>
        <time>2020-07-04T08:00:12.832Z</time>
      </trkpt>
      <trkpt lat="47.01936" lon="6.97403">
        <ele>585.57</ele>
        <time>2020-07-04T08:00:13.544Z</time>
      </trkpt>
      <trkpt lat="47.01942" lon="6.97414">
        <ele>585.29</ele>
        <time>2020-07-04T08:00:14.743Z</time>
      </trkpt>
      <trkpt lat="47.01951" lon="6.97434">
        <ele>584.85</ele>
        <time>2020-07-04T08:00:16.833Z</time>
      </trkpt>
      <trkpt lat="47.01958" lon="6.97453">
        <ele>584.46</ele>
        <time>2020-07-04T08:00:18.725Z</time>
      </trkpt>
      <trkpt lat="47.01963" lon="6.97467">
        <ele>584.11</ele>
        <time>2020-07-04T08:00:20.025Z</time>
      </trkpt>
      <trkpt lat="47.01965" lon="6.97476">
        <ele>583.74</ele>
        <time>2020-07-04T08:00:20.646Z</time>
      </trkpt>
      <trkpt lat="47.01966" lon="6.97483">
        <ele>583.39</ele>
        <time>2020-07-04T08:00:21.121Z</time>
      </trkpt>
      <trkpt lat="47.01966" lon="6.97488">
        <ele>582.91</ele>
        <time>2020-07-04T08:00:21.454Z</time>
      </trkpt>
      <trkpt lat="47.01965" lon="6.97504">
        <ele>582.66</ele>
        <time>2020-07-04T08:00:22.920Z</time>
      </trkpt>
      <trkpt lat="47.01961" lon="6.97526">
        <ele>581.8</ele>
        <time>2020-07-04T08:00:24.437Z</time>
      </trkpt>
      <trkpt lat="47.01961" lon="6.97534">
        <ele>581.62</ele>
        <time>2020-07-04T08:00:25.091Z</time>
      </trkpt>
      <trkpt lat="47.01961" lon="6.97539">
        <ele>581.55</ele>
        <time>2020-07-04T08:00:25.560Z</time>
      </trkpt>
      <trkpt lat="47.01961" lon="6.97545">
        <ele>581.49</ele>
        <time>2020-07-04T08:00:26.163Z</time>
      </trkpt>
      <trkpt lat="47.01962" lon="6.97552">
        <ele>581.39</ele>
        <time>2020-07-04T08:00:26.834Z</time>
      </trkpt>
      <trkpt lat="47.01964" lon="6.97559">
        <ele>581.19</ele>
        <time>2020-07-04T08:00:27.421Z</time>
      </trkpt>
      <trkpt lat="47.01967" lon="6.97564">
        <ele>581.06</ele>
        <time>2020-07-04T08:00:27.991Z</time>
      </trkpt>
      <trkpt lat="47.01966" lon="6.97564">
        <ele>581.06</ele>
        <time>2020-07-04T08:00:28.204Z</time>
      </trkpt>
      <trkpt lat="47.01968" lon="6.97569">
        <ele>580.93</ele>
        <time>2020-07-04T08:00:28.678Z</time>
      </trkpt>
      <trkpt lat="47.01975" lon="6.97581">
        <ele>580.64</ele>
        <time>2020-07-04T08:00:30.055Z</time>
      </trkpt>
      <trkpt lat="47.01981" lon="6.97593">
        <ele>580.04</ele>
        <time>2020-07-04T08:00:31.017Z</time>
      </trkpt>
      <trkpt lat="47.01986" lon="6.97604">
        <ele>579.15</ele>
        <time>2020-07-04T08:00:31.896Z</time>
      </trkpt>
      <trkpt lat="47.0199" lon="6.9761">
        <ele>578.6</ele>
        <time>2020-07-04T08:00:32.454Z</time>
      </trkpt>
      <trkpt lat="47.01997" lon="6.97619">
        <ele>577.66</ele>
        <time>2020-07-04T08:00:33.363Z</time>
      </trkpt>
      <trkpt lat="47.02004" lon="6.97629">
        <ele>577.19</ele>
        <time>2020-07-04T08:00:34.379Z</time>
      </trkpt>
      <trkpt lat="47.02015" lon="6.97644">
        <ele>576.56</ele>
        <time>2020-07-04T08:00:36.031Z</time>
      </trkpt>
      <trkpt lat="47.02024" lon="6.97657">
        <ele>575.99</ele>
        <time>2020-07-04T08:00:37.380Z</time>
      </trkpt>
      <trkpt lat="47.02032" lon="6.97669">
        <ele>575.79</ele>
        <time>2020-07-04T08:00:39.011Z</time>
      </trkpt>
      <trkpt lat="47.02037" lon="6.97677">
        <ele>575.74</ele>
        <time>2020-07-04T08:00:40.435Z</time>
      </trkpt>
      <trkpt lat="47.02049" lon="6.97704">
        <ele>576.71</ele>
        <time>2020-07-04T08:00:48.272Z</time>
      </trkpt>
      <trkpt lat="47.02058" lon="6.97719">
        <ele>577.55</ele>
        <time>2020-07-04T08:00:53.752Z</time>
      </trkpt>
      <trkpt lat="47.02103" lon="6.9779">
        <ele>580.19</ele>
        <time>2020-07-04T08:01:15.894Z</time>
      </trkpt>
      <trkpt lat="47.02125" lon="6.97822">
        <ele>579.75</ele>
        <time>2020-07-04T08:01:20.491Z</time>
      </trkpt>
      <trkpt lat="47.0215" lon="6.9786">
        <ele>579.38</ele>
        <time>2020-07-04T08:01:26.111Z</time>
      </trkpt>
      <trkpt lat="47.0216" lon="6.97875">
        <ele>579.05</ele>
        <time>2020-07-04T08:01:28.020Z</time>
      </trkpt>
      <trkpt lat="47.02169" lon="6.97895">
        <ele>577.89</ele>
        <time>2020-07-04T08:01:29.614Z</time>
      </trkpt>
      <trkpt lat="47.0219" lon="6.97947">
        <ele>576.26</ele>
        <time>2020-07-04T08:01:34.249Z</time>
      </trkpt>
      <trkpt lat="47.02196" lon="6.97963">
        <ele>575.15</ele>
        <time>2020-07-04T08:01:35.463Z</time>
      </trkpt>
      <trkpt lat="47.02197" lon="6.97972">
        <ele>574.76</ele>
        <time>2020-07-04T08:01:36.036Z</time>
      </trkpt>
      <trkpt lat="47.02197" lon="6.97979">
        <ele>574.47</ele>
        <time>2020-07-04T08:01:36.483Z</time>
      </trkpt>
      <trkpt lat="47.02195" lon="6.97987">
        <ele>573.98</ele>
        <time>2020-07-04T08:01:37.049Z</time>
      </trkpt>
      <trkpt lat="47.0219" lon="6.97997">
        <ele>573.46</ele>
        <time>2020-07-04T08:01:37.836Z</time>
      </trkpt>
      <trkpt lat="47.02177" lon="6.9802">
        <ele>571.63</ele>
        <time>2020-07-04T08:01:39.823Z</time>
      </trkpt>
      <trkpt lat="47.02173" lon="6.98024">
        <ele>570.69</ele>
        <time>2020-07-04T08:01:40.295Z</time>
      </trkpt>
      <trkpt lat="47.02177" lon="6.98031">
        <ele>570.68</ele>
        <time>2020-07-04T08:01:41.586Z</time>
      </trkpt>
      <trkpt lat="47.02179" lon="6.98033">
        <ele>570.77</ele>
        <time>2020-07-04T08:01:42.366Z</time>
      </trkpt>
      <trkpt lat="47.02187" lon="6.98038">
        <ele>571.29</ele>
        <time>2020-07-04T08:01:45.818Z</time>
      </trkpt>
      <trkpt lat="47.02196" lon="6.98044">
        <ele>571.92</ele>
        <time>2020-07-04T08:01:49.853Z</time>
      </trkpt>
      <trkpt lat="47.02199" lon="6.98045">
        <ele>572.2</ele>
        <time>2020-07-04T08:01:51.416Z</time>
      </trkpt>
      <trkpt lat="47.02198" lon="6.98045">
        <ele>572.2</ele>
        <time>2020-07-04T08:01:51.629Z</time>
      </trkpt>
      <trkpt lat="47.02208" lon="6.98051">
        <ele>572.48</ele>
        <time>2020-07-04T08:01:54.639Z</time>
      </trkpt>
      <trkpt lat="47.02218" lon="6.98058">
        <ele>572.98</ele>
        <time>2020-07-04T08:01:58.627Z</time>
      </trkpt>
      <trkpt lat="47.02229" lon="6.98065">
        <ele>573.35</ele>
        <time>2020-07-04T08:02:02.178Z</time>
      </trkpt>
      <trkpt lat="47.02251" lon="6.98078">
        <ele>573.94</ele>
        <time>2020-07-04T08:02:08.704Z</time>
      </trkpt>
      <trkpt lat="47.02262" lon="6.98084">
        <ele>574.26</ele>
        <time>2020-07-04T08:02:12.028Z</time>
      </trkpt>
      <trkpt lat="47.02268" lon="6.98088">
        <ele>574.41</ele>
        <time>2020-07-04T08:02:13.796Z</time>
      </trkpt>
      <trkpt lat="47.02279" lon="6.98096">
        <ele>574.4</ele>
        <time>2020-07-04T08:02:16.373Z</time>
      </trkpt>
      <trkpt lat="47.02285" lon="6.98103">
        <ele>574.29</ele>
        <time>2020-07-04T08:02:17.508Z</time>
      </trkpt>
      <trkpt lat="47.02295" lon="6.98114">
        <ele>574.11</ele>
        <time>2020-07-04T08:02:19.358Z</time>
      </trkpt>
      <trkpt lat="47.023" lon="6.98121">
        <ele>574.03</ele>
        <time>2020-07-04T08:02:20.419Z</time>
      </trkpt>
      <trkpt lat="47.02315" lon="6.98143">
        <ele>573.94</ele>
        <time>2020-07-04T08:02:24.650Z</time>
      </trkpt>
      <trkpt lat="47.02325" lon="6.98159">
        <ele>573.98</ele>
        <time>2020-07-04T08:02:27.874Z</time>
      </trkpt>
      <trkpt lat="47.0234" lon="6.9818">
        <ele>573.98</ele>
        <time>2020-07-04T08:02:32.279Z</time>
      </trkpt>
      <trkpt lat="47.02355" lon="6.98199">
        <ele>573.82</ele>
        <time>2020-07-04T08:02:35.465Z</time>
      </trkpt>
      <trkpt lat="47.02377" lon="6.98222">
        <ele>573.98</ele>
        <time>2020-07-04T08:02:41.534Z</time>
      </trkpt>
      <trkpt lat="47.02391" lon="6.98238">
        <ele>574.19</ele>
        <time>2020-07-04T08:02:45.763Z</time>
      </trkpt>
      <trkpt lat="47.0239" lon="6.98238">
        <ele>574.19</ele>
        <time>2020-07-04T08:02:45.975Z</time>
      </trkpt>
      <trkpt lat="47.02402" lon="6.98251">
        <ele>574.4</ele>
        <time>2020-07-04T08:02:49.614Z</time>
      </trkpt>
      <trkpt lat="47.02419" lon="6.98269">
        <ele>574.06</ele>
        <time>2020-07-04T08:02:52.648Z</time>
      </trkpt>
      <trkpt lat="47.02442" lon="6.98292">
        <ele>573.55</ele>
        <time>2020-07-04T08:02:56.574Z</time>
      </trkpt>
      <trkpt lat="47.02455" lon="6.98305">
        <ele>573.17</ele>
        <time>2020-07-04T08:02:58.649Z</time>
      </trkpt>
      <trkpt lat="47.02465" lon="6.98318">
        <ele>573.03</ele>
        <time>2020-07-04T08:03:00.729Z</time>
      </trkpt>
      <trkpt lat="47.02474" lon="6.98332">
        <ele>572.75</ele>
        <time>2020-07-04T08:03:02.515Z</time>
      </trkpt>
      <trkpt lat="47.02504" lon="6.98379">
        <ele>572.1</ele>
        <time>2020-07-04T08:03:08.979Z</time>
      </trkpt>
      <trkpt lat="47.02514" lon="6.98393">
        <ele>571.75</ele>
        <time>2020-07-04T08:03:10.778Z</time>
      </trkpt>
      <trkpt lat="47.02525" lon="6.98406">
        <ele>571.59</ele>
        <time>2020-07-04T08:03:12.953Z</time>
      </trkpt>
      <trkpt lat="47.0254" lon="6.98423">
        <ele>571.94</ele>
        <time>2020-07-04T08:03:17.800Z</time>
      </trkpt>
      <trkpt lat="47.0256" lon="6.98444">
        <ele>571.61</ele>
        <time>2020-07-04T08:03:21.486Z</time>
      </trkpt>
      <trkpt lat="47.02573" lon="6.98458">
        <ele>571.39</ele>
        <time>2020-07-04T08:03:23.896Z</time>
      </trkpt>
      <trkpt lat="47.02573" lon="6.98457">
        <ele>571.39</ele>
        <time>2020-07-04T08:03:24.040Z</time>
      </trkpt>
      <trkpt lat="47.02594" lon="6.9848">
        <ele>571.18</ele>
        <time>2020-07-04T08:03:28.257Z</time>
      </trkpt>
      <trkpt lat="47.02624" lon="6.98513">
        <ele>570.45</ele>
        <time>2020-07-04T08:03:33.476Z</time>
      </trkpt>
      <trkpt lat="47.02656" lon="6.98549">
        <ele>569.04</ele>
        <time>2020-07-04T08:03:38.220Z</time>
      </trkpt>
      <trkpt lat="47.02674" lon="6.98566">
        <ele>567.4</ele>
        <time>2020-07-04T08:03:40.308Z</time>
      </trkpt>
      <trkpt lat="47.02677" lon="6.9857">
        <ele>567.24</ele>
        <time>2020-07-04T08:03:40.765Z</time>
      </trkpt>
      <trkpt lat="47.02704" lon="6.98599">
        <ele>566.02</ele>
        <time>2020-07-04T08:03:44.644Z</time>
      </trkpt>
      <trkpt lat="47.0272" lon="6.98618">
        <ele>565.68</ele>
        <time>2020-07-04T08:03:47.612Z</time>
      </trkpt>
      <trkpt lat="47.0272" lon="6.98617">
        <ele>565.68</ele>
        <time>2020-07-04T08:03:47.757Z</time>
      </trkpt>
      <trkpt lat="47.02723" lon="6.98621">
        <ele>565.33</ele>
        <time>2020-07-04T08:03:48.152Z</time>
      </trkpt>
      <trkpt lat="47.02737" lon="6.98641">
        <ele>564.67</ele>
        <time>2020-07-04T08:03:50.479Z</time>
      </trkpt>
      <trkpt lat="47.02759" lon="6.9867">
        <ele>563.94</ele>
        <time>2020-07-04T08:03:54.356Z</time>
      </trkpt>
      <trkpt lat="47.02803" lon="6.9873">
        <ele>563.59</ele>
        <time>2020-07-04T08:04:06.073Z</time>
      </trkpt>
      <trkpt lat="47.02829" lon="6.98765">
        <ele>562.59</ele>
        <time>2020-07-04T08:04:10.518Z</time>
      </trkpt>
      <trkpt lat="47.02864" lon="6.98802">
        <ele>565.63</ele>
        <time>2020-07-04T08:04:29.026Z</time>
      </trkpt>
      <trkpt lat="47.02875" lon="6.98811">
        <ele>566.72</ele>
        <time>2020-07-04T08:04:35.177Z</time>
      </trkpt>
      <trkpt lat="47.02883" lon="6.98816">
        <ele>567.5</ele>
        <time>2020-07-04T08:04:39.543Z</time>
      </trkpt>
      <trkpt lat="47.0289" lon="6.98818">
        <ele>568.26</ele>
        <time>2020-07-04T08:04:43.753Z</time>
      </trkpt>
      <trkpt lat="47.02898" lon="6.98819">
        <ele>569.1</ele>
        <time>2020-07-04T08:04:48.398Z</time>
      </trkpt>
      <trkpt lat="47.02913" lon="6.98819">
        <ele>570.42</ele>
        <time>2020-07-04T08:04:55.817Z</time>
      </trkpt>
      <trkpt lat="47.02921" lon="6.9882">
        <ele>571.23</ele>
        <time>2020-07-04T08:05:00.292Z</time>
      </trkpt>
      <trkpt lat="47.02935" lon="6.98823">
        <ele>572.54</ele>
        <time>2020-07-04T08:05:07.582Z</time>
      </trkpt>
      <trkpt lat="47.02953" lon="6.98828">
        <ele>573.97</ele>
        <time>2020-07-04T08:05:15.920Z</time>
      </trkpt>
      <trkpt lat="47.02961" lon="6.9883">
        <ele>574.68</ele>
        <time>2020-07-04T08:05:19.917Z</time>
      </trkpt>
      <trkpt lat="47.0296" lon="6.9883">
        <ele>574.68</ele>
        <time>2020-07-04T08:05:20.129Z</time>
      </trkpt>
      <trkpt lat="47.02973" lon="6.98833">
        <ele>575.39</ele>
        <time>2020-07-04T08:05:25.148Z</time>
      </trkpt>
      <trkpt lat="47.02984" lon="6.98835">
        <ele>576.11</ele>
        <time>2020-07-04T08:05:29.713Z</time>
      </trkpt>
      <trkpt lat="47.02993" lon="6.98836">
        <ele>576.69</ele>
        <time>2020-07-04T08:05:33.411Z</time>
      </trkpt>
      <trkpt lat="47.03002" lon="6.98839">
        <ele>577.41</ele>
        <time>2020-07-04T08:05:37.610Z</time>
      </trkpt>
      <trkpt lat="47.03024" lon="6.98848">
        <ele>578.67</ele>
        <time>2020-07-04T08:05:46.392Z</time>
      </trkpt>
      <trkpt lat="47.0304" lon="6.98857">
        <ele>579.53</ele>
        <time>2020-07-04T08:05:52.766Z</time>
      </trkpt>
      <trkpt lat="47.0304" lon="6.98856">
        <ele>579.53</ele>
        <time>2020-07-04T08:05:52.910Z</time>
      </trkpt>
      <trkpt lat="47.03056" lon="6.98865">
        <ele>580.39</ele>
        <time>2020-07-04T08:05:59.284Z</time>
      </trkpt>
      <trkpt lat="47.03068" lon="6.98872">
        <ele>581.29</ele>
        <time>2020-07-04T08:06:04.792Z</time>
      </trkpt>
      <trkpt lat="47.03074" lon="6.98875">
        <ele>581.45</ele>
        <time>2020-07-04T08:06:06.543Z</time>
      </trkpt>
      <trkpt lat="47.0308" lon="6.98875">
        <ele>582.35</ele>
        <time>2020-07-04T08:06:11.460Z</time>
      </trkpt>
      <trkpt lat="47.0308" lon="6.98877">
        <ele>582.24</ele>
        <time>2020-07-04T08:06:11.593Z</time>
      </trkpt>
      <trkpt lat="47.03084" lon="6.98881">
        <ele>582.49</ele>
        <time>2020-07-04T08:06:13.411Z</time>
      </trkpt>
      <trkpt lat="47.031" lon="6.9889">
        <ele>583.15</ele>
        <time>2020-07-04T08:06:19.036Z</time>
      </trkpt>
      <trkpt lat="47.03139" lon="6.98905">
        <ele>585.81</ele>
        <time>2020-07-04T08:06:35.764Z</time>
      </trkpt>
      <trkpt lat="47.03156" lon="6.98909">
        <ele>586.52</ele>
        <time>2020-07-04T08:06:41.642Z</time>
      </trkpt>
      <trkpt lat="47.03183" lon="6.98919">
        <ele>588.84</ele>
        <time>2020-07-04T08:06:54.875Z</time>
      </trkpt>
      <trkpt lat="47.03188" lon="6.9892">
        <ele>588.75</ele>
        <time>2020-07-04T08:06:55.591Z</time>
      </trkpt>
      <trkpt lat="47.03203" lon="6.98929">
        <ele>588.87</ele>
        <time>2020-07-04T08:06:59.285Z</time>
      </trkpt>
      <trkpt lat="47.03217" lon="6.98937">
        <ele>588.82</ele>
        <time>2020-07-04T08:07:02.322Z</time>
      </trkpt>
      <trkpt lat="47.0323" lon="6.98944">
        <ele>588.72</ele>
        <time>2020-07-04T08:07:04.971Z</time>
      </trkpt>
      <trkpt lat="47.03242" lon="6.98951">
        <ele>588.88</ele>
        <time>2020-07-04T08:07:08.065Z</time>
      </trkpt>
      <trkpt lat="47.03252" lon="6.98959">
        <ele>588.72</ele>
        <time>2020-07-04T08:07:09.759Z</time>
      </trkpt>
      <trkpt lat="47.03276" lon="6.98978">
        <ele>589.73</ele>
        <time>2020-07-04T08:07:18.527Z</time>
      </trkpt>
      <trkpt lat="47.03301" lon="6.98996">
        <ele>590.69</ele>
        <time>2020-07-04T08:07:27.174Z</time>
      </trkpt>
      <trkpt lat="47.03356" lon="6.9904">
        <ele>591.54</ele>
        <time>2020-07-04T08:07:42.371Z</time>
      </trkpt>
      <trkpt lat="47.03355" lon="6.9904">
        <ele>591.54</ele>
        <time>2020-07-04T08:07:42.584Z</time>
      </trkpt>
      <trkpt lat="47.03369" lon="6.99051">
        <ele>592.39</ele>
        <time>2020-07-04T08:07:48.623Z</time>
      </trkpt>
      <trkpt lat="47.03394" lon="6.99073">
        <ele>592.35</ele>
        <time>2020-07-04T08:07:54.689Z</time>
      </trkpt>
      <trkpt lat="47.03427" lon="6.991">
        <ele>593.28</ele>
        <time>2020-07-04T08:08:05.052Z</time>
      </trkpt>
      <trkpt lat="47.03443" lon="6.99115">
        <ele>593.12</ele>
        <time>2020-07-04T08:08:08.091Z</time>
      </trkpt>
      <trkpt lat="47.03478" lon="6.9915">
        <ele>593.13</ele>
        <time>2020-07-04T08:08:17.109Z</time>
      </trkpt>
      <trkpt lat="47.03491" lon="6.99163">
        <ele>592.83</ele>
        <time>2020-07-04T08:08:19.308Z</time>
      </trkpt>
      <trkpt lat="47.03506" lon="6.99168">
        <ele>593.12</ele>
        <time>2020-07-04T08:08:23.258Z</time>
      </trkpt>
      <trkpt lat="47.03514" lon="6.9917">
        <ele>593.03</ele>
        <time>2020-07-04T08:08:24.512Z</time>
      </trkpt>
      <trkpt lat="47.03531" lon="6.99169">
        <ele>593.31</ele>
        <time>2020-07-04T08:08:28.768Z</time>
      </trkpt>
      <trkpt lat="47.03563" lon="6.99144">
        <ele>593.99</ele>
        <time>2020-07-04T08:08:38.068Z</time>
      </trkpt>
      <trkpt lat="47.03563" lon="6.99144">
        <ele>593.99</ele>
        <time>2020-07-04T08:08:38.068Z</time>
      </trkpt>
      <trkpt lat="47.03582" lon="6.99129">
        <ele>594.68</ele>
        <time>2020-07-04T08:08:44.550Z</time>
      </trkpt>
      <trkpt lat="47.03607" lon="6.99108">
        <ele>596.41</ele>
        <time>2020-07-04T08:08:56.006Z</time>
      </trkpt>
      <trkpt lat="47.03615" lon="6.99105">
        <ele>596.83</ele>
        <time>2020-07-04T08:08:59.091Z</time>
      </trkpt>
      <trkpt lat="47.03624" lon="6.99105">
        <ele>596.9</ele>
        <time>2020-07-04T08:09:01.150Z</time>
      </trkpt>
      <trkpt lat="47.03629" lon="6.99106">
        <ele>596.92</ele>
        <time>2020-07-04T08:09:02.263Z</time>
      </trkpt>
      <trkpt lat="47.03636" lon="6.9911">
        <ele>597.09</ele>
        <time>2020-07-04T08:09:04.276Z</time>
      </trkpt>
      <trkpt lat="47.03642" lon="6.99116">
        <ele>597.1</ele>
        <time>2020-07-04T08:09:05.838Z</time>
      </trkpt>
      <trkpt lat="47.03659" lon="6.99133">
        <ele>597.43</ele>
        <time>2020-07-04T08:09:10.962Z</time>
      </trkpt>
      <trkpt lat="47.03667" lon="6.99138">
        <ele>597.88</ele>
        <time>2020-07-04T08:09:14.229Z</time>
      </trkpt>
      <trkpt lat="47.03676" lon="6.99139">
        <ele>597.93</ele>
        <time>2020-07-04T08:09:16.249Z</time>
      </trkpt>
      <trkpt lat="47.03683" lon="6.99139">
        <ele>598.13</ele>
        <time>2020-07-04T08:09:18.264Z</time>
      </trkpt>
      <trkpt lat="47.03689" lon="6.99137">
        <ele>598.36</ele>
        <time>2020-07-04T08:09:20.251Z</time>
      </trkpt>
      <trkpt lat="47.03698" lon="6.99132">
        <ele>599.03</ele>
        <time>2020-07-04T08:09:24.354Z</time>
      </trkpt>
      <trkpt lat="47.03702" lon="6.99131">
        <ele>599.19</ele>
        <time>2020-07-04T08:09:25.703Z</time>
      </trkpt>
      <trkpt lat="47.03713" lon="6.9913">
        <ele>599.64</ele>
        <time>2020-07-04T08:09:29.443Z</time>
      </trkpt>
      <trkpt lat="47.0372" lon="6.99132">
        <ele>600.98</ele>
        <time>2020-07-04T08:09:35.287Z</time>
      </trkpt>
      <trkpt lat="47.03725" lon="6.99135">
        <ele>601.23</ele>
        <time>2020-07-04T08:09:37.246Z</time>
      </trkpt>
      <trkpt lat="47.03734" lon="6.99141">
        <ele>602.72</ele>
        <time>2020-07-04T08:09:45.347Z</time>
      </trkpt>
      <trkpt lat="47.03733" lon="6.99141">
        <ele>602.72</ele>
        <time>2020-07-04T08:09:45.559Z</time>
      </trkpt>
      <trkpt lat="47.03746" lon="6.99151">
        <ele>604.21</ele>
        <time>2020-07-04T08:09:53.790Z</time>
      </trkpt>
      <trkpt lat="47.03764" lon="6.99169">
        <ele>606.9</ele>
        <time>2020-07-04T08:10:09.397Z</time>
      </trkpt>
      <trkpt lat="47.03787" lon="6.99205">
        <ele>604.85</ele>
        <time>2020-07-04T08:10:12.539Z</time>
      </trkpt>
      <trkpt lat="47.03797" lon="6.99224">
        <ele>604.9</ele>
        <time>2020-07-04T08:10:16.115Z</time>
      </trkpt>
      <trkpt lat="47.03805" lon="6.99239">
        <ele>605.06</ele>
        <time>2020-07-04T08:10:19.224Z</time>
      </trkpt>
      <trkpt lat="47.03812" lon="6.99258">
        <ele>605.33</ele>
        <time>2020-07-04T08:10:22.982Z</time>
      </trkpt>
      <trkpt lat="47.03816" lon="6.99268">
        <ele>605.56</ele>
        <time>2020-07-04T08:10:25.271Z</time>
      </trkpt>
      <trkpt lat="47.03819" lon="6.99274">
        <ele>605.85</ele>
        <time>2020-07-04T08:10:27.248Z</time>
      </trkpt>
      <trkpt lat="47.03824" lon="6.99282">
        <ele>606.1</ele>
        <time>2020-07-04T08:10:29.525Z</time>
      </trkpt>
      <trkpt lat="47.03826" lon="6.99288">
        <ele>606.36</ele>
        <time>2020-07-04T08:10:31.298Z</time>
      </trkpt>
      <trkpt lat="47.03828" lon="6.99293">
        <ele>606.74</ele>
        <time>2020-07-04T08:10:33.403Z</time>
      </trkpt>
      <trkpt lat="47.03834" lon="6.99305">
        <ele>607.46</ele>
        <time>2020-07-04T08:10:37.771Z</time>
      </trkpt>
      <trkpt lat="47.03841" lon="6.99322">
        <ele>608.58</ele>
        <time>2020-07-04T08:10:44.173Z</time>
      </trkpt>
      <trkpt lat="47.03846" lon="6.99338">
        <ele>608.92</ele>
        <time>2020-07-04T08:10:47.615Z</time>
      </trkpt>
      <trkpt lat="47.03846" lon="6.99337">
        <ele>608.92</ele>
        <time>2020-07-04T08:10:47.760Z</time>
      </trkpt>
      <trkpt lat="47.03846" lon="6.99339">
        <ele>609.27</ele>
        <time>2020-07-04T08:10:48.877Z</time>
      </trkpt>
      <trkpt lat="47.0386" lon="6.99375">
        <ele>612.02</ele>
        <time>2020-07-04T08:11:04.091Z</time>
      </trkpt>
      <trkpt lat="47.03873" lon="6.99411">
        <ele>613.99</ele>
        <time>2020-07-04T08:11:16.046Z</time>
      </trkpt>
      <trkpt lat="47.03877" lon="6.99418">
        <ele>613.75</ele>
        <time>2020-07-04T08:11:16.753Z</time>
      </trkpt>
      <trkpt lat="47.03877" lon="6.99424">
        <ele>613.78</ele>
        <time>2020-07-04T08:11:17.685Z</time>
      </trkpt>
      <trkpt lat="47.03879" lon="6.99437">
        <ele>614.03</ele>
        <time>2020-07-04T08:11:20.265Z</time>
      </trkpt>
      <trkpt lat="47.03883" lon="6.99451">
        <ele>613.98</ele>
        <time>2020-07-04T08:11:22.311Z</time>
      </trkpt>
      <trkpt lat="47.03885" lon="6.99461">
        <ele>613.67</ele>
        <time>2020-07-04T08:11:23.080Z</time>
      </trkpt>
      <trkpt lat="47.03887" lon="6.99468">
        <ele>613.57</ele>
        <time>2020-07-04T08:11:23.801Z</time>
      </trkpt>
      <trkpt lat="47.03887" lon="6.99475">
        <ele>613.33</ele>
        <time>2020-07-04T08:11:24.288Z</time>
      </trkpt>
      <trkpt lat="47.03891" lon="6.99476">
        <ele>613.73</ele>
        <time>2020-07-04T08:11:26.499Z</time>
      </trkpt>
      <trkpt lat="47.03897" lon="6.99479">
        <ele>614.15</ele>
        <time>2020-07-04T08:11:29.135Z</time>
      </trkpt>
      <trkpt lat="47.03902" lon="6.99481">
        <ele>614.49</ele>
        <time>2020-07-04T08:11:31.279Z</time>
      </trkpt>
      <trkpt lat="47.03912" lon="6.99488">
        <ele>615.13</ele>
        <time>2020-07-04T08:11:35.616Z</time>
      </trkpt>
      <trkpt lat="47.03919" lon="6.99494">
        <ele>615.66</ele>
        <time>2020-07-04T08:11:38.964Z</time>
      </trkpt>
      <trkpt lat="47.03941" lon="6.99512">
        <ele>616.84</ele>
        <time>2020-07-04T08:11:48.132Z</time>
      </trkpt>
      <trkpt lat="47.03941" lon="6.99511">
        <ele>616.84</ele>
        <time>2020-07-04T08:11:48.277Z</time>
      </trkpt>
      <trkpt lat="47.03957" lon="6.99524">
        <ele>618.03</ele>
        <time>2020-07-04T08:11:55.815Z</time>
      </trkpt>
      <trkpt lat="47.03963" lon="6.9953">
        <ele>618.58</ele>
        <time>2020-07-04T08:11:59.060Z</time>
      </trkpt>
      <trkpt lat="47.03978" lon="6.99541">
        <ele>619.93</ele>
        <time>2020-07-04T08:12:06.845Z</time>
      </trkpt>
      <trkpt lat="47.03996" lon="6.99556">
        <ele>621.78</ele>
        <time>2020-07-04T08:12:17.208Z</time>
      </trkpt>
      <trkpt lat="47.04004" lon="6.99563">
        <ele>622.6</ele>
        <time>2020-07-04T08:12:21.817Z</time>
      </trkpt>
      <trkpt lat="47.04027" lon="6.99587">
        <ele>625.66</ele>
        <time>2020-07-04T08:12:38.804Z</time>
      </trkpt>
      <trkpt lat="47.04047" lon="6.99611">
        <ele>629.03</ele>
        <time>2020-07-04T08:12:59.096Z</time>
      </trkpt>
      <trkpt lat="47.04068" lon="6.99634">
        <ele>632.4</ele>
        <time>2020-07-04T08:13:19.168Z</time>
      </trkpt>
      <trkpt lat="47.04077" lon="6.99644">
        <ele>633.52</ele>
        <time>2020-07-04T08:13:25.358Z</time>
      </trkpt>
      <trkpt lat="47.04076" lon="6.99644">
        <ele>633.52</ele>
        <time>2020-07-04T08:13:25.570Z</time>
      </trkpt>
      <trkpt lat="47.04081" lon="6.99648">
        <ele>634.64</ele>
        <time>2020-07-04T08:13:30.237Z</time>
      </trkpt>
      <trkpt lat="47.04087" lon="6.99654">
        <ele>635.52</ele>
        <time>2020-07-04T08:13:35.293Z</time>
      </trkpt>
      <trkpt lat="47.04092" lon="6.99657">
        <ele>636.32</ele>
        <time>2020-07-04T08:13:39.719Z</time>
      </trkpt>
      <trkpt lat="47.04101" lon="6.9966">
        <ele>637.48</ele>
        <time>2020-07-04T08:13:46.520Z</time>
      </trkpt>
      <trkpt lat="47.04111" lon="6.99663">
        <ele>638.96</ele>
        <time>2020-07-04T08:13:54.884Z</time>
      </trkpt>
      <trkpt lat="47.04119" lon="6.99663">
        <ele>640.14</ele>
        <time>2020-07-04T08:14:01.440Z</time>
      </trkpt>
      <trkpt lat="47.04133" lon="6.99662">
        <ele>641.57</ele>
        <time>2020-07-04T08:14:09.340Z</time>
      </trkpt>
      <trkpt lat="47.04137" lon="6.99662">
        <ele>641.91</ele>
        <time>2020-07-04T08:14:11.268Z</time>
      </trkpt>
      <trkpt lat="47.04136" lon="6.99662">
        <ele>641.91</ele>
        <time>2020-07-04T08:14:11.480Z</time>
      </trkpt>
      <trkpt lat="47.04139" lon="6.99662">
        <ele>642.25</ele>
        <time>2020-07-04T08:14:13.385Z</time>
      </trkpt>
      <trkpt lat="47.04145" lon="6.99663">
        <ele>642.97</ele>
        <time>2020-07-04T08:14:17.491Z</time>
      </trkpt>
      <trkpt lat="47.04154" lon="6.99666">
        <ele>643.85</ele>
        <time>2020-07-04T08:14:22.369Z</time>
      </trkpt>
      <trkpt lat="47.04168" lon="6.99672">
        <ele>645.05</ele>
        <time>2020-07-04T08:14:29.240Z</time>
      </trkpt>
      <trkpt lat="47.04176" lon="6.99675">
        <ele>646.06</ele>
        <time>2020-07-04T08:14:35.069Z</time>
      </trkpt>
      <trkpt lat="47.04175" lon="6.99675">
        <ele>646.06</ele>
        <time>2020-07-04T08:14:35.282Z</time>
      </trkpt>
      <trkpt lat="47.04191" lon="6.99682">
        <ele>647.07</ele>
        <time>2020-07-04T08:14:41.942Z</time>
      </trkpt>
      <trkpt lat="47.04205" lon="6.99688">
        <ele>647.97</ele>
        <time>2020-07-04T08:14:47.810Z</time>
      </trkpt>
      <trkpt lat="47.04216" lon="6.99693">
        <ele>648.29</ele>
        <time>2020-07-04T08:14:51.092Z</time>
      </trkpt>
      <trkpt lat="47.04215" lon="6.99693">
        <ele>648.29</ele>
        <time>2020-07-04T08:14:51.304Z</time>
      </trkpt>
      <trkpt lat="47.0422" lon="6.99695">
        <ele>648.61</ele>
        <time>2020-07-04T08:14:53.390Z</time>
      </trkpt>
      <trkpt lat="47.04228" lon="6.99701">
        <ele>648.8</ele>
        <time>2020-07-04T08:14:55.757Z</time>
      </trkpt>
      <trkpt lat="47.04244" lon="6.99712">
        <ele>649.21</ele>
        <time>2020-07-04T08:15:00.524Z</time>
      </trkpt>
      <trkpt lat="47.04266" lon="6.99728">
        <ele>649.54</ele>
        <time>2020-07-04T08:15:06.473Z</time>
      </trkpt>
      <trkpt lat="47.04279" lon="6.99737">
        <ele>649.92</ele>
        <time>2020-07-04T08:15:10.503Z</time>
      </trkpt>
      <trkpt lat="47.04288" lon="6.99742">
        <ele>650.02</ele>
        <time>2020-07-04T08:15:12.762Z</time>
      </trkpt>
      <trkpt lat="47.04298" lon="6.99746">
        <ele>650.37</ele>
        <time>2020-07-04T08:15:15.950Z</time>
      </trkpt>
      <trkpt lat="47.04317" lon="6.99754">
        <ele>650.92</ele>
        <time>2020-07-04T08:15:21.586Z</time>
      </trkpt>
      <trkpt lat="47.04347" lon="6.99767">
        <ele>652.06</ele>
        <time>2020-07-04T08:15:31.562Z</time>
      </trkpt>
      <trkpt lat="47.04352" lon="6.99769">
        <ele>652.39</ele>
        <time>2020-07-04T08:15:33.677Z</time>
      </trkpt>
      <trkpt lat="47.04352" lon="6.99768">
        <ele>652.39</ele>
        <time>2020-07-04T08:15:33.821Z</time>
      </trkpt>
      <trkpt lat="47.04359" lon="6.99772">
        <ele>652.71</ele>
        <time>2020-07-04T08:15:36.438Z</time>
      </trkpt>
      <trkpt lat="47.04368" lon="6.99777">
        <ele>653.12</ele>
        <time>2020-07-04T08:15:39.791Z</time>
      </trkpt>
      <trkpt lat="47.04374" lon="6.99781">
        <ele>653.61</ele>
        <time>2020-07-04T08:15:42.704Z</time>
      </trkpt>
      <trkpt lat="47.04383" lon="6.99789">
        <ele>654.68</ele>
        <time>2020-07-04T08:15:48.615Z</time>
      </trkpt>
      <trkpt lat="47.0439" lon="6.99797">
        <ele>656.36</ele>
        <time>2020-07-04T08:15:55.885Z</time>
      </trkpt>
      <trkpt lat="47.04397" lon="6.99806">
        <ele>656.6</ele>
        <time>2020-07-04T08:15:58.474Z</time>
      </trkpt>
      <trkpt lat="47.04406" lon="6.99822">
        <ele>657.72</ele>
        <time>2020-07-04T08:16:04.969Z</time>
      </trkpt>
      <trkpt lat="47.04412" lon="6.9983">
        <ele>658.27</ele>
        <time>2020-07-04T08:16:08.380Z</time>
      </trkpt>
      <trkpt lat="47.04418" lon="6.99837">
        <ele>658.92</ele>
        <time>2020-07-04T08:16:12.068Z</time>
      </trkpt>
      <trkpt lat="47.04421" lon="6.9984">
        <ele>659.21</ele>
        <time>2020-07-04T08:16:13.745Z</time>
      </trkpt>
      <trkpt lat="47.0442" lon="6.9984">
        <ele>659.21</ele>
        <time>2020-07-04T08:16:13.958Z</time>
      </trkpt>
      <trkpt lat="47.04424" lon="6.99843">
        <ele>659.5</ele>
        <time>2020-07-04T08:16:15.802Z</time>
      </trkpt>
      <trkpt lat="47.0443" lon="6.99849">
        <ele>659.89</ele>
        <time>2020-07-04T08:16:18.567Z</time>
      </trkpt>
      <trkpt lat="47.04442" lon="6.99858">
        <ele>661.25</ele>
        <time>2020-07-04T08:16:26.079Z</time>
      </trkpt>
      <trkpt lat="47.04453" lon="6.99865">
        <ele>661.83</ele>
        <time>2020-07-04T08:16:30.486Z</time>
      </trkpt>
      <trkpt lat="47.04472" lon="6.9988">
        <ele>664.15</ele>
        <time>2020-07-04T08:16:43.350Z</time>
      </trkpt>
      <trkpt lat="47.04485" lon="6.99891">
        <ele>665.6</ele>
        <time>2020-07-04T08:16:51.377Z</time>
      </trkpt>
      <trkpt lat="47.04503" lon="6.99905">
        <ele>667.64</ele>
        <time>2020-07-04T08:17:02.647Z</time>
      </trkpt>
      <trkpt lat="47.04522" lon="6.99922">
        <ele>669.74</ele>
        <time>2020-07-04T08:17:14.302Z</time>
      </trkpt>
      <trkpt lat="47.04521" lon="6.99922">
        <ele>669.74</ele>
        <time>2020-07-04T08:17:14.514Z</time>
      </trkpt>
      <trkpt lat="47.0454" lon="6.99938">
        <ele>671.83</ele>
        <time>2020-07-04T08:17:26.098Z</time>
      </trkpt>
      <trkpt lat="47.04547" lon="6.99938">
        <ele>672.75</ele>
        <time>2020-07-04T08:17:31.673Z</time>
      </trkpt>
      <trkpt lat="47.04557" lon="6.99939">
        <ele>674.11</ele>
        <time>2020-07-04T08:17:39.886Z</time>
      </trkpt>
      <trkpt lat="47.04573" lon="6.99939">
        <ele>675.93</ele>
        <time>2020-07-04T08:17:50.094Z</time>
      </trkpt>
      <trkpt lat="47.04572" lon="6.99939">
        <ele>675.93</ele>
        <time>2020-07-04T08:17:50.306Z</time>
      </trkpt>
      <trkpt lat="47.04577" lon="6.99939">
        <ele>677.74</ele>
        <time>2020-07-04T08:17:54.403Z</time>
      </trkpt>
      <trkpt lat="47.04594" lon="6.9994">
        <ele>680.14</ele>
        <time>2020-07-04T08:18:08.345Z</time>
      </trkpt>
      <trkpt lat="47.04604" lon="6.99942">
        <ele>681.82</ele>
        <time>2020-07-04T08:18:16.615Z</time>
      </trkpt>
      <trkpt lat="47.0461" lon="6.99943">
        <ele>682.89</ele>
        <time>2020-07-04T08:18:21.564Z</time>
      </trkpt>
      <trkpt lat="47.04621" lon="6.99947">
        <ele>684.75</ele>
        <time>2020-07-04T08:18:30.850Z</time>
      </trkpt>
      <trkpt lat="47.04634" lon="6.99953">
        <ele>686.77</ele>
        <time>2020-07-04T08:18:42.018Z</time>
      </trkpt>
      <trkpt lat="47.04645" lon="6.99959">
        <ele>688.42</ele>
        <time>2020-07-04T08:18:51.634Z</time>
      </trkpt>
      <trkpt lat="47.04653" lon="6.99964">
        <ele>689.75</ele>
        <time>2020-07-04T08:18:58.759Z</time>
      </trkpt>
      <trkpt lat="47.04663" lon="6.99973">
        <ele>691.02</ele>
        <time>2020-07-04T08:19:05.808Z</time>
      </trkpt>
      <trkpt lat="47.04676" lon="6.99988">
        <ele>693.64</ele>
        <time>2020-07-04T08:19:19.359Z</time>
      </trkpt>
      <trkpt lat="47.04678" lon="6.99989">
        <ele>694.67</ele>
        <time>2020-07-04T08:19:21.090Z</time>
      </trkpt>
      <trkpt lat="47.04677" lon="6.99989">
        <ele>694.67</ele>
        <time>2020-07-04T08:19:21.303Z</time>
      </trkpt>
      <trkpt lat="47.04687" lon="7">
        <ele>695.7</ele>
        <time>2020-07-04T08:19:27.197Z</time>
      </trkpt>
      <trkpt lat="47.04695" lon="7.00007">
        <ele>697.16</ele>
        <time>2020-07-04T08:19:34.830Z</time>
      </trkpt>
      <trkpt lat="47.04704" lon="7.00012">
        <ele>699.38</ele>
        <time>2020-07-04T08:19:42.716Z</time>
      </trkpt>
      <trkpt lat="47.04713" lon="7.00018">
        <ele>699.98</ele>
        <time>2020-07-04T08:19:46.664Z</time>
      </trkpt>
      <trkpt lat="47.04721" lon="7.00023">
        <ele>701.67</ele>
        <time>2020-07-04T08:19:53.790Z</time>
      </trkpt>
      <trkpt lat="47.04726" lon="7.00027">
        <ele>702.38</ele>
        <time>2020-07-04T08:19:57.932Z</time>
      </trkpt>
      <trkpt lat="47.04763" lon="7.00074">
        <ele>708.77</ele>
        <time>2020-07-04T08:20:36.444Z</time>
      </trkpt>
      <trkpt lat="47.04776" lon="7.00092">
        <ele>710.86</ele>
        <time>2020-07-04T08:20:48.270Z</time>
      </trkpt>
      <trkpt lat="47.04784" lon="7.001">
        <ele>711.77</ele>
        <time>2020-07-04T08:20:53.323Z</time>
      </trkpt>
      <trkpt lat="47.04791" lon="7.00113">
        <ele>712.57</ele>
        <time>2020-07-04T08:20:58.181Z</time>
      </trkpt>
      <trkpt lat="47.04805" lon="7.00135">
        <ele>714.41</ele>
        <time>2020-07-04T08:21:08.480Z</time>
      </trkpt>
      <trkpt lat="47.04819" lon="7.00156">
        <ele>716.13</ele>
        <time>2020-07-04T08:21:18.206Z</time>
      </trkpt>
      <trkpt lat="47.0483" lon="7.00172">
        <ele>717.58</ele>
        <time>2020-07-04T08:21:26.262Z</time>
      </trkpt>
      <trkpt lat="47.04842" lon="7.00194">
        <ele>719.45</ele>
        <time>2020-07-04T08:21:36.607Z</time>
      </trkpt>
      <trkpt lat="47.04851" lon="7.00211">
        <ele>720.9</ele>
        <time>2020-07-04T08:21:44.621Z</time>
      </trkpt>
      <trkpt lat="47.04859" lon="7.00225">
        <ele>722.37</ele>
        <time>2020-07-04T08:21:52.970Z</time>
      </trkpt>
      <trkpt lat="47.0487" lon="7.00241">
        <ele>724.4</ele>
        <time>2020-07-04T08:22:05.242Z</time>
      </trkpt>
      <trkpt lat="47.0488" lon="7.0026">
        <ele>726.26</ele>
        <time>2020-07-04T08:22:15.673Z</time>
      </trkpt>
      <trkpt lat="47.04897" lon="7.00287">
        <ele>728.72</ele>
        <time>2020-07-04T08:22:29.274Z</time>
      </trkpt>
      <trkpt lat="47.04902" lon="7.00295">
        <ele>730.16</ele>
        <time>2020-07-04T08:22:35.335Z</time>
      </trkpt>
      <trkpt lat="47.04901" lon="7.00295">
        <ele>730.16</ele>
        <time>2020-07-04T08:22:35.548Z</time>
      </trkpt>
      <trkpt lat="47.04913" lon="7.00314">
        <ele>731.59</ele>
        <time>2020-07-04T08:22:43.777Z</time>
      </trkpt>
      <trkpt lat="47.04923" lon="7.0033">
        <ele>733.61</ele>
        <time>2020-07-04T08:22:55.900Z</time>
      </trkpt>
      <trkpt lat="47.04935" lon="7.00341">
        <ele>735.25</ele>
        <time>2020-07-04T08:23:05.151Z</time>
      </trkpt>
      <trkpt lat="47.04945" lon="7.00349">
        <ele>736.81</ele>
        <time>2020-07-04T08:23:14.484Z</time>
      </trkpt>
      <trkpt lat="47.04959" lon="7.00357">
        <ele>738.95</ele>
        <time>2020-07-04T08:23:26.795Z</time>
      </trkpt>
      <trkpt lat="47.04974" lon="7.00365">
        <ele>741.63</ele>
        <time>2020-07-04T08:23:39.874Z</time>
      </trkpt>
      <trkpt lat="47.04995" lon="7.00373">
        <ele>746.18</ele>
        <time>2020-07-04T08:23:57.652Z</time>
      </trkpt>
      <trkpt lat="47.05018" lon="7.00384">
        <ele>750.48</ele>
        <time>2020-07-04T08:24:17.475Z</time>
      </trkpt>
      <trkpt lat="47.05024" lon="7.00388">
        <ele>751.26</ele>
        <time>2020-07-04T08:24:21.909Z</time>
      </trkpt>
      <trkpt lat="47.05031" lon="7.00396">
        <ele>752.41</ele>
        <time>2020-07-04T08:24:28.800Z</time>
      </trkpt>
      <trkpt lat="47.05042" lon="7.00409">
        <ele>754.07</ele>
        <time>2020-07-04T08:24:38.211Z</time>
      </trkpt>
      <trkpt lat="47.05071" lon="7.00447">
        <ele>758.25</ele>
        <time>2020-07-04T08:25:01.388Z</time>
      </trkpt>
      <trkpt lat="47.05093" lon="7.00471">
        <ele>760.09</ele>
        <time>2020-07-04T08:25:12.857Z</time>
      </trkpt>
      <trkpt lat="47.05107" lon="7.00486">
        <ele>760.89</ele>
        <time>2020-07-04T08:25:19.138Z</time>
      </trkpt>
      <trkpt lat="47.0512" lon="7.005">
        <ele>761.21</ele>
        <time>2020-07-04T08:25:23.325Z</time>
      </trkpt>
      <trkpt lat="47.05137" lon="7.00516">
        <ele>761.41</ele>
        <time>2020-07-04T08:25:28.043Z</time>
      </trkpt>
      <trkpt lat="47.05149" lon="7.0053">
        <ele>761.58</ele>
        <time>2020-07-04T08:25:31.668Z</time>
      </trkpt>
      <trkpt lat="47.05161" lon="7.00547">
        <ele>761.68</ele>
        <time>2020-07-04T08:25:35.418Z</time>
      </trkpt>
      <trkpt lat="47.0517" lon="7.00557">
        <ele>761.73</ele>
        <time>2020-07-04T08:25:37.917Z</time>
      </trkpt>
      <trkpt lat="47.0518" lon="7.00572">
        <ele>761.76</ele>
        <time>2020-07-04T08:25:41.014Z</time>
      </trkpt>
      <trkpt lat="47.05198" lon="7.00605">
        <ele>762.63</ele>
        <time>2020-07-04T08:25:49.474Z</time>
      </trkpt>
      <trkpt lat="47.05206" lon="7.00618">
        <ele>762.7</ele>
        <time>2020-07-04T08:25:52.154Z</time>
      </trkpt>
      <trkpt lat="47.0522" lon="7.00636">
        <ele>762.76</ele>
        <time>2020-07-04T08:25:56.228Z</time>
      </trkpt>
      <trkpt lat="47.0522" lon="7.00636">
        <ele>762.96</ele>
        <time>2020-07-04T08:25:56.228Z</time>
      </trkpt>
      <trkpt lat="47.0522" lon="7.00635">
        <ele>762.73</ele>
        <time>2020-07-04T08:25:56.294Z</time>
      </trkpt>
      <trkpt lat="47.0522" lon="7.00636">
        <ele>762.76</ele>
        <time>2020-07-04T08:25:56.537Z</time>
      </trkpt>
      <trkpt lat="47.05228" lon="7.00649">
        <ele>763.17</ele>
        <time>2020-07-04T08:26:00.237Z</time>
      </trkpt>
      <trkpt lat="47.05235" lon="7.00663">
        <ele>764.31</ele>
        <time>2020-07-04T08:26:06.549Z</time>
      </trkpt>
      <trkpt lat="47.05241" lon="7.00674">
        <ele>765.34</ele>
        <time>2020-07-04T08:26:12.259Z</time>
      </trkpt>
      <trkpt lat="47.05248" lon="7.00686">
        <ele>766.29</ele>
        <time>2020-07-04T08:26:17.595Z</time>
      </trkpt>
      <trkpt lat="47.05267" lon="7.00706">
        <ele>768.01</ele>
        <time>2020-07-04T08:26:27.866Z</time>
      </trkpt>
      <trkpt lat="47.05285" lon="7.00726">
        <ele>768.71</ele>
        <time>2020-07-04T08:26:34.565Z</time>
      </trkpt>
      <trkpt lat="47.05289" lon="7.00732">
        <ele>768.84</ele>
        <time>2020-07-04T08:26:36.100Z</time>
      </trkpt>
      <trkpt lat="47.05289" lon="7.00731">
        <ele>768.84</ele>
        <time>2020-07-04T08:26:36.244Z</time>
      </trkpt>
      <trkpt lat="47.05297" lon="7.00741">
        <ele>768.98</ele>
        <time>2020-07-04T08:26:38.787Z</time>
      </trkpt>
      <trkpt lat="47.05303" lon="7.00751">
        <ele>769.25</ele>
        <time>2020-07-04T08:26:41.438Z</time>
      </trkpt>
      <trkpt lat="47.0531" lon="7.00763">
        <ele>769.36</ele>
        <time>2020-07-04T08:26:43.961Z</time>
      </trkpt>
      <trkpt lat="47.05317" lon="7.00777">
        <ele>769.88</ele>
        <time>2020-07-04T08:26:48.168Z</time>
      </trkpt>
      <trkpt lat="47.05322" lon="7.00787">
        <ele>770.27</ele>
        <time>2020-07-04T08:26:51.230Z</time>
      </trkpt>
      <trkpt lat="47.05324" lon="7.0078">
        <ele>770.34</ele>
        <time>2020-07-04T08:26:52.484Z</time>
      </trkpt>
      <trkpt lat="47.05326" lon="7.00768">
        <ele>770.98</ele>
        <time>2020-07-04T08:26:56.254Z</time>
      </trkpt>
      <trkpt lat="47.05325" lon="7.00756">
        <ele>771.57</ele>
        <time>2020-07-04T08:26:59.819Z</time>
      </trkpt>
      <trkpt lat="47.05325" lon="7.00753">
        <ele>772.09</ele>
        <time>2020-07-04T08:27:01.494Z</time>
      </trkpt>
      <trkpt lat="47.05325" lon="7.00752">
        <ele>772.09</ele>
        <time>2020-07-04T08:27:01.639Z</time>
      </trkpt>
      <trkpt lat="47.05323" lon="7.00739">
        <ele>772.62</ele>
        <time>2020-07-04T08:27:05.208Z</time>
      </trkpt>
      <trkpt lat="47.05318" lon="7.00721">
        <ele>773.83</ele>
        <time>2020-07-04T08:27:11.957Z</time>
      </trkpt>
      <trkpt lat="47.05314" lon="7.00701">
        <ele>775.41</ele>
        <time>2020-07-04T08:27:20.769Z</time>
      </trkpt>
      <trkpt lat="47.05311" lon="7.00682">
        <ele>776.58</ele>
        <time>2020-07-04T08:27:27.345Z</time>
      </trkpt>
      <trkpt lat="47.05309" lon="7.00663">
        <ele>777.8</ele>
        <time>2020-07-04T08:27:34.128Z</time>
      </trkpt>
      <trkpt lat="47.05309" lon="7.00662">
        <ele>778.18</ele>
        <time>2020-07-04T08:27:34.686Z</time>
      </trkpt>
      <trkpt lat="47.05309" lon="7.00661">
        <ele>778.18</ele>
        <time>2020-07-04T08:27:34.831Z</time>
      </trkpt>
      <trkpt lat="47.05308" lon="7.00648">
        <ele>778.56</ele>
        <time>2020-07-04T08:27:37.938Z</time>
      </trkpt>
      <trkpt lat="47.05306" lon="7.00625">
        <ele>779.7</ele>
        <time>2020-07-04T08:27:44.804Z</time>
      </trkpt>
      <trkpt lat="47.05306" lon="7.00602">
        <ele>781.08</ele>
        <time>2020-07-04T08:27:52.559Z</time>
      </trkpt>
      <trkpt lat="47.05305" lon="7.00579">
        <ele>782.23</ele>
        <time>2020-07-04T08:27:59.440Z</time>
      </trkpt>
      <trkpt lat="47.05303" lon="7.0056">
        <ele>783.29</ele>
        <time>2020-07-04T08:28:05.542Z</time>
      </trkpt>
      <trkpt lat="47.05299" lon="7.00541">
        <ele>785.17</ele>
        <time>2020-07-04T08:28:16.645Z</time>
      </trkpt>
      <trkpt lat="47.05296" lon="7.00525">
        <ele>786.69</ele>
        <time>2020-07-04T08:28:25.910Z</time>
      </trkpt>
      <trkpt lat="47.05292" lon="7.00512">
        <ele>787.03</ele>
        <time>2020-07-04T08:28:28.948Z</time>
      </trkpt>
      <trkpt lat="47.05287" lon="7.00498">
        <ele>787.67</ele>
        <time>2020-07-04T08:28:33.212Z</time>
      </trkpt>
      <trkpt lat="47.05282" lon="7.00489">
        <ele>787.67</ele>
        <time>2020-07-04T08:28:34.893Z</time>
      </trkpt>
      <trkpt lat="47.05278" lon="7.00482">
        <ele>787.85</ele>
        <time>2020-07-04T08:28:36.692Z</time>
      </trkpt>
      <trkpt lat="47.0527" lon="7.00474">
        <ele>788.57</ele>
        <time>2020-07-04T08:28:40.972Z</time>
      </trkpt>
      <trkpt lat="47.05265" lon="7.0047">
        <ele>789.46</ele>
        <time>2020-07-04T08:28:45.638Z</time>
      </trkpt>
      <trkpt lat="47.05264" lon="7.0047">
        <ele>789.46</ele>
        <time>2020-07-04T08:28:45.851Z</time>
      </trkpt>
      <trkpt lat="47.05254" lon="7.00462">
        <ele>790.35</ele>
        <time>2020-07-04T08:28:51.038Z</time>
      </trkpt>
      <trkpt lat="47.05246" lon="7.00456">
        <ele>791.64</ele>
        <time>2020-07-04T08:28:58.400Z</time>
      </trkpt>
      <trkpt lat="47.05242" lon="7.00452">
        <ele>792.09</ele>
        <time>2020-07-04T08:29:00.903Z</time>
      </trkpt>
      <trkpt lat="47.0524" lon="7.00449">
        <ele>792.33</ele>
        <time>2020-07-04T08:29:02.269Z</time>
      </trkpt>
      <trkpt lat="47.05236" lon="7.00441">
        <ele>792.71</ele>
        <time>2020-07-04T08:29:04.887Z</time>
      </trkpt>
      <trkpt lat="47.05234" lon="7.00434">
        <ele>793.15</ele>
        <time>2020-07-04T08:29:07.381Z</time>
      </trkpt>
      <trkpt lat="47.05232" lon="7.00424">
        <ele>793.71</ele>
        <time>2020-07-04T08:29:10.634Z</time>
      </trkpt>
      <trkpt lat="47.05231" lon="7.00412">
        <ele>794.37</ele>
        <time>2020-07-04T08:29:14.447Z</time>
      </trkpt>
      <trkpt lat="47.05231" lon="7.00398">
        <ele>795.26</ele>
        <time>2020-07-04T08:29:19.394Z</time>
      </trkpt>
      <trkpt lat="47.05229" lon="7.00386">
        <ele>795.97</ele>
        <time>2020-07-04T08:29:23.429Z</time>
      </trkpt>
      <trkpt lat="47.05228" lon="7.00377">
        <ele>796.65</ele>
        <time>2020-07-04T08:29:27.209Z</time>
      </trkpt>
      <trkpt lat="47.05226" lon="7.00372">
        <ele>797.12</ele>
        <time>2020-07-04T08:29:29.887Z</time>
      </trkpt>
      <trkpt lat="47.05222" lon="7.00363">
        <ele>797.78</ele>
        <time>2020-07-04T08:29:33.577Z</time>
      </trkpt>
      <trkpt lat="47.05218" lon="7.00356">
        <ele>798.36</ele>
        <time>2020-07-04T08:29:36.802Z</time>
      </trkpt>
      <trkpt lat="47.05206" lon="7.00342">
        <ele>799.07</ele>
        <time>2020-07-04T08:29:42.362Z</time>
      </trkpt>
      <trkpt lat="47.05206" lon="7.00341">
        <ele>799.07</ele>
        <time>2020-07-04T08:29:42.507Z</time>
      </trkpt>
      <trkpt lat="47.05202" lon="7.00336">
        <ele>799.79</ele>
        <time>2020-07-04T08:29:46.813Z</time>
      </trkpt>
      <trkpt lat="47.05193" lon="7.00327">
        <ele>800.93</ele>
        <time>2020-07-04T08:29:53.117Z</time>
      </trkpt>
      <trkpt lat="47.05186" lon="7.00319">
        <ele>801.69</ele>
        <time>2020-07-04T08:29:57.417Z</time>
      </trkpt>
      <trkpt lat="47.0517" lon="7.00305">
        <ele>804.08</ele>
        <time>2020-07-04T08:30:11.628Z</time>
      </trkpt>
      <trkpt lat="47.05162" lon="7.00295">
        <ele>805.23</ele>
        <time>2020-07-04T08:30:18.022Z</time>
      </trkpt>
      <trkpt lat="47.05156" lon="7.00287">
        <ele>806.09</ele>
        <time>2020-07-04T08:30:22.783Z</time>
      </trkpt>
      <trkpt lat="47.05135" lon="7.00255">
        <ele>808.33</ele>
        <time>2020-07-04T08:30:36.126Z</time>
      </trkpt>
      <trkpt lat="47.05117" lon="7.00224">
        <ele>810.55</ele>
        <time>2020-07-04T08:30:48.957Z</time>
      </trkpt>
      <trkpt lat="47.05106" lon="7.00208">
        <ele>811.97</ele>
        <time>2020-07-04T08:30:56.872Z</time>
      </trkpt>
      <trkpt lat="47.05096" lon="7.00196">
        <ele>812.96</ele>
        <time>2020-07-04T08:31:02.685Z</time>
      </trkpt>
      <trkpt lat="47.05089" lon="7.00188">
        <ele>813.82</ele>
        <time>2020-07-04T08:31:07.445Z</time>
      </trkpt>
      <trkpt lat="47.05084" lon="7.00181">
        <ele>814.39</ele>
        <time>2020-07-04T08:31:10.706Z</time>
      </trkpt>
      <trkpt lat="47.05078" lon="7.00172">
        <ele>814.11</ele>
        <time>2020-07-04T08:31:11.739Z</time>
      </trkpt>
      <trkpt lat="47.05075" lon="7.00165">
        <ele>814.39</ele>
        <time>2020-07-04T08:31:13.828Z</time>
      </trkpt>
      <trkpt lat="47.05071" lon="7.00153">
        <ele>814.95</ele>
        <time>2020-07-04T08:31:17.486Z</time>
      </trkpt>
      <trkpt lat="47.05057" lon="7.00107">
        <ele>816.96</ele>
        <time>2020-07-04T08:31:30.995Z</time>
      </trkpt>
      <trkpt lat="47.05052" lon="7.00092">
        <ele>817.77</ele>
        <time>2020-07-04T08:31:35.903Z</time>
      </trkpt>
      <trkpt lat="47.05046" lon="7.00076">
        <ele>818.37</ele>
        <time>2020-07-04T08:31:40.472Z</time>
      </trkpt>
      <trkpt lat="47.0504" lon="7.00062">
        <ele>819.11</ele>
        <time>2020-07-04T08:31:45.137Z</time>
      </trkpt>
      <trkpt lat="47.05032" lon="7.00048">
        <ele>819.99</ele>
        <time>2020-07-04T08:31:50.487Z</time>
      </trkpt>
      <trkpt lat="47.05011" lon="7.00015">
        <ele>821.64</ele>
        <time>2020-07-04T08:32:02.194Z</time>
      </trkpt>
      <trkpt lat="47.0501" lon="7.00015">
        <ele>821.64</ele>
        <time>2020-07-04T08:32:02.407Z</time>
      </trkpt>
      <trkpt lat="47.05008" lon="7.0001">
        <ele>823.28</ele>
        <time>2020-07-04T08:32:05.644Z</time>
      </trkpt>
      <trkpt lat="47.05" lon="6.99997">
        <ele>824.41</ele>
        <time>2020-07-04T08:32:11.913Z</time>
      </trkpt>
      <trkpt lat="47.04993" lon="6.99983">
        <ele>825.97</ele>
        <time>2020-07-04T08:32:21.391Z</time>
      </trkpt>
      <trkpt lat="47.04983" lon="6.99963">
        <ele>827.83</ele>
        <time>2020-07-04T08:32:31.742Z</time>
      </trkpt>
      <trkpt lat="47.04975" lon="6.9995">
        <ele>829.07</ele>
        <time>2020-07-04T08:32:38.596Z</time>
      </trkpt>
      <trkpt lat="47.0497" lon="6.99941">
        <ele>830.06</ele>
        <time>2020-07-04T08:32:44.385Z</time>
      </trkpt>
      <trkpt lat="47.04967" lon="6.99931">
        <ele>830.91</ele>
        <time>2020-07-04T08:32:49.157Z</time>
      </trkpt>
      <trkpt lat="47.04965" lon="6.99922">
        <ele>831.64</ele>
        <time>2020-07-04T08:32:53.245Z</time>
      </trkpt>
      <trkpt lat="47.04961" lon="6.99904">
        <ele>833.07</ele>
        <time>2020-07-04T08:33:01.215Z</time>
      </trkpt>
      <trkpt lat="47.0495" lon="6.99855">
        <ele>836.98</ele>
        <time>2020-07-04T08:33:23.022Z</time>
      </trkpt>
      <trkpt lat="47.04946" lon="6.99839">
        <ele>838.31</ele>
        <time>2020-07-04T08:33:30.496Z</time>
      </trkpt>
      <trkpt lat="47.04941" lon="6.99822">
        <ele>839.67</ele>
        <time>2020-07-04T08:33:38.040Z</time>
      </trkpt>
      <trkpt lat="47.04935" lon="6.99802">
        <ele>841.36</ele>
        <time>2020-07-04T08:33:47.512Z</time>
      </trkpt>
      <trkpt lat="47.04931" lon="6.99791">
        <ele>842.41</ele>
        <time>2020-07-04T08:33:53.607Z</time>
      </trkpt>
      <trkpt lat="47.04923" lon="6.99774">
        <ele>843.87</ele>
        <time>2020-07-04T08:34:01.676Z</time>
      </trkpt>
      <trkpt lat="47.04916" lon="6.99758">
        <ele>845.35</ele>
        <time>2020-07-04T08:34:09.987Z</time>
      </trkpt>
      <trkpt lat="47.04908" lon="6.99737">
        <ele>847.09</ele>
        <time>2020-07-04T08:34:19.620Z</time>
      </trkpt>
      <trkpt lat="47.04903" lon="6.99725">
        <ele>848.14</ele>
        <time>2020-07-04T08:34:25.459Z</time>
      </trkpt>
      <trkpt lat="47.04892" lon="6.99706">
        <ele>850.06</ele>
        <time>2020-07-04T08:34:36.208Z</time>
      </trkpt>
      <trkpt lat="47.04876" lon="6.99679">
        <ele>852.84</ele>
        <time>2020-07-04T08:34:51.810Z</time>
      </trkpt>
      <trkpt lat="47.04867" lon="6.9966">
        <ele>854.74</ele>
        <time>2020-07-04T08:35:02.696Z</time>
      </trkpt>
      <trkpt lat="47.04859" lon="6.99639">
        <ele>856.27</ele>
        <time>2020-07-04T08:35:11.200Z</time>
      </trkpt>
      <trkpt lat="47.04853" lon="6.99625">
        <ele>857.96</ele>
        <time>2020-07-04T08:35:20.435Z</time>
      </trkpt>
      <trkpt lat="47.04844" lon="6.99608">
        <ele>859.57</ele>
        <time>2020-07-04T08:35:29.390Z</time>
      </trkpt>
      <trkpt lat="47.04834" lon="6.9959">
        <ele>861.18</ele>
        <time>2020-07-04T08:35:38.284Z</time>
      </trkpt>
      <trkpt lat="47.04821" lon="6.99565">
        <ele>863.4</ele>
        <time>2020-07-04T08:35:50.553Z</time>
      </trkpt>
      <trkpt lat="47.04804" lon="6.99529">
        <ele>866.96</ele>
        <time>2020-07-04T08:36:10.857Z</time>
      </trkpt>
      <trkpt lat="47.04804" lon="6.99528">
        <ele>867.39</ele>
        <time>2020-07-04T08:36:11.415Z</time>
      </trkpt>
      <trkpt lat="47.04804" lon="6.99527">
        <ele>867.39</ele>
        <time>2020-07-04T08:36:11.560Z</time>
      </trkpt>
      <trkpt lat="47.048" lon="6.9952">
        <ele>867.82</ele>
        <time>2020-07-04T08:36:14.203Z</time>
      </trkpt>
      <trkpt lat="47.04798" lon="6.99512">
        <ele>868.57</ele>
        <time>2020-07-04T08:36:18.685Z</time>
      </trkpt>
      <trkpt lat="47.04796" lon="6.99505">
        <ele>869.09</ele>
        <time>2020-07-04T08:36:21.557Z</time>
      </trkpt>
      <trkpt lat="47.04795" lon="6.99496">
        <ele>869.75</ele>
        <time>2020-07-04T08:36:25.211Z</time>
      </trkpt>
      <trkpt lat="47.04795" lon="6.99466">
        <ele>871.99</ele>
        <time>2020-07-04T08:36:37.668Z</time>
      </trkpt>
      <trkpt lat="47.04793" lon="6.99448">
        <ele>873.2</ele>
        <time>2020-07-04T08:36:44.362Z</time>
      </trkpt>
      <trkpt lat="47.04793" lon="6.99435">
        <ele>874.09</ele>
        <time>2020-07-04T08:36:49.278Z</time>
      </trkpt>
      <trkpt lat="47.04791" lon="6.9941">
        <ele>876.28</ele>
        <time>2020-07-04T08:37:02.255Z</time>
      </trkpt>
      <trkpt lat="47.04791" lon="6.99404">
        <ele>876.95</ele>
        <time>2020-07-04T08:37:05.605Z</time>
      </trkpt>
      <trkpt lat="47.04791" lon="6.99398">
        <ele>877.41</ele>
        <time>2020-07-04T08:37:08.178Z</time>
      </trkpt>
      <trkpt lat="47.04792" lon="6.99391">
        <ele>877.79</ele>
        <time>2020-07-04T08:37:10.394Z</time>
      </trkpt>
      <trkpt lat="47.04793" lon="6.99382">
        <ele>878.33</ele>
        <time>2020-07-04T08:37:13.439Z</time>
      </trkpt>
      <trkpt lat="47.04794" lon="6.9937">
        <ele>879.35</ele>
        <time>2020-07-04T08:37:19.366Z</time>
      </trkpt>
      <trkpt lat="47.04795" lon="6.9935">
        <ele>880.69</ele>
        <time>2020-07-04T08:37:26.775Z</time>
      </trkpt>
      <trkpt lat="47.04795" lon="6.99338">
        <ele>881.57</ele>
        <time>2020-07-04T08:37:31.655Z</time>
      </trkpt>
      <trkpt lat="47.04795" lon="6.99323">
        <ele>882.63</ele>
        <time>2020-07-04T08:37:37.514Z</time>
      </trkpt>
      <trkpt lat="47.04796" lon="6.99315">
        <ele>883.35</ele>
        <time>2020-07-04T08:37:41.835Z</time>
      </trkpt>
      <trkpt lat="47.048" lon="6.99298">
        <ele>884.77</ele>
        <time>2020-07-04T08:37:49.845Z</time>
      </trkpt>
      <trkpt lat="47.04801" lon="6.99292">
        <ele>885.28</ele>
        <time>2020-07-04T08:37:52.774Z</time>
      </trkpt>
      <trkpt lat="47.04801" lon="6.99286">
        <ele>885.87</ele>
        <time>2020-07-04T08:37:56.125Z</time>
      </trkpt>
      <trkpt lat="47.048" lon="6.99281">
        <ele>886.28</ele>
        <time>2020-07-04T08:37:58.434Z</time>
      </trkpt>
      <trkpt lat="47.04796" lon="6.99269">
        <ele>887.63</ele>
        <time>2020-07-04T08:38:05.894Z</time>
      </trkpt>
      <trkpt lat="47.04785" lon="6.99251">
        <ele>889.45</ele>
        <time>2020-07-04T08:38:16.030Z</time>
      </trkpt>
      <trkpt lat="47.04782" lon="6.99247">
        <ele>889.94</ele>
        <time>2020-07-04T08:38:18.842Z</time>
      </trkpt>
      <trkpt lat="47.04775" lon="6.99242">
        <ele>890.93</ele>
        <time>2020-07-04T08:38:24.691Z</time>
      </trkpt>
      <trkpt lat="47.04759" lon="6.99235">
        <ele>893.21</ele>
        <time>2020-07-04T08:38:38.373Z</time>
      </trkpt>
      <trkpt lat="47.04753" lon="6.99232">
        <ele>893.8</ele>
        <time>2020-07-04T08:38:41.653Z</time>
      </trkpt>
      <trkpt lat="47.04748" lon="6.99231">
        <ele>894.22</ele>
        <time>2020-07-04T08:38:44.050Z</time>
      </trkpt>
      <trkpt lat="47.04743" lon="6.99231">
        <ele>894.69</ele>
        <time>2020-07-04T08:38:46.659Z</time>
      </trkpt>
      <trkpt lat="47.04738" lon="6.99231">
        <ele>895.24</ele>
        <time>2020-07-04T08:38:49.720Z</time>
      </trkpt>
      <trkpt lat="47.04734" lon="6.99232">
        <ele>895.87</ele>
        <time>2020-07-04T08:38:53.045Z</time>
      </trkpt>
      <trkpt lat="47.0473" lon="6.99231">
        <ele>896.34</ele>
        <time>2020-07-04T08:38:55.696Z</time>
      </trkpt>
      <trkpt lat="47.04725" lon="6.99229">
        <ele>896.86</ele>
        <time>2020-07-04T08:38:58.568Z</time>
      </trkpt>
      <trkpt lat="47.04721" lon="6.99225">
        <ele>897.31</ele>
        <time>2020-07-04T08:39:01.071Z</time>
      </trkpt>
      <trkpt lat="47.04715" lon="6.99215">
        <ele>898.37</ele>
        <time>2020-07-04T08:39:07.066Z</time>
      </trkpt>
      <trkpt lat="47.04705" lon="6.99199">
        <ele>900.07</ele>
        <time>2020-07-04T08:39:16.628Z</time>
      </trkpt>
      <trkpt lat="47.04686" lon="6.99167">
        <ele>903.16</ele>
        <time>2020-07-04T08:39:33.748Z</time>
      </trkpt>
      <trkpt lat="47.04682" lon="6.99159">
        <ele>903.82</ele>
        <time>2020-07-04T08:39:37.399Z</time>
      </trkpt>
      <trkpt lat="47.04681" lon="6.99159">
        <ele>903.82</ele>
        <time>2020-07-04T08:39:37.611Z</time>
      </trkpt>
      <trkpt lat="47.04678" lon="6.99151">
        <ele>904.48</ele>
        <time>2020-07-04T08:39:41.265Z</time>
      </trkpt>
      <trkpt lat="47.04664" lon="6.9912">
        <ele>907.45</ele>
        <time>2020-07-04T08:39:58.084Z</time>
      </trkpt>
      <trkpt lat="47.0465" lon="6.99088">
        <ele>910.29</ele>
        <time>2020-07-04T08:40:13.878Z</time>
      </trkpt>
      <trkpt lat="47.04639" lon="6.99061">
        <ele>912.83</ele>
        <time>2020-07-04T08:40:28.324Z</time>
      </trkpt>
      <trkpt lat="47.04632" lon="6.99046">
        <ele>914.26</ele>
        <time>2020-07-04T08:40:36.379Z</time>
      </trkpt>
      <trkpt lat="47.04622" lon="6.99027">
        <ele>916.07</ele>
        <time>2020-07-04T08:40:46.463Z</time>
      </trkpt>
      <trkpt lat="47.04611" lon="6.99006">
        <ele>918.03</ele>
        <time>2020-07-04T08:40:57.346Z</time>
      </trkpt>
      <trkpt lat="47.04601" lon="6.98985">
        <ele>919.96</ele>
        <time>2020-07-04T08:41:08.097Z</time>
      </trkpt>
      <trkpt lat="47.04594" lon="6.98972">
        <ele>921.27</ele>
        <time>2020-07-04T08:41:15.489Z</time>
      </trkpt>
      <trkpt lat="47.04585" lon="6.98958">
        <ele>922.82</ele>
        <time>2020-07-04T08:41:24.295Z</time>
      </trkpt>
      <trkpt lat="47.04577" lon="6.98945">
        <ele>924.07</ele>
        <time>2020-07-04T08:41:31.208Z</time>
      </trkpt>
      <trkpt lat="47.04547" lon="6.98879">
        <ele>930.07</ele>
        <time>2020-07-04T08:42:04.656Z</time>
      </trkpt>
      <trkpt lat="47.04544" lon="6.98873">
        <ele>930.65</ele>
        <time>2020-07-04T08:42:07.914Z</time>
      </trkpt>
      <trkpt lat="47.0454" lon="6.98866">
        <ele>931.29</ele>
        <time>2020-07-04T08:42:11.450Z</time>
      </trkpt>
      <trkpt lat="47.04535" lon="6.9886">
        <ele>932.09</ele>
        <time>2020-07-04T08:42:16.099Z</time>
      </trkpt>
      <trkpt lat="47.04528" lon="6.98851">
        <ele>932.99</ele>
        <time>2020-07-04T08:42:21.081Z</time>
      </trkpt>
      <trkpt lat="47.04518" lon="6.98838">
        <ele>934.16</ele>
        <time>2020-07-04T08:42:27.665Z</time>
      </trkpt>
      <trkpt lat="47.04509" lon="6.98829">
        <ele>934.88</ele>
        <time>2020-07-04T08:42:32.188Z</time>
      </trkpt>
      <trkpt lat="47.04475" lon="6.98804">
        <ele>937.62</ele>
        <time>2020-07-04T08:42:48.701Z</time>
      </trkpt>
      <trkpt lat="47.04461" lon="6.98788">
        <ele>938.61</ele>
        <time>2020-07-04T08:42:55.552Z</time>
      </trkpt>
      <trkpt lat="47.04449" lon="6.98778">
        <ele>939.64</ele>
        <time>2020-07-04T08:43:01.666Z</time>
      </trkpt>
      <trkpt lat="47.04434" lon="6.98768">
        <ele>940.52</ele>
        <time>2020-07-04T08:43:07.926Z</time>
      </trkpt>
      <trkpt lat="47.04411" lon="6.98757">
        <ele>942.37</ele>
        <time>2020-07-04T08:43:18.798Z</time>
      </trkpt>
      <trkpt lat="47.04393" lon="6.98746">
        <ele>943.53</ele>
        <time>2020-07-04T08:43:26.522Z</time>
      </trkpt>
      <trkpt lat="47.04386" lon="6.98739">
        <ele>944.33</ele>
        <time>2020-07-04T08:43:30.962Z</time>
      </trkpt>
      <trkpt lat="47.04372" lon="6.98725">
        <ele>945.5</ele>
        <time>2020-07-04T08:43:38.153Z</time>
      </trkpt>
      <trkpt lat="47.04352" lon="6.987">
        <ele>947.16</ele>
        <time>2020-07-04T08:43:48.836Z</time>
      </trkpt>
      <trkpt lat="47.04334" lon="6.98677">
        <ele>948.95</ele>
        <time>2020-07-04T08:43:59.438Z</time>
      </trkpt>
      <trkpt lat="47.04294" lon="6.9863">
        <ele>951.66</ele>
        <time>2020-07-04T08:44:18.841Z</time>
      </trkpt>
      <trkpt lat="47.04293" lon="6.9863">
        <ele>951.66</ele>
        <time>2020-07-04T08:44:19.053Z</time>
      </trkpt>
      <trkpt lat="47.04267" lon="6.98599">
        <ele>954.37</ele>
        <time>2020-07-04T08:44:34.657Z</time>
      </trkpt>
      <trkpt lat="47.04242" lon="6.98573">
        <ele>956.4</ele>
        <time>2020-07-04T08:44:47.396Z</time>
      </trkpt>
      <trkpt lat="47.04215" lon="6.98541">
        <ele>958.7</ele>
        <time>2020-07-04T08:45:01.827Z</time>
      </trkpt>
      <trkpt lat="47.04167" lon="6.98483">
        <ele>963.71</ele>
        <time>2020-07-04T08:45:30.712Z</time>
      </trkpt>
      <trkpt lat="47.04145" lon="6.98452">
        <ele>966.14</ele>
        <time>2020-07-04T08:45:44.776Z</time>
      </trkpt>
      <trkpt lat="47.04125" lon="6.98424">
        <ele>968.64</ele>
        <time>2020-07-04T08:45:58.747Z</time>
      </trkpt>
      <trkpt lat="47.04114" lon="6.98412">
        <ele>969.84</ele>
        <time>2020-07-04T08:46:05.500Z</time>
      </trkpt>
      <trkpt lat="47.04094" lon="6.9839">
        <ele>971.77</ele>
        <time>2020-07-04T08:46:16.800Z</time>
      </trkpt>
      <trkpt lat="47.04065" lon="6.98364">
        <ele>974.49</ele>
        <time>2020-07-04T08:46:32.518Z</time>
      </trkpt>
      <trkpt lat="47.04052" lon="6.98345">
        <ele>976.24</ele>
        <time>2020-07-04T08:46:42.218Z</time>
      </trkpt>
      <trkpt lat="47.04043" lon="6.98331">
        <ele>977.6</ele>
        <time>2020-07-04T08:46:49.735Z</time>
      </trkpt>
      <trkpt lat="47.04042" lon="6.98331">
        <ele>977.6</ele>
        <time>2020-07-04T08:46:49.947Z</time>
      </trkpt>
      <trkpt lat="47.0403" lon="6.98313">
        <ele>978.96</ele>
        <time>2020-07-04T08:46:57.833Z</time>
      </trkpt>
      <trkpt lat="47.04014" lon="6.98288">
        <ele>980.65</ele>
        <time>2020-07-04T08:47:08.002Z</time>
      </trkpt>
      <trkpt lat="47.04002" lon="6.98271">
        <ele>982.02</ele>
        <time>2020-07-04T08:47:15.851Z</time>
      </trkpt>
      <trkpt lat="47.03983" lon="6.98249">
        <ele>984.17</ele>
        <time>2020-07-04T08:47:27.910Z</time>
      </trkpt>
      <trkpt lat="47.03964" lon="6.98225">
        <ele>986.22</ele>
        <time>2020-07-04T08:47:39.671Z</time>
      </trkpt>
      <trkpt lat="47.03957" lon="6.98216">
        <ele>986.96</ele>
        <time>2020-07-04T08:47:43.957Z</time>
      </trkpt>
      <trkpt lat="47.03946" lon="6.98204">
        <ele>988.07</ele>
        <time>2020-07-04T08:47:50.346Z</time>
      </trkpt>
      <trkpt lat="47.03938" lon="6.98198">
        <ele>988.95</ele>
        <time>2020-07-04T08:47:55.213Z</time>
      </trkpt>
      <trkpt lat="47.03927" lon="6.98191">
        <ele>990</ele>
        <time>2020-07-04T08:48:01.121Z</time>
      </trkpt>
      <trkpt lat="47.03899" lon="6.9817">
        <ele>992.74</ele>
        <time>2020-07-04T08:48:16.559Z</time>
      </trkpt>
      <trkpt lat="47.03875" lon="6.98155">
        <ele>995.02</ele>
        <time>2020-07-04T08:48:29.395Z</time>
      </trkpt>
      <trkpt lat="47.03869" lon="6.9815">
        <ele>995.69</ele>
        <time>2020-07-04T08:48:33.102Z</time>
      </trkpt>
      <trkpt lat="47.03865" lon="6.98144">
        <ele>996.25</ele>
        <time>2020-07-04T08:48:36.199Z</time>
      </trkpt>
      <trkpt lat="47.03861" lon="6.98138">
        <ele>996.87</ele>
        <time>2020-07-04T08:48:39.641Z</time>
      </trkpt>
      <trkpt lat="47.03848" lon="6.9812">
        <ele>998.64</ele>
        <time>2020-07-04T08:48:49.423Z</time>
      </trkpt>
      <trkpt lat="47.03833" lon="6.98094">
        <ele>1000.71</ele>
        <time>2020-07-04T08:49:01.024Z</time>
      </trkpt>
      <trkpt lat="47.03822" lon="6.98074">
        <ele>1002.21</ele>
        <time>2020-07-04T08:49:09.513Z</time>
      </trkpt>
      <trkpt lat="47.03813" lon="6.98055">
        <ele>1003.68</ele>
        <time>2020-07-04T08:49:17.685Z</time>
      </trkpt>
      <trkpt lat="47.03802" lon="6.98029">
        <ele>1005.96</ele>
        <time>2020-07-04T08:49:30.359Z</time>
      </trkpt>
      <trkpt lat="47.03788" lon="6.97993">
        <ele>1009.14</ele>
        <time>2020-07-04T08:49:48.144Z</time>
      </trkpt>
      <trkpt lat="47.03775" lon="6.97961">
        <ele>1011.98</ele>
        <time>2020-07-04T08:50:04.004Z</time>
      </trkpt>
      <trkpt lat="47.03759" lon="6.97927">
        <ele>1013.86</ele>
        <time>2020-07-04T08:50:15.755Z</time>
      </trkpt>
      <trkpt lat="47.03759" lon="6.97926">
        <ele>1013.86</ele>
        <time>2020-07-04T08:50:15.900Z</time>
      </trkpt>
      <trkpt lat="47.03757" lon="6.97922">
        <ele>1015.74</ele>
        <time>2020-07-04T08:50:18.671Z</time>
      </trkpt>
      <trkpt lat="47.03743" lon="6.97892">
        <ele>1018.11</ele>
        <time>2020-07-04T08:50:31.803Z</time>
      </trkpt>
      <trkpt lat="47.03737" lon="6.97881">
        <ele>1019.01</ele>
        <time>2020-07-04T08:50:36.803Z</time>
      </trkpt>
      <trkpt lat="47.0373" lon="6.97871">
        <ele>1019.83</ele>
        <time>2020-07-04T08:50:41.469Z</time>
      </trkpt>
      <trkpt lat="47.03725" lon="6.97865">
        <ele>1020.31</ele>
        <time>2020-07-04T08:50:44.324Z</time>
      </trkpt>
      <trkpt lat="47.03718" lon="6.97859">
        <ele>1020.83</ele>
        <time>2020-07-04T08:50:47.643Z</time>
      </trkpt>
      <trkpt lat="47.03709" lon="6.97853">
        <ele>1021.11</ele>
        <time>2020-07-04T08:50:50.479Z</time>
      </trkpt>
      <trkpt lat="47.03689" lon="6.97846">
        <ele>1021.63</ele>
        <time>2020-07-04T08:50:56.164Z</time>
      </trkpt>
      <trkpt lat="47.03681" lon="6.97841">
        <ele>1021.59</ele>
        <time>2020-07-04T08:50:57.890Z</time>
      </trkpt>
      <trkpt lat="47.03663" lon="6.97826">
        <ele>1021.78</ele>
        <time>2020-07-04T08:51:02.691Z</time>
      </trkpt>
      <trkpt lat="47.03645" lon="6.97809">
        <ele>1021.29</ele>
        <time>2020-07-04T08:51:05.554Z</time>
      </trkpt>
      <trkpt lat="47.03625" lon="6.97788">
        <ele>1021.25</ele>
        <time>2020-07-04T08:51:10.652Z</time>
      </trkpt>
      <trkpt lat="47.03603" lon="6.9776">
        <ele>1020.8</ele>
        <time>2020-07-04T08:51:14.907Z</time>
      </trkpt>
      <trkpt lat="47.03582" lon="6.97735">
        <ele>1020.26</ele>
        <time>2020-07-04T08:51:18.648Z</time>
      </trkpt>
      <trkpt lat="47.03565" lon="6.97714">
        <ele>1019.51</ele>
        <time>2020-07-04T08:51:21.295Z</time>
      </trkpt>
      <trkpt lat="47.0354" lon="6.97682">
        <ele>1018.48</ele>
        <time>2020-07-04T08:51:25.356Z</time>
      </trkpt>
      <trkpt lat="47.03525" lon="6.97663">
        <ele>1017.73</ele>
        <time>2020-07-04T08:51:27.623Z</time>
      </trkpt>
      <trkpt lat="47.03507" lon="6.9764">
        <ele>1016.8</ele>
        <time>2020-07-04T08:51:30.323Z</time>
      </trkpt>
      <trkpt lat="47.03495" lon="6.97625">
        <ele>1016.34</ele>
        <time>2020-07-04T08:51:32.291Z</time>
      </trkpt>
      <trkpt lat="47.03487" lon="6.97614">
        <ele>1015.78</ele>
        <time>2020-07-04T08:51:33.402Z</time>
      </trkpt>
      <trkpt lat="47.03482" lon="6.97604">
        <ele>1015.32</ele>
        <time>2020-07-04T08:51:34.235Z</time>
      </trkpt>
      <trkpt lat="47.03477" lon="6.97591">
        <ele>1014.64</ele>
        <time>2020-07-04T08:51:35.228Z</time>
      </trkpt>
      <trkpt lat="47.03477" lon="6.9759">
        <ele>1014.64</ele>
        <time>2020-07-04T08:51:35.373Z</time>
      </trkpt>
      <trkpt lat="47.0346" lon="6.97546">
        <ele>1013.96</ele>
        <time>2020-07-04T08:51:40.155Z</time>
      </trkpt>
      <trkpt lat="47.0345" lon="6.97516">
        <ele>1012.95</ele>
        <time>2020-07-04T08:51:42.603Z</time>
      </trkpt>
      <trkpt lat="47.03441" lon="6.97494">
        <ele>1011.77</ele>
        <time>2020-07-04T08:51:44.309Z</time>
      </trkpt>
      <trkpt lat="47.03434" lon="6.97481">
        <ele>1011.33</ele>
        <time>2020-07-04T08:51:45.587Z</time>
      </trkpt>
      <trkpt lat="47.03428" lon="6.97473">
        <ele>1010.93</ele>
        <time>2020-07-04T08:51:46.421Z</time>
      </trkpt>
      <trkpt lat="47.03417" lon="6.97463">
        <ele>1010.51</ele>
        <time>2020-07-04T08:51:47.982Z</time>
      </trkpt>
      <trkpt lat="47.03406" lon="6.97455">
        <ele>1010.11</ele>
        <time>2020-07-04T08:51:49.462Z</time>
      </trkpt>
      <trkpt lat="47.03381" lon="6.97437">
        <ele>1008.67</ele>
        <time>2020-07-04T08:51:52.269Z</time>
      </trkpt>
      <trkpt lat="47.03362" lon="6.97422">
        <ele>1007.28</ele>
        <time>2020-07-04T08:51:54.231Z</time>
      </trkpt>
      <trkpt lat="47.03342" lon="6.97408">
        <ele>1006.59</ele>
        <time>2020-07-04T08:51:56.941Z</time>
      </trkpt>
      <trkpt lat="47.03335" lon="6.97403">
        <ele>1006.32</ele>
        <time>2020-07-04T08:51:57.860Z</time>
      </trkpt>
      <trkpt lat="47.03319" lon="6.97389">
        <ele>1005.35</ele>
        <time>2020-07-04T08:51:59.732Z</time>
      </trkpt>
      <trkpt lat="47.03303" lon="6.97373">
        <ele>1004.05</ele>
        <time>2020-07-04T08:52:01.621Z</time>
      </trkpt>
      <trkpt lat="47.03287" lon="6.97358">
        <ele>1002.95</ele>
        <time>2020-07-04T08:52:03.439Z</time>
      </trkpt>
      <trkpt lat="47.03254" lon="6.97319">
        <ele>999.78</ele>
        <time>2020-07-04T08:52:07.573Z</time>
      </trkpt>
      <trkpt lat="47.03208" lon="6.97267">
        <ele>996.2</ele>
        <time>2020-07-04T08:52:12.968Z</time>
      </trkpt>
      <trkpt lat="47.03198" lon="6.97255">
        <ele>995.1</ele>
        <time>2020-07-04T08:52:14.229Z</time>
      </trkpt>
      <trkpt lat="47.03186" lon="6.97243">
        <ele>994.18</ele>
        <time>2020-07-04T08:52:15.560Z</time>
      </trkpt>
      <trkpt lat="47.03163" lon="6.9722">
        <ele>991.9</ele>
        <time>2020-07-04T08:52:18.276Z</time>
      </trkpt>
      <trkpt lat="47.03152" lon="6.97208">
        <ele>991.02</ele>
        <time>2020-07-04T08:52:19.524Z</time>
      </trkpt>
      <trkpt lat="47.03142" lon="6.97197">
        <ele>990.5</ele>
        <time>2020-07-04T08:52:20.903Z</time>
      </trkpt>
      <trkpt lat="47.0313" lon="6.97183">
        <ele>989.7</ele>
        <time>2020-07-04T08:52:22.443Z</time>
      </trkpt>
      <trkpt lat="47.03115" lon="6.97163">
        <ele>988.36</ele>
        <time>2020-07-04T08:52:24.262Z</time>
      </trkpt>
      <trkpt lat="47.03099" lon="6.9714">
        <ele>986.67</ele>
        <time>2020-07-04T08:52:26.447Z</time>
      </trkpt>
      <trkpt lat="47.03087" lon="6.97124">
        <ele>985.41</ele>
        <time>2020-07-04T08:52:28.029Z</time>
      </trkpt>
      <trkpt lat="47.03078" lon="6.97112">
        <ele>984.34</ele>
        <time>2020-07-04T08:52:29.216Z</time>
      </trkpt>
      <trkpt lat="47.03061" lon="6.97093">
        <ele>983.24</ele>
        <time>2020-07-04T08:52:31.375Z</time>
      </trkpt>
      <trkpt lat="47.03045" lon="6.97072">
        <ele>981.9</ele>
        <time>2020-07-04T08:52:33.357Z</time>
      </trkpt>
      <trkpt lat="47.03031" lon="6.97055">
        <ele>980.79</ele>
        <time>2020-07-04T08:52:35.053Z</time>
      </trkpt>
      <trkpt lat="47.02989" lon="6.97008">
        <ele>977.22</ele>
        <time>2020-07-04T08:52:40.207Z</time>
      </trkpt>
      <trkpt lat="47.02962" lon="6.96979">
        <ele>975.19</ele>
        <time>2020-07-04T08:52:43.340Z</time>
      </trkpt>
      <trkpt lat="47.02978" lon="6.96981">
        <ele>981.07</ele>
        <time>2020-07-04T08:52:56.499Z</time>
      </trkpt>
      <trkpt lat="47.02989" lon="6.96983">
        <ele>988.44</ele>
        <time>2020-07-04T08:53:05.582Z</time>
      </trkpt>
      <trkpt lat="47.02988" lon="6.96983">
        <ele>988.44</ele>
        <time>2020-07-04T08:53:05.794Z</time>
      </trkpt>
      <trkpt lat="47.0302" lon="6.96989">
        <ele>995.82</ele>
        <time>2020-07-04T08:53:32.230Z</time>
      </trkpt>
      <trkpt lat="47.03037" lon="6.96996">
        <ele>1001.07</ele>
        <time>2020-07-04T08:53:46.699Z</time>
      </trkpt>
      <trkpt lat="47.03064" lon="6.97005">
        <ele>1011</ele>
        <time>2020-07-04T08:54:09.388Z</time>
      </trkpt>
      <trkpt lat="47.03092" lon="6.97014">
        <ele>1019.83</ele>
        <time>2020-07-04T08:54:32.877Z</time>
      </trkpt>
      <trkpt lat="47.03106" lon="6.97019">
        <ele>1024.55</ele>
        <time>2020-07-04T08:54:44.684Z</time>
      </trkpt>
      <trkpt lat="47.03105" lon="6.9701">
        <ele>1025.38</ele>
        <time>2020-07-04T08:54:49.777Z</time>
      </trkpt>
      <trkpt lat="47.03094" lon="6.9697">
        <ele>1033.77</ele>
        <time>2020-07-04T08:55:13.869Z</time>
      </trkpt>
      <trkpt lat="47.03089" lon="6.9695">
        <ele>1037.88</ele>
        <time>2020-07-04T08:55:25.767Z</time>
      </trkpt>
      <trkpt lat="47.03089" lon="6.96949">
        <ele>1037.88</ele>
        <time>2020-07-04T08:55:25.912Z</time>
      </trkpt>
      <trkpt lat="47.03081" lon="6.96915">
        <ele>1042</ele>
        <time>2020-07-04T08:55:46.002Z</time>
      </trkpt>
      <trkpt lat="47.03075" lon="6.96896">
        <ele>1043.03</ele>
        <time>2020-07-04T08:55:52.205Z</time>
      </trkpt>
      <trkpt lat="47.03073" lon="6.96883">
        <ele>1045.47</ele>
        <time>2020-07-04T08:55:59.649Z</time>
      </trkpt>
      <trkpt lat="47.03072" lon="6.96859">
        <ele>1049.06</ele>
        <time>2020-07-04T08:56:13.079Z</time>
      </trkpt>
      <trkpt lat="47.03073" lon="6.96826">
        <ele>1055.51</ele>
        <time>2020-07-04T08:56:31.529Z</time>
      </trkpt>
      <trkpt lat="47.03074" lon="6.96795">
        <ele>1061.32</ele>
        <time>2020-07-04T08:56:48.863Z</time>
      </trkpt>
      <trkpt lat="47.03074" lon="6.96771">
        <ele>1064.84</ele>
        <time>2020-07-04T08:57:02.268Z</time>
      </trkpt>
      <trkpt lat="47.03071" lon="6.96754">
        <ele>1067</ele>
        <time>2020-07-04T08:57:12.076Z</time>
      </trkpt>
      <trkpt lat="47.03067" lon="6.96738">
        <ele>1067.53</ele>
        <time>2020-07-04T08:57:16.271Z</time>
      </trkpt>
      <trkpt lat="47.03057" lon="6.96714">
        <ele>1067.21</ele>
        <time>2020-07-04T08:57:19.030Z</time>
      </trkpt>
      <trkpt lat="47.03052" lon="6.96704">
        <ele>1067.57</ele>
        <time>2020-07-04T08:57:21.975Z</time>
      </trkpt>
      <trkpt lat="47.03051" lon="6.96704">
        <ele>1067.57</ele>
        <time>2020-07-04T08:57:22.187Z</time>
      </trkpt>
      <trkpt lat="47.03047" lon="6.96695">
        <ele>1067.93</ele>
        <time>2020-07-04T08:57:24.893Z</time>
      </trkpt>
      <trkpt lat="47.03036" lon="6.96675">
        <ele>1071.31</ele>
        <time>2020-07-04T08:57:39.247Z</time>
      </trkpt>
      <trkpt lat="47.03014" lon="6.96645">
        <ele>1079.8</ele>
        <time>2020-07-04T08:58:03.859Z</time>
      </trkpt>
      <trkpt lat="47.02995" lon="6.96623">
        <ele>1083.2</ele>
        <time>2020-07-04T08:58:23.694Z</time>
      </trkpt>
      <trkpt lat="47.02964" lon="6.96587">
        <ele>1085.62</ele>
        <time>2020-07-04T08:58:39.545Z</time>
      </trkpt>
      <trkpt lat="47.02946" lon="6.96562">
        <ele>1084.96</ele>
        <time>2020-07-04T08:58:42.726Z</time>
      </trkpt>
      <trkpt lat="47.02927" lon="6.96539">
        <ele>1084.26</ele>
        <time>2020-07-04T08:58:45.826Z</time>
      </trkpt>
      <trkpt lat="47.02926" lon="6.96538">
        <ele>1084.15</ele>
        <time>2020-07-04T08:58:45.944Z</time>
      </trkpt>
      <trkpt lat="47.02926" lon="6.96537">
        <ele>1084.15</ele>
        <time>2020-07-04T08:58:46.089Z</time>
      </trkpt>
      <trkpt lat="47.02914" lon="6.96523">
        <ele>1084.04</ele>
        <time>2020-07-04T08:58:49.024Z</time>
      </trkpt>
      <trkpt lat="47.02901" lon="6.96505">
        <ele>1082.9</ele>
        <time>2020-07-04T08:58:50.657Z</time>
      </trkpt>
      <trkpt lat="47.02893" lon="6.96491">
        <ele>1082.74</ele>
        <time>2020-07-04T08:58:52.537Z</time>
      </trkpt>
      <trkpt lat="47.02886" lon="6.96476">
        <ele>1082.59</ele>
        <time>2020-07-04T08:58:54.425Z</time>
      </trkpt>
      <trkpt lat="47.02878" lon="6.96457">
        <ele>1083.9</ele>
        <time>2020-07-04T08:59:01.830Z</time>
      </trkpt>
      <trkpt lat="47.02871" lon="6.96428">
        <ele>1086.89</ele>
        <time>2020-07-04T08:59:19.014Z</time>
      </trkpt>
      <trkpt lat="47.02878" lon="6.96437">
        <ele>1087.03</ele>
        <time>2020-07-04T08:59:21.307Z</time>
      </trkpt>
      <trkpt lat="47.02896" lon="6.96462">
        <ele>1087.94</ele>
        <time>2020-07-04T08:59:29.241Z</time>
      </trkpt>
      <trkpt lat="47.02907" lon="6.96478">
        <ele>1088.74</ele>
        <time>2020-07-04T08:59:35.058Z</time>
      </trkpt>
      <trkpt lat="47.02916" lon="6.96486">
        <ele>1090.35</ele>
        <time>2020-07-04T08:59:43.681Z</time>
      </trkpt>
      <trkpt lat="47.02929" lon="6.96493">
        <ele>1093.31</ele>
        <time>2020-07-04T08:59:55.029Z</time>
      </trkpt>
      <trkpt lat="47.0295" lon="6.96504">
        <ele>1097.3</ele>
        <time>2020-07-04T09:00:13.301Z</time>
      </trkpt>
      <trkpt lat="47.02952" lon="6.96505">
        <ele>1099.26</ele>
        <time>2020-07-04T09:00:15.033Z</time>
      </trkpt>
      <trkpt lat="47.02952" lon="6.96504">
        <ele>1099.26</ele>
        <time>2020-07-04T09:00:15.178Z</time>
      </trkpt>
      <trkpt lat="47.02969" lon="6.96511">
        <ele>1101.22</ele>
        <time>2020-07-04T09:00:26.104Z</time>
      </trkpt>
      <trkpt lat="47.03004" lon="6.96518">
        <ele>1109.37</ele>
        <time>2020-07-04T09:00:55.050Z</time>
      </trkpt>
      <trkpt lat="47.03025" lon="6.96523">
        <ele>1113.51</ele>
        <time>2020-07-04T09:01:12.484Z</time>
      </trkpt>
      <trkpt lat="47.03043" lon="6.96524">
        <ele>1117.06</ele>
        <time>2020-07-04T09:01:27.245Z</time>
      </trkpt>
      <trkpt lat="47.03063" lon="6.96525">
        <ele>1120.61</ele>
        <time>2020-07-04T09:01:43.643Z</time>
      </trkpt>
      <trkpt lat="47.03042" lon="6.96495">
        <ele>1121.19</ele>
        <time>2020-07-04T09:01:51.249Z</time>
      </trkpt>
      <trkpt lat="47.03042" lon="6.96494">
        <ele>1121.19</ele>
        <time>2020-07-04T09:01:51.394Z</time>
      </trkpt>
      <trkpt lat="47.03034" lon="6.96483">
        <ele>1121.78</ele>
        <time>2020-07-04T09:01:55.571Z</time>
      </trkpt>
      <trkpt lat="47.03022" lon="6.96464">
        <ele>1122.51</ele>
        <time>2020-07-04T09:02:01.608Z</time>
      </trkpt>
      <trkpt lat="47.03017" lon="6.96454">
        <ele>1122.93</ele>
        <time>2020-07-04T09:02:04.742Z</time>
      </trkpt>
      <trkpt lat="47.03013" lon="6.96444">
        <ele>1123.41</ele>
        <time>2020-07-04T09:02:07.900Z</time>
      </trkpt>
      <trkpt lat="47.03006" lon="6.96425">
        <ele>1124.03</ele>
        <time>2020-07-04T09:02:12.992Z</time>
      </trkpt>
      <trkpt lat="47.02994" lon="6.96388">
        <ele>1123.66</ele>
        <time>2020-07-04T09:02:17.187Z</time>
      </trkpt>
      <trkpt lat="47.02986" lon="6.96363">
        <ele>1124.89</ele>
        <time>2020-07-04T09:02:24.961Z</time>
      </trkpt>
      <trkpt lat="47.02984" lon="6.96351">
        <ele>1125.47</ele>
        <time>2020-07-04T09:02:28.531Z</time>
      </trkpt>
      <trkpt lat="47.02983" lon="6.9634">
        <ele>1125.79</ele>
        <time>2020-07-04T09:02:31.154Z</time>
      </trkpt>
      <trkpt lat="47.02982" lon="6.96306">
        <ele>1128.06</ele>
        <time>2020-07-04T09:02:43.708Z</time>
      </trkpt>
      <trkpt lat="47.02982" lon="6.96292">
        <ele>1129.01</ele>
        <time>2020-07-04T09:02:48.957Z</time>
      </trkpt>
      <trkpt lat="47.02983" lon="6.9629">
        <ele>1129.14</ele>
        <time>2020-07-04T09:02:49.720Z</time>
      </trkpt>
      <trkpt lat="47.02983" lon="6.96288">
        <ele>1129.06</ele>
        <time>2020-07-04T09:02:49.849Z</time>
      </trkpt>
      <trkpt lat="47.02988" lon="6.96298">
        <ele>1129.76</ele>
        <time>2020-07-04T09:02:53.850Z</time>
      </trkpt>
      <trkpt lat="47.02992" lon="6.96306">
        <ele>1130.35</ele>
        <time>2020-07-04T09:02:57.173Z</time>
      </trkpt>
      <trkpt lat="47.03008" lon="6.96335">
        <ele>1132.45</ele>
        <time>2020-07-04T09:03:09.183Z</time>
      </trkpt>
      <trkpt lat="47.03017" lon="6.96349">
        <ele>1133.62</ele>
        <time>2020-07-04T09:03:15.740Z</time>
      </trkpt>
      <trkpt lat="47.03016" lon="6.96349">
        <ele>1133.62</ele>
        <time>2020-07-04T09:03:15.953Z</time>
      </trkpt>
      <trkpt lat="47.03027" lon="6.96366">
        <ele>1134.79</ele>
        <time>2020-07-04T09:03:22.953Z</time>
      </trkpt>
      <trkpt lat="47.03037" lon="6.9638">
        <ele>1135.77</ele>
        <time>2020-07-04T09:03:28.903Z</time>
      </trkpt>
      <trkpt lat="47.03046" lon="6.96388">
        <ele>1136.79</ele>
        <time>2020-07-04T09:03:34.548Z</time>
      </trkpt>
      <trkpt lat="47.03064" lon="6.96402">
        <ele>1138.57</ele>
        <time>2020-07-04T09:03:44.570Z</time>
      </trkpt>
      <trkpt lat="47.03073" lon="6.96409">
        <ele>1139.38</ele>
        <time>2020-07-04T09:03:49.261Z</time>
      </trkpt>
      <trkpt lat="47.03101" lon="6.96439">
        <ele>1142.28</ele>
        <time>2020-07-04T09:04:05.783Z</time>
      </trkpt>
      <trkpt lat="47.03131" lon="6.96466">
        <ele>1145.37</ele>
        <time>2020-07-04T09:04:23.161Z</time>
      </trkpt>
      <trkpt lat="47.03177" lon="6.96511">
        <ele>1149.92</ele>
        <time>2020-07-04T09:04:49.212Z</time>
      </trkpt>
      <trkpt lat="47.03202" lon="6.96534">
        <ele>1151.56</ele>
        <time>2020-07-04T09:05:00.589Z</time>
      </trkpt>
      <trkpt lat="47.03217" lon="6.96548">
        <ele>1151.97</ele>
        <time>2020-07-04T09:05:05.378Z</time>
      </trkpt>
      <trkpt lat="47.03237" lon="6.96562">
        <ele>1152.45</ele>
        <time>2020-07-04T09:05:11.251Z</time>
      </trkpt>
      <trkpt lat="47.03271" lon="6.9658">
        <ele>1152.59</ele>
        <time>2020-07-04T09:05:19.213Z</time>
      </trkpt>
      <trkpt lat="47.03271" lon="6.9658">
        <ele>1152.56</ele>
        <time>2020-07-04T09:05:19.213Z</time>
      </trkpt>
      <trkpt lat="47.0327" lon="6.9658">
        <ele>1152.52</ele>
        <time>2020-07-04T09:05:19.325Z</time>
      </trkpt>
      <trkpt lat="47.03271" lon="6.9658">
        <ele>1152.59</ele>
        <time>2020-07-04T09:05:19.752Z</time>
      </trkpt>
      <trkpt lat="47.03281" lon="6.96586">
        <ele>1152.53</ele>
        <time>2020-07-04T09:05:21.867Z</time>
      </trkpt>
      <trkpt lat="47.033" lon="6.966">
        <ele>1152.74</ele>
        <time>2020-07-04T09:05:26.834Z</time>
      </trkpt>
      <trkpt lat="47.03312" lon="6.96608">
        <ele>1152.96</ele>
        <time>2020-07-04T09:05:30.139Z</time>
      </trkpt>
      <trkpt lat="47.03323" lon="6.96618">
        <ele>1153.36</ele>
        <time>2020-07-04T09:05:33.974Z</time>
      </trkpt>
      <trkpt lat="47.03335" lon="6.96628">
        <ele>1154.17</ele>
        <time>2020-07-04T09:05:39.411Z</time>
      </trkpt>
      <trkpt lat="47.03348" lon="6.9664">
        <ele>1154.88</ele>
        <time>2020-07-04T09:05:44.979Z</time>
      </trkpt>
      <trkpt lat="47.03394" lon="6.96687">
        <ele>1156.51</ele>
        <time>2020-07-04T09:06:01.211Z</time>
      </trkpt>
      <trkpt lat="47.03434" lon="6.96725">
        <ele>1157.17</ele>
        <time>2020-07-04T09:06:12.806Z</time>
      </trkpt>
      <trkpt lat="47.03456" lon="6.96745">
        <ele>1157.25</ele>
        <time>2020-07-04T09:06:18.464Z</time>
      </trkpt>
      <trkpt lat="47.03488" lon="6.96774">
        <ele>1158.22</ele>
        <time>2020-07-04T09:06:28.927Z</time>
      </trkpt>
      <trkpt lat="47.03507" lon="6.96791">
        <ele>1158.99</ele>
        <time>2020-07-04T09:06:35.848Z</time>
      </trkpt>
      <trkpt lat="47.0353" lon="6.9681">
        <ele>1159.69</ele>
        <time>2020-07-04T09:06:43.255Z</time>
      </trkpt>
      <trkpt lat="47.03538" lon="6.96817">
        <ele>1159.81</ele>
        <time>2020-07-04T09:06:45.499Z</time>
      </trkpt>
      <trkpt lat="47.03555" lon="6.96826">
        <ele>1161.33</ele>
        <time>2020-07-04T09:06:54.144Z</time>
      </trkpt>
      <trkpt lat="47.03555" lon="6.96825">
        <ele>1161.33</ele>
        <time>2020-07-04T09:06:54.289Z</time>
      </trkpt>
      <trkpt lat="47.03576" lon="6.96836">
        <ele>1161.33</ele>
        <time>2020-07-04T09:06:59.055Z</time>
      </trkpt>
      <trkpt lat="47.03605" lon="6.96852">
        <ele>1162.84</ele>
        <time>2020-07-04T09:07:10.435Z</time>
      </trkpt>
      <trkpt lat="47.03652" lon="6.9688">
        <ele>1165.39</ele>
        <time>2020-07-04T09:07:29.313Z</time>
      </trkpt>
      <trkpt lat="47.03686" lon="6.96899">
        <ele>1166.58</ele>
        <time>2020-07-04T09:07:40.348Z</time>
      </trkpt>
      <trkpt lat="47.03707" lon="6.9691">
        <ele>1167.2</ele>
        <time>2020-07-04T09:07:46.704Z</time>
      </trkpt>
      <trkpt lat="47.03821" lon="6.96973">
        <ele>1169.03</ele>
        <time>2020-07-04T09:08:16.714Z</time>
      </trkpt>
      <trkpt lat="47.03859" lon="6.96995">
        <ele>1168.59</ele>
        <time>2020-07-04T09:08:23.049Z</time>
      </trkpt>
      <trkpt lat="47.03882" lon="6.97008">
        <ele>1168.2</ele>
        <time>2020-07-04T09:08:26.633Z</time>
      </trkpt>
      <trkpt lat="47.03882" lon="6.97007">
        <ele>1168.2</ele>
        <time>2020-07-04T09:08:26.778Z</time>
      </trkpt>
      <trkpt lat="47.03919" lon="6.97028">
        <ele>1167.82</ele>
        <time>2020-07-04T09:08:33.028Z</time>
      </trkpt>
      <trkpt lat="47.03928" lon="6.97033">
        <ele>1167.61</ele>
        <time>2020-07-04T09:08:34.331Z</time>
      </trkpt>
      <trkpt lat="47.03938" lon="6.9704">
        <ele>1167.1</ele>
        <time>2020-07-04T09:08:35.505Z</time>
      </trkpt>
      <trkpt lat="47.03953" lon="6.97053">
        <ele>1166.41</ele>
        <time>2020-07-04T09:08:37.464Z</time>
      </trkpt>
      <trkpt lat="47.03967" lon="6.97065">
        <ele>1166.41</ele>
        <time>2020-07-04T09:08:40.853Z</time>
      </trkpt>
      <trkpt lat="47.03985" lon="6.97081">
        <ele>1164.92</ele>
        <time>2020-07-04T09:08:42.932Z</time>
      </trkpt>
      <trkpt lat="47.04023" lon="6.97115">
        <ele>1163.78</ele>
        <time>2020-07-04T09:08:48.706Z</time>
      </trkpt>
      <trkpt lat="47.04047" lon="6.97138">
        <ele>1163</ele>
        <time>2020-07-04T09:08:52.362Z</time>
      </trkpt>
      <trkpt lat="47.04052" lon="6.97143">
        <ele>1162.95</ele>
        <time>2020-07-04T09:08:53.332Z</time>
      </trkpt>
      <trkpt lat="47.04058" lon="6.97149">
        <ele>1162.69</ele>
        <time>2020-07-04T09:08:54.179Z</time>
      </trkpt>
      <trkpt lat="47.04064" lon="6.97157">
        <ele>1162.6</ele>
        <time>2020-07-04T09:08:55.431Z</time>
      </trkpt>
      <trkpt lat="47.04112" lon="6.97224">
        <ele>1161.52</ele>
        <time>2020-07-04T09:09:05.008Z</time>
      </trkpt>
      <trkpt lat="47.04129" lon="6.97247">
        <ele>1161.49</ele>
        <time>2020-07-04T09:09:09.824Z</time>
      </trkpt>
      <trkpt lat="47.0415" lon="6.97272">
        <ele>1162.05</ele>
        <time>2020-07-04T09:09:16.914Z</time>
      </trkpt>
      <trkpt lat="47.0416" lon="6.97283">
        <ele>1162.28</ele>
        <time>2020-07-04T09:09:20.108Z</time>
      </trkpt>
      <trkpt lat="47.0416" lon="6.97282">
        <ele>1162.28</ele>
        <time>2020-07-04T09:09:20.253Z</time>
      </trkpt>
      <trkpt lat="47.04161" lon="6.97284">
        <ele>1162.5</ele>
        <time>2020-07-04T09:09:21.575Z</time>
      </trkpt>
      <trkpt lat="47.04173" lon="6.97295">
        <ele>1162.77</ele>
        <time>2020-07-04T09:09:25.218Z</time>
      </trkpt>
      <trkpt lat="47.04184" lon="6.97304">
        <ele>1162.91</ele>
        <time>2020-07-04T09:09:28.196Z</time>
      </trkpt>
      <trkpt lat="47.04212" lon="6.97324">
        <ele>1162.66</ele>
        <time>2020-07-04T09:09:33.207Z</time>
      </trkpt>
      <trkpt lat="47.04239" lon="6.97343">
        <ele>1161.62</ele>
        <time>2020-07-04T09:09:36.738Z</time>
      </trkpt>
      <trkpt lat="47.04265" lon="6.9736">
        <ele>1160.14</ele>
        <time>2020-07-04T09:09:39.600Z</time>
      </trkpt>
      <trkpt lat="47.04287" lon="6.97374">
        <ele>1158.89</ele>
        <time>2020-07-04T09:09:42.009Z</time>
      </trkpt>
      <trkpt lat="47.04316" lon="6.97391">
        <ele>1157.8</ele>
        <time>2020-07-04T09:09:45.685Z</time>
      </trkpt>
      <trkpt lat="47.04342" lon="6.97404">
        <ele>1156.74</ele>
        <time>2020-07-04T09:09:48.803Z</time>
      </trkpt>
      <trkpt lat="47.04365" lon="6.97413">
        <ele>1155.77</ele>
        <time>2020-07-04T09:09:51.451Z</time>
      </trkpt>
      <trkpt lat="47.04382" lon="6.97421">
        <ele>1155.01</ele>
        <time>2020-07-04T09:09:53.403Z</time>
      </trkpt>
      <trkpt lat="47.04396" lon="6.97428">
        <ele>1154.48</ele>
        <time>2020-07-04T09:09:55.128Z</time>
      </trkpt>
      <trkpt lat="47.04407" lon="6.97435">
        <ele>1154.18</ele>
        <time>2020-07-04T09:09:56.694Z</time>
      </trkpt>
      <trkpt lat="47.04421" lon="6.97445">
        <ele>1153.3</ele>
        <time>2020-07-04T09:09:58.202Z</time>
      </trkpt>
      <trkpt lat="47.04447" lon="6.97465">
        <ele>1151.37</ele>
        <time>2020-07-04T09:10:00.844Z</time>
      </trkpt>
      <trkpt lat="47.04485" lon="6.97493">
        <ele>1149.46</ele>
        <time>2020-07-04T09:10:05.394Z</time>
      </trkpt>
      <trkpt lat="47.04493" lon="6.97498">
        <ele>1149.15</ele>
        <time>2020-07-04T09:10:06.410Z</time>
      </trkpt>
      <trkpt lat="47.04508" lon="6.97509">
        <ele>1148.36</ele>
        <time>2020-07-04T09:10:08.170Z</time>
      </trkpt>
      <trkpt lat="47.04542" lon="6.97534">
        <ele>1146.64</ele>
        <time>2020-07-04T09:10:12.228Z</time>
      </trkpt>
      <trkpt lat="47.04607" lon="6.97581">
        <ele>1144.19</ele>
        <time>2020-07-04T09:10:20.853Z</time>
      </trkpt>
      <trkpt lat="47.04619" lon="6.97589">
        <ele>1143.84</ele>
        <time>2020-07-04T09:10:22.545Z</time>
      </trkpt>
      <trkpt lat="47.04631" lon="6.97594">
        <ele>1143.39</ele>
        <time>2020-07-04T09:10:23.997Z</time>
      </trkpt>
      <trkpt lat="47.04633" lon="6.97595">
        <ele>1143.14</ele>
        <time>2020-07-04T09:10:24.203Z</time>
      </trkpt>
      <trkpt lat="47.04632" lon="6.97594">
        <ele>1143.14</ele>
        <time>2020-07-04T09:10:24.460Z</time>
      </trkpt>
      <trkpt lat="47.04646" lon="6.97599">
        <ele>1142.88</ele>
        <time>2020-07-04T09:10:26.499Z</time>
      </trkpt>
      <trkpt lat="47.04679" lon="6.97608">
        <ele>1141.56</ele>
        <time>2020-07-04T09:10:30.283Z</time>
      </trkpt>
      <trkpt lat="47.04691" lon="6.97611">
        <ele>1140.92</ele>
        <time>2020-07-04T09:10:31.501Z</time>
      </trkpt>
      <trkpt lat="47.04716" lon="6.97619">
        <ele>1139.65</ele>
        <time>2020-07-04T09:10:34.127Z</time>
      </trkpt>
      <trkpt lat="47.04728" lon="6.97623">
        <ele>1139.13</ele>
        <time>2020-07-04T09:10:35.477Z</time>
      </trkpt>
      <trkpt lat="47.04742" lon="6.97629">
        <ele>1138.57</ele>
        <time>2020-07-04T09:10:37.136Z</time>
      </trkpt>
      <trkpt lat="47.0485" lon="6.97676">
        <ele>1137.74</ele>
        <time>2020-07-04T09:10:55.424Z</time>
      </trkpt>
      <trkpt lat="47.04742" lon="6.97629">
        <ele>1138.57</ele>
        <time>2020-07-04T09:11:21.088Z</time>
      </trkpt>
      <trkpt lat="47.04728" lon="6.97623">
        <ele>1139.13</ele>
        <time>2020-07-04T09:11:25.868Z</time>
      </trkpt>
      <trkpt lat="47.04716" lon="6.97619">
        <ele>1139.65</ele>
        <time>2020-07-04T09:11:30.133Z</time>
      </trkpt>
      <trkpt lat="47.04691" lon="6.97611">
        <ele>1140.92</ele>
        <time>2020-07-04T09:11:39.615Z</time>
      </trkpt>
      <trkpt lat="47.04679" lon="6.97608">
        <ele>1141.56</ele>
        <time>2020-07-04T09:11:44.215Z</time>
      </trkpt>
      <trkpt lat="47.04657" lon="6.97602">
        <ele>1142.22</ele>
        <time>2020-07-04T09:11:50.729Z</time>
      </trkpt>
      <trkpt lat="47.04656" lon="6.97601">
        <ele>1142.22</ele>
        <time>2020-07-04T09:11:50.986Z</time>
      </trkpt>
      <trkpt lat="47.04646" lon="6.97599">
        <ele>1142.88</ele>
        <time>2020-07-04T09:11:55.156Z</time>
      </trkpt>
      <trkpt lat="47.04631" lon="6.97594">
        <ele>1143.39</ele>
        <time>2020-07-04T09:11:59.849Z</time>
      </trkpt>
      <trkpt lat="47.04619" lon="6.97589">
        <ele>1143.84</ele>
        <time>2020-07-04T09:12:03.807Z</time>
      </trkpt>
      <trkpt lat="47.04607" lon="6.97581">
        <ele>1144.19</ele>
        <time>2020-07-04T09:12:07.507Z</time>
      </trkpt>
      <trkpt lat="47.04542" lon="6.97534">
        <ele>1146.64</ele>
        <time>2020-07-04T09:12:29.808Z</time>
      </trkpt>
      <trkpt lat="47.04508" lon="6.97509">
        <ele>1148.36</ele>
        <time>2020-07-04T09:12:43.507Z</time>
      </trkpt>
      <trkpt lat="47.04493" lon="6.97498">
        <ele>1149.15</ele>
        <time>2020-07-04T09:12:49.620Z</time>
      </trkpt>
      <trkpt lat="47.04485" lon="6.97493">
        <ele>1149.46</ele>
        <time>2020-07-04T09:12:52.364Z</time>
      </trkpt>
      <trkpt lat="47.04447" lon="6.97465">
        <ele>1151.37</ele>
        <time>2020-07-04T09:13:07.650Z</time>
      </trkpt>
      <trkpt lat="47.04421" lon="6.97445">
        <ele>1153.3</ele>
        <time>2020-07-04T09:13:19.810Z</time>
      </trkpt>
      <trkpt lat="47.04407" lon="6.97435">
        <ele>1154.18</ele>
        <time>2020-07-04T09:13:25.852Z</time>
      </trkpt>
      <trkpt lat="47.04396" lon="6.97428">
        <ele>1154.48</ele>
        <time>2020-07-04T09:13:29.157Z</time>
      </trkpt>
      <trkpt lat="47.04382" lon="6.97421">
        <ele>1155.01</ele>
        <time>2020-07-04T09:13:33.834Z</time>
      </trkpt>
      <trkpt lat="47.04365" lon="6.97413">
        <ele>1155.77</ele>
        <time>2020-07-04T09:13:40.051Z</time>
      </trkpt>
      <trkpt lat="47.04342" lon="6.97404">
        <ele>1156.74</ele>
        <time>2020-07-04T09:13:48.120Z</time>
      </trkpt>
      <trkpt lat="47.04316" lon="6.97391">
        <ele>1157.8</ele>
        <time>2020-07-04T09:13:57.146Z</time>
      </trkpt>
      <trkpt lat="47.04287" lon="6.97374">
        <ele>1158.89</ele>
        <time>2020-07-04T09:14:06.899Z</time>
      </trkpt>
      <trkpt lat="47.04265" lon="6.9736">
        <ele>1160.14</ele>
        <time>2020-07-04T09:14:15.932Z</time>
      </trkpt>
      <trkpt lat="47.04239" lon="6.97343">
        <ele>1161.62</ele>
        <time>2020-07-04T09:14:26.646Z</time>
      </trkpt>
      <trkpt lat="47.04212" lon="6.97324">
        <ele>1162.66</ele>
        <time>2020-07-04T09:14:35.976Z</time>
      </trkpt>
      <trkpt lat="47.04184" lon="6.97304">
        <ele>1162.91</ele>
        <time>2020-07-04T09:14:43.117Z</time>
      </trkpt>
      <trkpt lat="47.04176" lon="6.97298">
        <ele>1162.84</ele>
        <time>2020-07-04T09:14:44.567Z</time>
      </trkpt>
      <trkpt lat="47.04176" lon="6.97297">
        <ele>1162.84</ele>
        <time>2020-07-04T09:14:44.712Z</time>
      </trkpt>
      <trkpt lat="47.04173" lon="6.97295">
        <ele>1162.77</ele>
        <time>2020-07-04T09:14:45.161Z</time>
      </trkpt>
      <trkpt lat="47.04161" lon="6.97284">
        <ele>1162.5</ele>
        <time>2020-07-04T09:14:47.139Z</time>
      </trkpt>
      <trkpt lat="47.0415" lon="6.97272">
        <ele>1162.05</ele>
        <time>2020-07-04T09:14:48.787Z</time>
      </trkpt>
      <trkpt lat="47.04129" lon="6.97247">
        <ele>1161.49</ele>
        <time>2020-07-04T09:14:52.496Z</time>
      </trkpt>
      <trkpt lat="47.04112" lon="6.97224">
        <ele>1161.52</ele>
        <time>2020-07-04T09:14:57.467Z</time>
      </trkpt>
      <trkpt lat="47.04064" lon="6.97157">
        <ele>1162.6</ele>
        <time>2020-07-04T09:15:14.012Z</time>
      </trkpt>
      <trkpt lat="47.04058" lon="6.97149">
        <ele>1162.69</ele>
        <time>2020-07-04T09:15:15.929Z</time>
      </trkpt>
      <trkpt lat="47.04052" lon="6.97143">
        <ele>1162.95</ele>
        <time>2020-07-04T09:15:18.225Z</time>
      </trkpt>
      <trkpt lat="47.04047" lon="6.97138">
        <ele>1163</ele>
        <time>2020-07-04T09:15:19.616Z</time>
      </trkpt>
      <trkpt lat="47.04023" lon="6.97115">
        <ele>1163.78</ele>
        <time>2020-07-04T09:15:27.727Z</time>
      </trkpt>
      <trkpt lat="47.03985" lon="6.97081">
        <ele>1164.92</ele>
        <time>2020-07-04T09:15:40.081Z</time>
      </trkpt>
      <trkpt lat="47.03965" lon="6.97064">
        <ele>1165.66</ele>
        <time>2020-07-04T09:15:47.029Z</time>
      </trkpt>
      <trkpt lat="47.03953" lon="6.97053">
        <ele>1166.41</ele>
        <time>2020-07-04T09:15:52.391Z</time>
      </trkpt>
      <trkpt lat="47.03938" lon="6.9704">
        <ele>1167.1</ele>
        <time>2020-07-04T09:15:58.199Z</time>
      </trkpt>
      <trkpt lat="47.03928" lon="6.97033">
        <ele>1167.61</ele>
        <time>2020-07-04T09:16:02.211Z</time>
      </trkpt>
      <trkpt lat="47.03919" lon="6.97028">
        <ele>1167.82</ele>
        <time>2020-07-04T09:16:04.766Z</time>
      </trkpt>
      <trkpt lat="47.03859" lon="6.96995">
        <ele>1168.59</ele>
        <time>2020-07-04T09:16:20.063Z</time>
      </trkpt>
      <trkpt lat="47.03821" lon="6.96973">
        <ele>1169.03</ele>
        <time>2020-07-04T09:16:29.692Z</time>
      </trkpt>
      <trkpt lat="47.03707" lon="6.9691">
        <ele>1167.2</ele>
        <time>2020-07-04T09:16:47.583Z</time>
      </trkpt>
      <trkpt lat="47.03686" lon="6.96899">
        <ele>1166.58</ele>
        <time>2020-07-04T09:16:50.408Z</time>
      </trkpt>
      <trkpt lat="47.03652" lon="6.9688">
        <ele>1165.39</ele>
        <time>2020-07-04T09:16:54.787Z</time>
      </trkpt>
      <trkpt lat="47.03605" lon="6.96852">
        <ele>1162.84</ele>
        <time>2020-07-04T09:16:59.964Z</time>
      </trkpt>
      <trkpt lat="47.03575" lon="6.96837">
        <ele>1161.33</ele>
        <time>2020-07-04T09:17:03.274Z</time>
      </trkpt>
      <trkpt lat="47.03575" lon="6.96836">
        <ele>1161.33</ele>
        <time>2020-07-04T09:17:03.419Z</time>
      </trkpt>
      <trkpt lat="47.03538" lon="6.96817">
        <ele>1159.81</ele>
        <time>2020-07-04T09:17:07.861Z</time>
      </trkpt>
      <trkpt lat="47.0353" lon="6.9681">
        <ele>1159.69</ele>
        <time>2020-07-04T09:17:09.267Z</time>
      </trkpt>
      <trkpt lat="47.03507" lon="6.96791">
        <ele>1158.99</ele>
        <time>2020-07-04T09:17:12.658Z</time>
      </trkpt>
      <trkpt lat="47.03488" lon="6.96774">
        <ele>1158.22</ele>
        <time>2020-07-04T09:17:15.286Z</time>
      </trkpt>
      <trkpt lat="47.03456" lon="6.96745">
        <ele>1157.25</ele>
        <time>2020-07-04T09:17:20.156Z</time>
      </trkpt>
      <trkpt lat="47.03434" lon="6.96725">
        <ele>1157.17</ele>
        <time>2020-07-04T09:17:25.406Z</time>
      </trkpt>
      <trkpt lat="47.03394" lon="6.96687">
        <ele>1156.51</ele>
        <time>2020-07-04T09:17:32.508Z</time>
      </trkpt>
      <trkpt lat="47.03348" lon="6.9664">
        <ele>1154.88</ele>
        <time>2020-07-04T09:17:39.515Z</time>
      </trkpt>
      <trkpt lat="47.03335" lon="6.96628">
        <ele>1154.17</ele>
        <time>2020-07-04T09:17:41.139Z</time>
      </trkpt>
      <trkpt lat="47.03323" lon="6.96618">
        <ele>1153.36</ele>
        <time>2020-07-04T09:17:42.452Z</time>
      </trkpt>
      <trkpt lat="47.03312" lon="6.96608">
        <ele>1152.96</ele>
        <time>2020-07-04T09:17:44.038Z</time>
      </trkpt>
      <trkpt lat="47.033" lon="6.966">
        <ele>1152.74</ele>
        <time>2020-07-04T09:17:45.935Z</time>
      </trkpt>
      <trkpt lat="47.03281" lon="6.96586">
        <ele>1152.53</ele>
        <time>2020-07-04T09:17:49.271Z</time>
      </trkpt>
      <trkpt lat="47.03271" lon="6.9658">
        <ele>1152.59</ele>
        <time>2020-07-04T09:17:51.689Z</time>
      </trkpt>
      <trkpt lat="47.03237" lon="6.96562">
        <ele>1152.45</ele>
        <time>2020-07-04T09:17:58.938Z</time>
      </trkpt>
      <trkpt lat="47.03224" lon="6.96552">
        <ele>1152.21</ele>
        <time>2020-07-04T09:18:01.059Z</time>
      </trkpt>
      <trkpt lat="47.03223" lon="6.96552">
        <ele>1152.21</ele>
        <time>2020-07-04T09:18:01.272Z</time>
      </trkpt>
      <trkpt lat="47.03217" lon="6.96548">
        <ele>1151.97</ele>
        <time>2020-07-04T09:18:02.036Z</time>
      </trkpt>
      <trkpt lat="47.03202" lon="6.96534">
        <ele>1151.56</ele>
        <time>2020-07-04T09:18:04.409Z</time>
      </trkpt>
      <trkpt lat="47.03177" lon="6.96511">
        <ele>1149.92</ele>
        <time>2020-07-04T09:18:07.289Z</time>
      </trkpt>
      <trkpt lat="47.03131" lon="6.96466">
        <ele>1145.37</ele>
        <time>2020-07-04T09:18:12.683Z</time>
      </trkpt>
      <trkpt lat="47.03101" lon="6.96439">
        <ele>1142.28</ele>
        <time>2020-07-04T09:18:16.116Z</time>
      </trkpt>
      <trkpt lat="47.03073" lon="6.96409">
        <ele>1139.38</ele>
        <time>2020-07-04T09:18:19.499Z</time>
      </trkpt>
      <trkpt lat="47.03064" lon="6.96402">
        <ele>1138.57</ele>
        <time>2020-07-04T09:18:20.493Z</time>
      </trkpt>
      <trkpt lat="47.03046" lon="6.96388">
        <ele>1136.79</ele>
        <time>2020-07-04T09:18:22.481Z</time>
      </trkpt>
      <trkpt lat="47.03037" lon="6.9638">
        <ele>1135.77</ele>
        <time>2020-07-04T09:18:23.507Z</time>
      </trkpt>
      <trkpt lat="47.03027" lon="6.96366">
        <ele>1134.79</ele>
        <time>2020-07-04T09:18:24.856Z</time>
      </trkpt>
      <trkpt lat="47.03008" lon="6.96335">
        <ele>1132.45</ele>
        <time>2020-07-04T09:18:27.628Z</time>
      </trkpt>
      <trkpt lat="47.02992" lon="6.96306">
        <ele>1130.35</ele>
        <time>2020-07-04T09:18:30.109Z</time>
      </trkpt>
      <trkpt lat="47.02988" lon="6.96298">
        <ele>1129.76</ele>
        <time>2020-07-04T09:18:30.769Z</time>
      </trkpt>
      <trkpt lat="47.02983" lon="6.96288">
        <ele>1129.06</ele>
        <time>2020-07-04T09:18:31.594Z</time>
      </trkpt>
      <trkpt lat="47.02965" lon="6.96252">
        <ele>1126.58</ele>
        <time>2020-07-04T09:18:34.563Z</time>
      </trkpt>
      <trkpt lat="47.02952" lon="6.96226">
        <ele>1124.92</ele>
        <time>2020-07-04T09:18:36.707Z</time>
      </trkpt>
      <trkpt lat="47.02943" lon="6.96205">
        <ele>1123.41</ele>
        <time>2020-07-04T09:18:38.357Z</time>
      </trkpt>
      <trkpt lat="47.02939" lon="6.96196">
        <ele>1122.85</ele>
        <time>2020-07-04T09:18:39.071Z</time>
      </trkpt>
      <trkpt lat="47.02932" lon="6.96175">
        <ele>1121.24</ele>
        <time>2020-07-04T09:18:40.626Z</time>
      </trkpt>
      <trkpt lat="47.02932" lon="6.96174">
        <ele>1121.24</ele>
        <time>2020-07-04T09:18:40.771Z</time>
      </trkpt>
      <trkpt lat="47.0292" lon="6.96143">
        <ele>1119.62</ele>
        <time>2020-07-04T09:18:42.943Z</time>
      </trkpt>
      <trkpt lat="47.02907" lon="6.96106">
        <ele>1117.14</ele>
        <time>2020-07-04T09:18:45.711Z</time>
      </trkpt>
      <trkpt lat="47.02901" lon="6.96092">
        <ele>1116.32</ele>
        <time>2020-07-04T09:18:46.811Z</time>
      </trkpt>
      <trkpt lat="47.02895" lon="6.96081">
        <ele>1115.63</ele>
        <time>2020-07-04T09:18:47.748Z</time>
      </trkpt>
      <trkpt lat="47.02887" lon="6.96068">
        <ele>1114.6</ele>
        <time>2020-07-04T09:18:48.912Z</time>
      </trkpt>
      <trkpt lat="47.02866" lon="6.96035">
        <ele>1112.09</ele>
        <time>2020-07-04T09:18:51.915Z</time>
      </trkpt>
      <trkpt lat="47.02845" lon="6.96002">
        <ele>1109.33</ele>
        <time>2020-07-04T09:18:54.917Z</time>
      </trkpt>
      <trkpt lat="47.02836" lon="6.95986">
        <ele>1108.06</ele>
        <time>2020-07-04T09:18:56.296Z</time>
      </trkpt>
      <trkpt lat="47.02831" lon="6.95975">
        <ele>1107.47</ele>
        <time>2020-07-04T09:18:57.109Z</time>
      </trkpt>
      <trkpt lat="47.02823" lon="6.95958">
        <ele>1106.37</ele>
        <time>2020-07-04T09:18:58.483Z</time>
      </trkpt>
      <trkpt lat="47.02811" lon="6.95932">
        <ele>1104.47</ele>
        <time>2020-07-04T09:19:00.571Z</time>
      </trkpt>
      <trkpt lat="47.02808" lon="6.95925">
        <ele>1103.58</ele>
        <time>2020-07-04T09:19:01.121Z</time>
      </trkpt>
      <trkpt lat="47.02808" lon="6.95924">
        <ele>1103.58</ele>
        <time>2020-07-04T09:19:01.266Z</time>
      </trkpt>
      <trkpt lat="47.02798" lon="6.95904">
        <ele>1102.68</ele>
        <time>2020-07-04T09:19:02.948Z</time>
      </trkpt>
      <trkpt lat="47.0279" lon="6.95882">
        <ele>1101.32</ele>
        <time>2020-07-04T09:19:04.607Z</time>
      </trkpt>
      <trkpt lat="47.02786" lon="6.95871">
        <ele>1100.59</ele>
        <time>2020-07-04T09:19:05.436Z</time>
      </trkpt>
      <trkpt lat="47.02781" lon="6.95857">
        <ele>1099.76</ele>
        <time>2020-07-04T09:19:06.487Z</time>
      </trkpt>
      <trkpt lat="47.02779" lon="6.95849">
        <ele>1099.32</ele>
        <time>2020-07-04T09:19:07.054Z</time>
      </trkpt>
      <trkpt lat="47.02777" lon="6.95851">
        <ele>1099.36</ele>
        <time>2020-07-04T09:19:07.660Z</time>
      </trkpt>
      <trkpt lat="47.02776" lon="6.95854">
        <ele>1099.35</ele>
        <time>2020-07-04T09:19:08.113Z</time>
      </trkpt>
      <trkpt lat="47.02776" lon="6.95861">
        <ele>1098.8</ele>
        <time>2020-07-04T09:19:08.578Z</time>
      </trkpt>
      <trkpt lat="47.02776" lon="6.9587">
        <ele>1098.6</ele>
        <time>2020-07-04T09:19:09.317Z</time>
      </trkpt>
      <trkpt lat="47.0278" lon="6.95907">
        <ele>1097.01</ele>
        <time>2020-07-04T09:19:11.678Z</time>
      </trkpt>
      <trkpt lat="47.02781" lon="6.9592">
        <ele>1096.57</ele>
        <time>2020-07-04T09:19:12.596Z</time>
      </trkpt>
      <trkpt lat="47.02782" lon="6.95931">
        <ele>1096.33</ele>
        <time>2020-07-04T09:19:13.516Z</time>
      </trkpt>
      <trkpt lat="47.02782" lon="6.95933">
        <ele>1096.23</ele>
        <time>2020-07-04T09:19:13.649Z</time>
      </trkpt>
      <trkpt lat="47.02782" lon="6.95932">
        <ele>1096.23</ele>
        <time>2020-07-04T09:19:13.793Z</time>
      </trkpt>
      <trkpt lat="47.02782" lon="6.95931">
        <ele>1096.33</ele>
        <time>2020-07-04T09:19:14.352Z</time>
      </trkpt>
      <trkpt lat="47.02781" lon="6.9592">
        <ele>1096.57</ele>
        <time>2020-07-04T09:19:16.617Z</time>
      </trkpt>
      <trkpt lat="47.0278" lon="6.95907">
        <ele>1097.01</ele>
        <time>2020-07-04T09:19:19.916Z</time>
      </trkpt>
      <trkpt lat="47.02776" lon="6.9587">
        <ele>1098.6</ele>
        <time>2020-07-04T09:19:30.231Z</time>
      </trkpt>
      <trkpt lat="47.02776" lon="6.95861">
        <ele>1098.8</ele>
        <time>2020-07-04T09:19:32.089Z</time>
      </trkpt>
      <trkpt lat="47.02776" lon="6.95854">
        <ele>1099.35</ele>
        <time>2020-07-04T09:19:35.186Z</time>
      </trkpt>
      <trkpt lat="47.02777" lon="6.95851">
        <ele>1099.36</ele>
        <time>2020-07-04T09:19:35.690Z</time>
      </trkpt>
      <trkpt lat="47.02779" lon="6.95849">
        <ele>1099.32</ele>
        <time>2020-07-04T09:19:36.039Z</time>
      </trkpt>
      <trkpt lat="47.02772" lon="6.95829">
        <ele>1098.48</ele>
        <time>2020-07-04T09:19:37.544Z</time>
      </trkpt>
      <trkpt lat="47.02772" lon="6.95828">
        <ele>1098.48</ele>
        <time>2020-07-04T09:19:37.689Z</time>
      </trkpt>
      <trkpt lat="47.02768" lon="6.95815">
        <ele>1097.64</ele>
        <time>2020-07-04T09:19:38.637Z</time>
      </trkpt>
      <trkpt lat="47.02761" lon="6.95791">
        <ele>1096.73</ele>
        <time>2020-07-04T09:19:40.440Z</time>
      </trkpt>
      <trkpt lat="47.02756" lon="6.95779">
        <ele>1095.83</ele>
        <time>2020-07-04T09:19:41.375Z</time>
      </trkpt>
      <trkpt lat="47.02749" lon="6.95765">
        <ele>1095</ele>
        <time>2020-07-04T09:19:42.530Z</time>
      </trkpt>
      <trkpt lat="47.02736" lon="6.9574">
        <ele>1093.68</ele>
        <time>2020-07-04T09:19:44.522Z</time>
      </trkpt>
      <trkpt lat="47.02723" lon="6.95718">
        <ele>1092.72</ele>
        <time>2020-07-04T09:19:46.582Z</time>
      </trkpt>
      <trkpt lat="47.02714" lon="6.95702">
        <ele>1092.05</ele>
        <time>2020-07-04T09:19:48.062Z</time>
      </trkpt>
      <trkpt lat="47.02714" lon="6.95701">
        <ele>1092.05</ele>
        <time>2020-07-04T09:19:48.207Z</time>
      </trkpt>
      <trkpt lat="47.02702" lon="6.95678">
        <ele>1091.39</ele>
        <time>2020-07-04T09:19:50.566Z</time>
      </trkpt>
      <trkpt lat="47.02689" lon="6.95655">
        <ele>1090.85</ele>
        <time>2020-07-04T09:19:53.182Z</time>
      </trkpt>
      <trkpt lat="47.02684" lon="6.95646">
        <ele>1090.63</ele>
        <time>2020-07-04T09:19:54.185Z</time>
      </trkpt>
      <trkpt lat="47.02683" lon="6.95645">
        <ele>1090.49</ele>
        <time>2020-07-04T09:19:54.303Z</time>
      </trkpt>
      <trkpt lat="47.02682" lon="6.95645">
        <ele>1090.49</ele>
        <time>2020-07-04T09:19:54.516Z</time>
      </trkpt>
      <trkpt lat="47.02676" lon="6.95635">
        <ele>1090.35</ele>
        <time>2020-07-04T09:19:55.843Z</time>
      </trkpt>
      <trkpt lat="47.02668" lon="6.95623">
        <ele>1090.1</ele>
        <time>2020-07-04T09:19:57.392Z</time>
      </trkpt>
      <trkpt lat="47.02664" lon="6.95616">
        <ele>1090.08</ele>
        <time>2020-07-04T09:19:58.652Z</time>
      </trkpt>
      <trkpt lat="47.02657" lon="6.95602">
        <ele>1089.68</ele>
        <time>2020-07-04T09:20:00.061Z</time>
      </trkpt>
      <trkpt lat="47.02658" lon="6.95599">
        <ele>1089.58</ele>
        <time>2020-07-04T09:20:00.307Z</time>
      </trkpt>
      <trkpt lat="47.02659" lon="6.95598">
        <ele>1089.63</ele>
        <time>2020-07-04T09:20:00.721Z</time>
      </trkpt>
      <trkpt lat="47.02659" lon="6.95596">
        <ele>1089.59</ele>
        <time>2020-07-04T09:20:00.890Z</time>
      </trkpt>
      <trkpt lat="47.02658" lon="6.95595">
        <ele>1089.56</ele>
        <time>2020-07-04T09:20:01.049Z</time>
      </trkpt>
      <trkpt lat="47.02644" lon="6.95569">
        <ele>1089.29</ele>
        <time>2020-07-04T09:20:04.498Z</time>
      </trkpt>
      <trkpt lat="47.02643" lon="6.95569">
        <ele>1089.29</ele>
        <time>2020-07-04T09:20:04.710Z</time>
      </trkpt>
      <trkpt lat="47.02643" lon="6.95568">
        <ele>1089.02</ele>
        <time>2020-07-04T09:20:04.777Z</time>
      </trkpt>
      <trkpt lat="47.02567" lon="6.95428">
        <ele>1083.16</ele>
        <time>2020-07-04T09:20:17.474Z</time>
      </trkpt>
      <trkpt lat="47.02552" lon="6.954">
        <ele>1082.06</ele>
        <time>2020-07-04T09:20:20.063Z</time>
      </trkpt>
      <trkpt lat="47.02547" lon="6.95402">
        <ele>1081.91</ele>
        <time>2020-07-04T09:20:20.711Z</time>
      </trkpt>
      <trkpt lat="47.02538" lon="6.95381">
        <ele>1081.27</ele>
        <time>2020-07-04T09:20:22.645Z</time>
      </trkpt>
      <trkpt lat="47.02538" lon="6.9538">
        <ele>1080.24</ele>
        <time>2020-07-04T09:20:22.711Z</time>
      </trkpt>
      <trkpt lat="47.02538" lon="6.95379">
        <ele>1080.24</ele>
        <time>2020-07-04T09:20:22.856Z</time>
      </trkpt>
      <trkpt lat="47.0252" lon="6.95347">
        <ele>1079.21</ele>
        <time>2020-07-04T09:20:26.136Z</time>
      </trkpt>
      <trkpt lat="47.02507" lon="6.95328">
        <ele>1077.81</ele>
        <time>2020-07-04T09:20:27.926Z</time>
      </trkpt>
      <trkpt lat="47.02509" lon="6.95325">
        <ele>1077.9</ele>
        <time>2020-07-04T09:20:28.780Z</time>
      </trkpt>
      <trkpt lat="47.0251" lon="6.95323">
        <ele>1077.99</ele>
        <time>2020-07-04T09:20:29.422Z</time>
      </trkpt>
      <trkpt lat="47.0251" lon="6.95319">
        <ele>1078.14</ele>
        <time>2020-07-04T09:20:30.469Z</time>
      </trkpt>
      <trkpt lat="47.0251" lon="6.95315">
        <ele>1078.36</ele>
        <time>2020-07-04T09:20:31.737Z</time>
      </trkpt>
      <trkpt lat="47.02509" lon="6.95308">
        <ele>1079.03</ele>
        <time>2020-07-04T09:20:35.732Z</time>
      </trkpt>
      <trkpt lat="47.02503" lon="6.95285">
        <ele>1080.26</ele>
        <time>2020-07-04T09:20:43.090Z</time>
      </trkpt>
      <trkpt lat="47.02501" lon="6.95271">
        <ele>1080.54</ele>
        <time>2020-07-04T09:20:45.901Z</time>
      </trkpt>
      <trkpt lat="47.025" lon="6.95263">
        <ele>1080.9</ele>
        <time>2020-07-04T09:20:48.184Z</time>
      </trkpt>
      <trkpt lat="47.025" lon="6.95262">
        <ele>1080.9</ele>
        <time>2020-07-04T09:20:48.329Z</time>
      </trkpt>
      <trkpt lat="47.025" lon="6.95258">
        <ele>1081.25</ele>
        <time>2020-07-04T09:20:50.410Z</time>
      </trkpt>
      <trkpt lat="47.025" lon="6.95242">
        <ele>1082.05</ele>
        <time>2020-07-04T09:20:55.194Z</time>
      </trkpt>
      <trkpt lat="47.02503" lon="6.95208">
        <ele>1084.16</ele>
        <time>2020-07-04T09:21:06.989Z</time>
      </trkpt>
      <trkpt lat="47.02503" lon="6.95202">
        <ele>1084.69</ele>
        <time>2020-07-04T09:21:10.164Z</time>
      </trkpt>
      <trkpt lat="47.02503" lon="6.95194">
        <ele>1085.19</ele>
        <time>2020-07-04T09:21:12.951Z</time>
      </trkpt>
      <trkpt lat="47.02499" lon="6.95158">
        <ele>1086.93</ele>
        <time>2020-07-04T09:21:23.579Z</time>
      </trkpt>
      <trkpt lat="47.02496" lon="6.95135">
        <ele>1087.76</ele>
        <time>2020-07-04T09:21:29.587Z</time>
      </trkpt>
      <trkpt lat="47.02476" lon="6.95073">
        <ele>1086.85</ele>
        <time>2020-07-04T09:21:36.095Z</time>
      </trkpt>
      <trkpt lat="47.02463" lon="6.95034">
        <ele>1086.61</ele>
        <time>2020-07-04T09:21:40.850Z</time>
      </trkpt>
      <trkpt lat="47.02453" lon="6.95007">
        <ele>1085.8</ele>
        <time>2020-07-04T09:21:43.227Z</time>
      </trkpt>
      <trkpt lat="47.02448" lon="6.94995">
        <ele>1084.81</ele>
        <time>2020-07-04T09:21:44.162Z</time>
      </trkpt>
      <trkpt lat="47.02437" lon="6.94973">
        <ele>1083.2</ele>
        <time>2020-07-04T09:21:45.977Z</time>
      </trkpt>
      <trkpt lat="47.02427" lon="6.94952">
        <ele>1081.65</ele>
        <time>2020-07-04T09:21:47.680Z</time>
      </trkpt>
      <trkpt lat="47.02415" lon="6.94933">
        <ele>1079.61</ele>
        <time>2020-07-04T09:21:49.403Z</time>
      </trkpt>
      <trkpt lat="47.02401" lon="6.94909">
        <ele>1077.29</ele>
        <time>2020-07-04T09:21:51.504Z</time>
      </trkpt>
      <trkpt lat="47.02395" lon="6.94899">
        <ele>1076.9</ele>
        <time>2020-07-04T09:21:52.494Z</time>
      </trkpt>
      <trkpt lat="47.02388" lon="6.94886">
        <ele>1076.17</ele>
        <time>2020-07-04T09:21:53.519Z</time>
      </trkpt>
      <trkpt lat="47.02381" lon="6.94876">
        <ele>1075.65</ele>
        <time>2020-07-04T09:21:54.491Z</time>
      </trkpt>
      <trkpt lat="47.02366" lon="6.94857">
        <ele>1074.6</ele>
        <time>2020-07-04T09:21:56.467Z</time>
      </trkpt>
      <trkpt lat="47.02353" lon="6.9484">
        <ele>1073.02</ele>
        <time>2020-07-04T09:21:58.166Z</time>
      </trkpt>
      <trkpt lat="47.02347" lon="6.94833">
        <ele>1072.42</ele>
        <time>2020-07-04T09:21:58.914Z</time>
      </trkpt>
      <trkpt lat="47.02321" lon="6.94807">
        <ele>1071.64</ele>
        <time>2020-07-04T09:22:03.035Z</time>
      </trkpt>
      <trkpt lat="47.02312" lon="6.94797">
        <ele>1071.43</ele>
        <time>2020-07-04T09:22:04.622Z</time>
      </trkpt>
      <trkpt lat="47.02304" lon="6.94786">
        <ele>1071.42</ele>
        <time>2020-07-04T09:22:06.920Z</time>
      </trkpt>
      <trkpt lat="47.02281" lon="6.94754">
        <ele>1070.96</ele>
        <time>2020-07-04T09:22:11.605Z</time>
      </trkpt>
      <trkpt lat="47.02281" lon="6.94753">
        <ele>1070.96</ele>
        <time>2020-07-04T09:22:11.750Z</time>
      </trkpt>
      <trkpt lat="47.02277" lon="6.94748">
        <ele>1070.5</ele>
        <time>2020-07-04T09:22:12.263Z</time>
      </trkpt>
      <trkpt lat="47.02272" lon="6.94742">
        <ele>1070.59</ele>
        <time>2020-07-04T09:22:13.836Z</time>
      </trkpt>
      <trkpt lat="47.02261" lon="6.9473">
        <ele>1070</ele>
        <time>2020-07-04T09:22:15.328Z</time>
      </trkpt>
      <trkpt lat="47.02244" lon="6.94712">
        <ele>1069.86</ele>
        <time>2020-07-04T09:22:19.369Z</time>
      </trkpt>
      <trkpt lat="47.02229" lon="6.94696">
        <ele>1069.49</ele>
        <time>2020-07-04T09:22:21.935Z</time>
      </trkpt>
      <trkpt lat="47.02223" lon="6.94688">
        <ele>1068.81</ele>
        <time>2020-07-04T09:22:22.727Z</time>
      </trkpt>
      <trkpt lat="47.02215" lon="6.94677">
        <ele>1068.01</ele>
        <time>2020-07-04T09:22:23.796Z</time>
      </trkpt>
      <trkpt lat="47.02209" lon="6.94667">
        <ele>1067.21</ele>
        <time>2020-07-04T09:22:24.682Z</time>
      </trkpt>
      <trkpt lat="47.02205" lon="6.94662">
        <ele>1066.85</ele>
        <time>2020-07-04T09:22:25.195Z</time>
      </trkpt>
      <trkpt lat="47.02201" lon="6.94658">
        <ele>1066.49</ele>
        <time>2020-07-04T09:22:25.667Z</time>
      </trkpt>
      <trkpt lat="47.02198" lon="6.94655">
        <ele>1066.25</ele>
        <time>2020-07-04T09:22:25.993Z</time>
      </trkpt>
      <trkpt lat="47.02183" lon="6.94645">
        <ele>1065.6</ele>
        <time>2020-07-04T09:22:27.849Z</time>
      </trkpt>
      <trkpt lat="47.02171" lon="6.94636">
        <ele>1065.28</ele>
        <time>2020-07-04T09:22:29.634Z</time>
      </trkpt>
      <trkpt lat="47.02169" lon="6.94634">
        <ele>1065.23</ele>
        <time>2020-07-04T09:22:29.966Z</time>
      </trkpt>
      <trkpt lat="47.0216" lon="6.94626">
        <ele>1064.72</ele>
        <time>2020-07-04T09:22:31.057Z</time>
      </trkpt>
      <trkpt lat="47.02148" lon="6.94612">
        <ele>1064.88</ele>
        <time>2020-07-04T09:22:34.659Z</time>
      </trkpt>
      <trkpt lat="47.02144" lon="6.94608">
        <ele>1064.6</ele>
        <time>2020-07-04T09:22:35.123Z</time>
      </trkpt>
      <trkpt lat="47.0214" lon="6.94604">
        <ele>1064.38</ele>
        <time>2020-07-04T09:22:35.638Z</time>
      </trkpt>
      <trkpt lat="47.02135" lon="6.94602">
        <ele>1063.87</ele>
        <time>2020-07-04T09:22:36.144Z</time>
      </trkpt>
      <trkpt lat="47.02132" lon="6.946">
        <ele>1063.77</ele>
        <time>2020-07-04T09:22:36.551Z</time>
      </trkpt>
      <trkpt lat="47.02132" lon="6.94599">
        <ele>1063.77</ele>
        <time>2020-07-04T09:22:36.695Z</time>
      </trkpt>
      <trkpt lat="47.02129" lon="6.94597">
        <ele>1063.67</ele>
        <time>2020-07-04T09:22:37.102Z</time>
      </trkpt>
      <trkpt lat="47.02125" lon="6.94594">
        <ele>1063.27</ele>
        <time>2020-07-04T09:22:37.540Z</time>
      </trkpt>
      <trkpt lat="47.0212" lon="6.94588">
        <ele>1063.05</ele>
        <time>2020-07-04T09:22:38.307Z</time>
      </trkpt>
      <trkpt lat="47.02111" lon="6.94574">
        <ele>1062.48</ele>
        <time>2020-07-04T09:22:39.730Z</time>
      </trkpt>
      <trkpt lat="47.02102" lon="6.94557">
        <ele>1061.49</ele>
        <time>2020-07-04T09:22:41.161Z</time>
      </trkpt>
      <trkpt lat="47.02098" lon="6.94551">
        <ele>1060.83</ele>
        <time>2020-07-04T09:22:41.720Z</time>
      </trkpt>
      <trkpt lat="47.02091" lon="6.94541">
        <ele>1059.74</ele>
        <time>2020-07-04T09:22:42.673Z</time>
      </trkpt>
      <trkpt lat="47.02082" lon="6.9453">
        <ele>1058.39</ele>
        <time>2020-07-04T09:22:43.816Z</time>
      </trkpt>
      <trkpt lat="47.02077" lon="6.9452">
        <ele>1057.9</ele>
        <time>2020-07-04T09:22:44.625Z</time>
      </trkpt>
      <trkpt lat="47.02075" lon="6.94513">
        <ele>1057.69</ele>
        <time>2020-07-04T09:22:45.201Z</time>
      </trkpt>
      <trkpt lat="47.02072" lon="6.945">
        <ele>1057.64</ele>
        <time>2020-07-04T09:22:47.039Z</time>
      </trkpt>
      <trkpt lat="47.02068" lon="6.94488">
        <ele>1057.81</ele>
        <time>2020-07-04T09:22:49.372Z</time>
      </trkpt>
      <trkpt lat="47.0206" lon="6.9446">
        <ele>1058.67</ele>
        <time>2020-07-04T09:22:56.471Z</time>
      </trkpt>
      <trkpt lat="47.02055" lon="6.94448">
        <ele>1058.91</ele>
        <time>2020-07-04T09:22:59.114Z</time>
      </trkpt>
      <trkpt lat="47.02046" lon="6.9442">
        <ele>1058.79</ele>
        <time>2020-07-04T09:23:03.239Z</time>
      </trkpt>
      <trkpt lat="47.02032" lon="6.94381">
        <ele>1058.57</ele>
        <time>2020-07-04T09:23:08.120Z</time>
      </trkpt>
      <trkpt lat="47.02025" lon="6.94363">
        <ele>1058.82</ele>
        <time>2020-07-04T09:23:11.702Z</time>
      </trkpt>
      <trkpt lat="47.02022" lon="6.94355">
        <ele>1058.86</ele>
        <time>2020-07-04T09:23:13.107Z</time>
      </trkpt>
      <trkpt lat="47.02003" lon="6.94317">
        <ele>1058.41</ele>
        <time>2020-07-04T09:23:17.886Z</time>
      </trkpt>
      <trkpt lat="47.01987" lon="6.94284">
        <ele>1058.13</ele>
        <time>2020-07-04T09:23:22.203Z</time>
      </trkpt>
      <trkpt lat="47.01981" lon="6.94273">
        <ele>1058.13</ele>
        <time>2020-07-04T09:23:24.243Z</time>
      </trkpt>
      <trkpt lat="47.01979" lon="6.94264">
        <ele>1058.21</ele>
        <time>2020-07-04T09:23:25.790Z</time>
      </trkpt>
      <trkpt lat="47.01979" lon="6.94255">
        <ele>1058.61</ele>
        <time>2020-07-04T09:23:28.321Z</time>
      </trkpt>
      <trkpt lat="47.01979" lon="6.94246">
        <ele>1059.37</ele>
        <time>2020-07-04T09:23:32.738Z</time>
      </trkpt>
      <trkpt lat="47.0198" lon="6.94237">
        <ele>1059.94</ele>
        <time>2020-07-04T09:23:35.915Z</time>
      </trkpt>
      <trkpt lat="47.01979" lon="6.94225">
        <ele>1060.44</ele>
        <time>2020-07-04T09:23:39.207Z</time>
      </trkpt>
      <trkpt lat="47.01978" lon="6.94215">
        <ele>1060.78</ele>
        <time>2020-07-04T09:23:41.756Z</time>
      </trkpt>
      <trkpt lat="47.01977" lon="6.94209">
        <ele>1061.11</ele>
        <time>2020-07-04T09:23:43.677Z</time>
      </trkpt>
      <trkpt lat="47.01974" lon="6.94201">
        <ele>1061.43</ele>
        <time>2020-07-04T09:23:46.011Z</time>
      </trkpt>
      <trkpt lat="47.01969" lon="6.9419">
        <ele>1061.32</ele>
        <time>2020-07-04T09:23:47.383Z</time>
      </trkpt>
      <trkpt lat="47.01962" lon="6.94173">
        <ele>1060.3</ele>
        <time>2020-07-04T09:23:48.704Z</time>
      </trkpt>
      <trkpt lat="47.01949" lon="6.94146">
        <ele>1059.82</ele>
        <time>2020-07-04T09:23:51.774Z</time>
      </trkpt>
      <trkpt lat="47.0194" lon="6.94125">
        <ele>1059.97</ele>
        <time>2020-07-04T09:23:55.684Z</time>
      </trkpt>
      <trkpt lat="47.01923" lon="6.94091">
        <ele>1061.15</ele>
        <time>2020-07-04T09:24:05.471Z</time>
      </trkpt>
      <trkpt lat="47.01918" lon="6.94081">
        <ele>1060.96</ele>
        <time>2020-07-04T09:24:06.607Z</time>
      </trkpt>
      <trkpt lat="47.01895" lon="6.9404">
        <ele>1060.29</ele>
        <time>2020-07-04T09:24:11.702Z</time>
      </trkpt>
      <trkpt lat="47.01894" lon="6.9404">
        <ele>1060.29</ele>
        <time>2020-07-04T09:24:11.915Z</time>
      </trkpt>
      <trkpt lat="47.01887" lon="6.94027">
        <ele>1059.62</ele>
        <time>2020-07-04T09:24:12.984Z</time>
      </trkpt>
      <trkpt lat="47.01883" lon="6.94021">
        <ele>1059.58</ele>
        <time>2020-07-04T09:24:14.081Z</time>
      </trkpt>
      <trkpt lat="47.01877" lon="6.94014">
        <ele>1059.62</ele>
        <time>2020-07-04T09:24:15.792Z</time>
      </trkpt>
      <trkpt lat="47.01855" lon="6.93991">
        <ele>1058.89</ele>
        <time>2020-07-04T09:24:19.244Z</time>
      </trkpt>
      <trkpt lat="47.01849" lon="6.93982">
        <ele>1058.24</ele>
        <time>2020-07-04T09:24:20.081Z</time>
      </trkpt>
      <trkpt lat="47.01845" lon="6.93976">
        <ele>1057.85</ele>
        <time>2020-07-04T09:24:20.639Z</time>
      </trkpt>
      <trkpt lat="47.01841" lon="6.93969">
        <ele>1057.48</ele>
        <time>2020-07-04T09:24:21.228Z</time>
      </trkpt>
      <trkpt lat="47.01839" lon="6.93963">
        <ele>1057.32</ele>
        <time>2020-07-04T09:24:21.763Z</time>
      </trkpt>
      <trkpt lat="47.01836" lon="6.93955">
        <ele>1057.22</ele>
        <time>2020-07-04T09:24:22.666Z</time>
      </trkpt>
      <trkpt lat="47.01834" lon="6.93947">
        <ele>1057.23</ele>
        <time>2020-07-04T09:24:23.920Z</time>
      </trkpt>
      <trkpt lat="47.01834" lon="6.93941">
        <ele>1057.28</ele>
        <time>2020-07-04T09:24:24.898Z</time>
      </trkpt>
      <trkpt lat="47.01831" lon="6.93935">
        <ele>1057.18</ele>
        <time>2020-07-04T09:24:25.602Z</time>
      </trkpt>
      <trkpt lat="47.01826" lon="6.9392">
        <ele>1056.63</ele>
        <time>2020-07-04T09:24:26.784Z</time>
      </trkpt>
      <trkpt lat="47.01824" lon="6.93916">
        <ele>1056.57</ele>
        <time>2020-07-04T09:24:27.264Z</time>
      </trkpt>
      <trkpt lat="47.01824" lon="6.93915">
        <ele>1056.57</ele>
        <time>2020-07-04T09:24:27.409Z</time>
      </trkpt>
      <trkpt lat="47.01822" lon="6.93911">
        <ele>1056.51</ele>
        <time>2020-07-04T09:24:27.889Z</time>
      </trkpt>
      <trkpt lat="47.01816" lon="6.93892">
        <ele>1056.72</ele>
        <time>2020-07-04T09:24:31.395Z</time>
      </trkpt>
      <trkpt lat="47.01812" lon="6.93884">
        <ele>1055.88</ele>
        <time>2020-07-04T09:24:32.055Z</time>
      </trkpt>
      <trkpt lat="47.0181" lon="6.93881">
        <ele>1055.72</ele>
        <time>2020-07-04T09:24:32.333Z</time>
      </trkpt>
      <trkpt lat="47.01808" lon="6.93879">
        <ele>1055.31</ele>
        <time>2020-07-04T09:24:32.569Z</time>
      </trkpt>
      <trkpt lat="47.01807" lon="6.93879">
        <ele>1055.19</ele>
        <time>2020-07-04T09:24:32.667Z</time>
      </trkpt>
      <trkpt lat="47.01803" lon="6.93871">
        <ele>1054.94</ele>
        <time>2020-07-04T09:24:33.447Z</time>
      </trkpt>
      <trkpt lat="47.018" lon="6.93861">
        <ele>1054.62</ele>
        <time>2020-07-04T09:24:34.258Z</time>
      </trkpt>
      <trkpt lat="47.01792" lon="6.9383">
        <ele>1052.69</ele>
        <time>2020-07-04T09:24:36.463Z</time>
      </trkpt>
      <trkpt lat="47.01788" lon="6.93815">
        <ele>1051.6</ele>
        <time>2020-07-04T09:24:37.534Z</time>
      </trkpt>
      <trkpt lat="47.01785" lon="6.93804">
        <ele>1050.83</ele>
        <time>2020-07-04T09:24:38.322Z</time>
      </trkpt>
      <trkpt lat="47.01782" lon="6.93796">
        <ele>1050.25</ele>
        <time>2020-07-04T09:24:38.930Z</time>
      </trkpt>
      <trkpt lat="47.01778" lon="6.93788">
        <ele>1049.69</ele>
        <time>2020-07-04T09:24:39.590Z</time>
      </trkpt>
      <trkpt lat="47.01774" lon="6.9378">
        <ele>1049.11</ele>
        <time>2020-07-04T09:24:40.250Z</time>
      </trkpt>
      <trkpt lat="47.01768" lon="6.93771">
        <ele>1048.38</ele>
        <time>2020-07-04T09:24:41.087Z</time>
      </trkpt>
      <trkpt lat="47.01761" lon="6.9376">
        <ele>1047.56</ele>
        <time>2020-07-04T09:24:42.088Z</time>
      </trkpt>
      <trkpt lat="47.01751" lon="6.93743">
        <ele>1046.31</ele>
        <time>2020-07-04T09:24:43.581Z</time>
      </trkpt>
      <trkpt lat="47.01727" lon="6.93704">
        <ele>1042.61</ele>
        <time>2020-07-04T09:24:47.076Z</time>
      </trkpt>
      <trkpt lat="47.01716" lon="6.93687">
        <ele>1040.66</ele>
        <time>2020-07-04T09:24:48.635Z</time>
      </trkpt>
      <trkpt lat="47.01701" lon="6.93665">
        <ele>1039.73</ele>
        <time>2020-07-04T09:24:50.927Z</time>
      </trkpt>
      <trkpt lat="47.01701" lon="6.93664">
        <ele>1037.4</ele>
        <time>2020-07-04T09:24:50.994Z</time>
      </trkpt>
      <trkpt lat="47.01684" lon="6.93636">
        <ele>1036</ele>
        <time>2020-07-04T09:24:53.505Z</time>
      </trkpt>
      <trkpt lat="47.01676" lon="6.93621">
        <ele>1034.8</ele>
        <time>2020-07-04T09:24:54.772Z</time>
      </trkpt>
      <trkpt lat="47.01665" lon="6.936">
        <ele>1032.61</ele>
        <time>2020-07-04T09:24:56.533Z</time>
      </trkpt>
      <trkpt lat="47.01647" lon="6.9357">
        <ele>1029.81</ele>
        <time>2020-07-04T09:24:59.192Z</time>
      </trkpt>
      <trkpt lat="47.01636" lon="6.9355">
        <ele>1027.87</ele>
        <time>2020-07-04T09:25:00.901Z</time>
      </trkpt>
      <trkpt lat="47.01628" lon="6.93534">
        <ele>1026.44</ele>
        <time>2020-07-04T09:25:02.221Z</time>
      </trkpt>
      <trkpt lat="47.01621" lon="6.93518">
        <ele>1024.94</ele>
        <time>2020-07-04T09:25:03.485Z</time>
      </trkpt>
      <trkpt lat="47.01614" lon="6.93496">
        <ele>1023</ele>
        <time>2020-07-04T09:25:05.100Z</time>
      </trkpt>
      <trkpt lat="47.01609" lon="6.93481">
        <ele>1021.64</ele>
        <time>2020-07-04T09:25:06.211Z</time>
      </trkpt>
      <trkpt lat="47.01594" lon="6.93447">
        <ele>1018.57</ele>
        <time>2020-07-04T09:25:08.904Z</time>
      </trkpt>
      <trkpt lat="47.01569" lon="6.93392">
        <ele>1013.48</ele>
        <time>2020-07-04T09:25:13.302Z</time>
      </trkpt>
      <trkpt lat="47.01558" lon="6.93369">
        <ele>1011.39</ele>
        <time>2020-07-04T09:25:15.170Z</time>
      </trkpt>
      <trkpt lat="47.01543" lon="6.9334">
        <ele>1008.6</ele>
        <time>2020-07-04T09:25:17.592Z</time>
      </trkpt>
      <trkpt lat="47.01537" lon="6.93327">
        <ele>1007.52</ele>
        <time>2020-07-04T09:25:18.636Z</time>
      </trkpt>
      <trkpt lat="47.01534" lon="6.93314">
        <ele>1006.38</ele>
        <time>2020-07-04T09:25:19.549Z</time>
      </trkpt>
      <trkpt lat="47.0153" lon="6.93297">
        <ele>1005.17</ele>
        <time>2020-07-04T09:25:20.745Z</time>
      </trkpt>
      <trkpt lat="47.01526" lon="6.93251">
        <ele>1001.56</ele>
        <time>2020-07-04T09:25:23.830Z</time>
      </trkpt>
      <trkpt lat="47.01523" lon="6.93214">
        <ele>998.9</ele>
        <time>2020-07-04T09:25:26.308Z</time>
      </trkpt>
      <trkpt lat="47.0152" lon="6.93191">
        <ele>996.98</ele>
        <time>2020-07-04T09:25:27.866Z</time>
      </trkpt>
      <trkpt lat="47.0152" lon="6.93188">
        <ele>995.33</ele>
        <time>2020-07-04T09:25:28.066Z</time>
      </trkpt>
      <trkpt lat="47.0152" lon="6.93187">
        <ele>995.33</ele>
        <time>2020-07-04T09:25:28.210Z</time>
      </trkpt>
      <trkpt lat="47.01516" lon="6.9314">
        <ele>993.68</ele>
        <time>2020-07-04T09:25:31.483Z</time>
      </trkpt>
      <trkpt lat="47.01511" lon="6.93103">
        <ele>991.08</ele>
        <time>2020-07-04T09:25:33.992Z</time>
      </trkpt>
      <trkpt lat="47.01508" lon="6.93074">
        <ele>988.98</ele>
        <time>2020-07-04T09:25:35.943Z</time>
      </trkpt>
      <trkpt lat="47.01505" lon="6.9305">
        <ele>987.84</ele>
        <time>2020-07-04T09:25:37.566Z</time>
      </trkpt>
      <trkpt lat="47.01503" lon="6.93031">
        <ele>986.44</ele>
        <time>2020-07-04T09:25:38.845Z</time>
      </trkpt>
      <trkpt lat="47.01501" lon="6.93024">
        <ele>985.92</ele>
        <time>2020-07-04T09:25:39.350Z</time>
      </trkpt>
      <trkpt lat="47.01492" lon="6.92995">
        <ele>983.74</ele>
        <time>2020-07-04T09:25:41.469Z</time>
      </trkpt>
      <trkpt lat="47.01468" lon="6.92926">
        <ele>979.3</ele>
        <time>2020-07-04T09:25:46.622Z</time>
      </trkpt>
      <trkpt lat="47.0146" lon="6.92902">
        <ele>977.57</ele>
        <time>2020-07-04T09:25:48.399Z</time>
      </trkpt>
      <trkpt lat="47.01454" lon="6.92882">
        <ele>976.31</ele>
        <time>2020-07-04T09:25:49.853Z</time>
      </trkpt>
      <trkpt lat="47.01448" lon="6.92865">
        <ele>975.03</ele>
        <time>2020-07-04T09:25:51.126Z</time>
      </trkpt>
      <trkpt lat="47.01447" lon="6.92859">
        <ele>974.65</ele>
        <time>2020-07-04T09:25:51.537Z</time>
      </trkpt>
      <trkpt lat="47.01443" lon="6.92846">
        <ele>974</ele>
        <time>2020-07-04T09:25:52.486Z</time>
      </trkpt>
      <trkpt lat="47.01443" lon="6.92845">
        <ele>974</ele>
        <time>2020-07-04T09:25:52.630Z</time>
      </trkpt>
      <trkpt lat="47.01441" lon="6.92841">
        <ele>973.35</ele>
        <time>2020-07-04T09:25:52.960Z</time>
      </trkpt>
      <trkpt lat="47.01436" lon="6.9282">
        <ele>971.78</ele>
        <time>2020-07-04T09:25:54.440Z</time>
      </trkpt>
      <trkpt lat="47.01429" lon="6.92796">
        <ele>970.08</ele>
        <time>2020-07-04T09:25:56.176Z</time>
      </trkpt>
      <trkpt lat="47.01426" lon="6.92789">
        <ele>969.48</ele>
        <time>2020-07-04T09:25:56.726Z</time>
      </trkpt>
      <trkpt lat="47.01423" lon="6.92775">
        <ele>968.52</ele>
        <time>2020-07-04T09:25:57.703Z</time>
      </trkpt>
      <trkpt lat="47.01411" lon="6.92732">
        <ele>965.22</ele>
        <time>2020-07-04T09:26:00.793Z</time>
      </trkpt>
      <trkpt lat="47.01408" lon="6.92726">
        <ele>964.77</ele>
        <time>2020-07-04T09:26:01.288Z</time>
      </trkpt>
      <trkpt lat="47.01403" lon="6.92718">
        <ele>964.14</ele>
        <time>2020-07-04T09:26:02.010Z</time>
      </trkpt>
      <trkpt lat="47.01387" lon="6.927">
        <ele>962.51</ele>
        <time>2020-07-04T09:26:03.978Z</time>
      </trkpt>
      <trkpt lat="47.01376" lon="6.92686">
        <ele>961.36</ele>
        <time>2020-07-04T09:26:05.399Z</time>
      </trkpt>
      <trkpt lat="47.01365" lon="6.92671">
        <ele>959.87</ele>
        <time>2020-07-04T09:26:06.864Z</time>
      </trkpt>
      <trkpt lat="47.01353" lon="6.92647">
        <ele>957.77</ele>
        <time>2020-07-04T09:26:08.844Z</time>
      </trkpt>
      <trkpt lat="47.01343" lon="6.92624">
        <ele>955.82</ele>
        <time>2020-07-04T09:26:10.658Z</time>
      </trkpt>
      <trkpt lat="47.01332" lon="6.92597">
        <ele>953.83</ele>
        <time>2020-07-04T09:26:12.751Z</time>
      </trkpt>
      <trkpt lat="47.01329" lon="6.92589">
        <ele>953.16</ele>
        <time>2020-07-04T09:26:13.358Z</time>
      </trkpt>
      <trkpt lat="47.01328" lon="6.92579">
        <ele>952.59</ele>
        <time>2020-07-04T09:26:14.030Z</time>
      </trkpt>
      <trkpt lat="47.01327" lon="6.92569">
        <ele>951.81</ele>
        <time>2020-07-04T09:26:14.703Z</time>
      </trkpt>
      <trkpt lat="47.01328" lon="6.92548">
        <ele>950.39</ele>
        <time>2020-07-04T09:26:16.103Z</time>
      </trkpt>
      <trkpt lat="47.01328" lon="6.9254">
        <ele>949.87</ele>
        <time>2020-07-04T09:26:16.635Z</time>
      </trkpt>
      <trkpt lat="47.01328" lon="6.92532">
        <ele>949.44</ele>
        <time>2020-07-04T09:26:17.167Z</time>
      </trkpt>
      <trkpt lat="47.01331" lon="6.92487">
        <ele>946.93</ele>
        <time>2020-07-04T09:26:20.175Z</time>
      </trkpt>
      <trkpt lat="47.01332" lon="6.9247">
        <ele>945.99</ele>
        <time>2020-07-04T09:26:21.310Z</time>
      </trkpt>
      <trkpt lat="47.01336" lon="6.92427">
        <ele>943.25</ele>
        <time>2020-07-04T09:26:24.197Z</time>
      </trkpt>
      <trkpt lat="47.01337" lon="6.92416">
        <ele>942.5</ele>
        <time>2020-07-04T09:26:24.935Z</time>
      </trkpt>
      <trkpt lat="47.01339" lon="6.92403">
        <ele>941.74</ele>
        <time>2020-07-04T09:26:25.822Z</time>
      </trkpt>
      <trkpt lat="47.01342" lon="6.92368">
        <ele>939.61</ele>
        <time>2020-07-04T09:26:28.168Z</time>
      </trkpt>
      <trkpt lat="47.01343" lon="6.92344">
        <ele>938.01</ele>
        <time>2020-07-04T09:26:29.768Z</time>
      </trkpt>
      <trkpt lat="47.01344" lon="6.92315">
        <ele>936.35</ele>
        <time>2020-07-04T09:26:31.699Z</time>
      </trkpt>
      <trkpt lat="47.01344" lon="6.92295">
        <ele>934.97</ele>
        <time>2020-07-04T09:26:33.030Z</time>
      </trkpt>
      <trkpt lat="47.01345" lon="6.92289">
        <ele>934.59</ele>
        <time>2020-07-04T09:26:33.441Z</time>
      </trkpt>
      <trkpt lat="47.01346" lon="6.92283">
        <ele>934.21</ele>
        <time>2020-07-04T09:26:33.852Z</time>
      </trkpt>
      <trkpt lat="47.01348" lon="6.92277">
        <ele>934</ele>
        <time>2020-07-04T09:26:34.334Z</time>
      </trkpt>
      <trkpt lat="47.01351" lon="6.9227">
        <ele>933.58</ele>
        <time>2020-07-04T09:26:34.884Z</time>
      </trkpt>
      <trkpt lat="47.01358" lon="6.9226">
        <ele>932.71</ele>
        <time>2020-07-04T09:26:35.837Z</time>
      </trkpt>
      <trkpt lat="47.01363" lon="6.92254">
        <ele>932.15</ele>
        <time>2020-07-04T09:26:36.467Z</time>
      </trkpt>
      <trkpt lat="47.01366" lon="6.92249">
        <ele>931.7</ele>
        <time>2020-07-04T09:26:36.910Z</time>
      </trkpt>
      <trkpt lat="47.01368" lon="6.92245">
        <ele>931.35</ele>
        <time>2020-07-04T09:26:37.240Z</time>
      </trkpt>
      <trkpt lat="47.01369" lon="6.9224">
        <ele>931.02</ele>
        <time>2020-07-04T09:26:37.587Z</time>
      </trkpt>
      <trkpt lat="47.0137" lon="6.92236">
        <ele>930.65</ele>
        <time>2020-07-04T09:26:37.870Z</time>
      </trkpt>
      <trkpt lat="47.0137" lon="6.92231">
        <ele>930.21</ele>
        <time>2020-07-04T09:26:38.203Z</time>
      </trkpt>
      <trkpt lat="47.0137" lon="6.92226">
        <ele>929.89</ele>
        <time>2020-07-04T09:26:38.536Z</time>
      </trkpt>
      <trkpt lat="47.01369" lon="6.92222">
        <ele>929.62</ele>
        <time>2020-07-04T09:26:38.819Z</time>
      </trkpt>
      <trkpt lat="47.01366" lon="6.92217">
        <ele>929.13</ele>
        <time>2020-07-04T09:26:39.262Z</time>
      </trkpt>
      <trkpt lat="47.01363" lon="6.92212">
        <ele>928.68</ele>
        <time>2020-07-04T09:26:39.705Z</time>
      </trkpt>
      <trkpt lat="47.0136" lon="6.9221">
        <ele>928.44</ele>
        <time>2020-07-04T09:26:40.027Z</time>
      </trkpt>
      <trkpt lat="47.01357" lon="6.92208">
        <ele>928.15</ele>
        <time>2020-07-04T09:26:40.348Z</time>
      </trkpt>
      <trkpt lat="47.01354" lon="6.92208">
        <ele>927.73</ele>
        <time>2020-07-04T09:26:40.641Z</time>
      </trkpt>
      <trkpt lat="47.0135" lon="6.92208">
        <ele>927.29</ele>
        <time>2020-07-04T09:26:41.031Z</time>
      </trkpt>
      <trkpt lat="47.01346" lon="6.9221">
        <ele>926.79</ele>
        <time>2020-07-04T09:26:41.443Z</time>
      </trkpt>
      <trkpt lat="47.01344" lon="6.92213">
        <ele>926.36</ele>
        <time>2020-07-04T09:26:41.722Z</time>
      </trkpt>
      <trkpt lat="47.0134" lon="6.92219">
        <ele>925.84</ele>
        <time>2020-07-04T09:26:42.281Z</time>
      </trkpt>
      <trkpt lat="47.01337" lon="6.92225">
        <ele>925.37</ele>
        <time>2020-07-04T09:26:42.776Z</time>
      </trkpt>
      <trkpt lat="47.01332" lon="6.92232">
        <ele>924.88</ele>
        <time>2020-07-04T09:26:43.450Z</time>
      </trkpt>
      <trkpt lat="47.01331" lon="6.92231">
        <ele>924.75</ele>
        <time>2020-07-04T09:26:43.568Z</time>
      </trkpt>
      <trkpt lat="47.0133" lon="6.92225">
        <ele>922.7</ele>
        <time>2020-07-04T09:26:43.979Z</time>
      </trkpt>
      <trkpt lat="47.0132" lon="6.92226">
        <ele>921.04</ele>
        <time>2020-07-04T09:26:44.957Z</time>
      </trkpt>
      <trkpt lat="47.01316" lon="6.92225">
        <ele>920.14</ele>
        <time>2020-07-04T09:26:45.353Z</time>
      </trkpt>
      <trkpt lat="47.01312" lon="6.92223">
        <ele>919.58</ele>
        <time>2020-07-04T09:26:45.765Z</time>
      </trkpt>
      <trkpt lat="47.01311" lon="6.92223">
        <ele>919.58</ele>
        <time>2020-07-04T09:26:45.977Z</time>
      </trkpt>
      <trkpt lat="47.0131" lon="6.92222">
        <ele>919.03</ele>
        <time>2020-07-04T09:26:46.096Z</time>
      </trkpt>
      <trkpt lat="47.01296" lon="6.9222">
        <ele>915.58</ele>
        <time>2020-07-04T09:26:47.468Z</time>
      </trkpt>
      <trkpt lat="47.01291" lon="6.92218">
        <ele>914.14</ele>
        <time>2020-07-04T09:26:47.973Z</time>
      </trkpt>
      <trkpt lat="47.01287" lon="6.92215">
        <ele>912.64</ele>
        <time>2020-07-04T09:26:48.412Z</time>
      </trkpt>
      <trkpt lat="47.01281" lon="6.92214">
        <ele>910.55</ele>
        <time>2020-07-04T09:26:49.001Z</time>
      </trkpt>
      <trkpt lat="47.01278" lon="6.92214">
        <ele>909.66</ele>
        <time>2020-07-04T09:26:49.294Z</time>
      </trkpt>
      <trkpt lat="47.01273" lon="6.92206">
        <ele>907.94</ele>
        <time>2020-07-04T09:26:50.016Z</time>
      </trkpt>
      <trkpt lat="47.01268" lon="6.92198">
        <ele>906.23</ele>
        <time>2020-07-04T09:26:50.737Z</time>
      </trkpt>
      <trkpt lat="47.01265" lon="6.92188">
        <ele>904.82</ele>
        <time>2020-07-04T09:26:51.464Z</time>
      </trkpt>
      <trkpt lat="47.0126" lon="6.92174">
        <ele>902.7</ele>
        <time>2020-07-04T09:26:52.516Z</time>
      </trkpt>
      <trkpt lat="47.01257" lon="6.92156">
        <ele>900.25</ele>
        <time>2020-07-04T09:26:53.748Z</time>
      </trkpt>
      <trkpt lat="47.01255" lon="6.92143">
        <ele>898.71</ele>
        <time>2020-07-04T09:26:54.635Z</time>
      </trkpt>
      <trkpt lat="47.01251" lon="6.92128">
        <ele>896.33</ele>
        <time>2020-07-04T09:26:55.706Z</time>
      </trkpt>
      <trkpt lat="47.01247" lon="6.92115">
        <ele>893.92</ele>
        <time>2020-07-04T09:26:56.655Z</time>
      </trkpt>
      <trkpt lat="47.01245" lon="6.92104">
        <ele>892.68</ele>
        <time>2020-07-04T09:26:57.412Z</time>
      </trkpt>
      <trkpt lat="47.01243" lon="6.92093">
        <ele>891.25</ele>
        <time>2020-07-04T09:26:58.170Z</time>
      </trkpt>
      <trkpt lat="47.01242" lon="6.92082">
        <ele>890.2</ele>
        <time>2020-07-04T09:26:58.908Z</time>
      </trkpt>
      <trkpt lat="47.01241" lon="6.92068">
        <ele>888.71</ele>
        <time>2020-07-04T09:26:59.844Z</time>
      </trkpt>
      <trkpt lat="47.01241" lon="6.92059">
        <ele>887.57</ele>
        <time>2020-07-04T09:27:00.443Z</time>
      </trkpt>
      <trkpt lat="47.01241" lon="6.9205">
        <ele>886.2</ele>
        <time>2020-07-04T09:27:01.042Z</time>
      </trkpt>
      <trkpt lat="47.0124" lon="6.92043">
        <ele>885.25</ele>
        <time>2020-07-04T09:27:01.517Z</time>
      </trkpt>
      <trkpt lat="47.01238" lon="6.9203">
        <ele>884.13</ele>
        <time>2020-07-04T09:27:02.404Z</time>
      </trkpt>
      <trkpt lat="47.01237" lon="6.92003">
        <ele>880.92</ele>
        <time>2020-07-04T09:27:04.203Z</time>
      </trkpt>
      <trkpt lat="47.01236" lon="6.92">
        <ele>878.59</ele>
        <time>2020-07-04T09:27:04.425Z</time>
      </trkpt>
      <trkpt lat="47.01236" lon="6.91999">
        <ele>878.59</ele>
        <time>2020-07-04T09:27:04.570Z</time>
      </trkpt>
      <trkpt lat="47.01235" lon="6.91975">
        <ele>876.26</ele>
        <time>2020-07-04T09:27:06.169Z</time>
      </trkpt>
      <trkpt lat="47.01234" lon="6.91955">
        <ele>873.05</ele>
        <time>2020-07-04T09:27:07.503Z</time>
      </trkpt>
      <trkpt lat="47.01233" lon="6.91935">
        <ele>870.39</ele>
        <time>2020-07-04T09:27:08.837Z</time>
      </trkpt>
      <trkpt lat="47.01231" lon="6.91917">
        <ele>868.44</ele>
        <time>2020-07-04T09:27:10.050Z</time>
      </trkpt>
      <trkpt lat="47.01231" lon="6.91893">
        <ele>865.08</ele>
        <time>2020-07-04T09:27:11.647Z</time>
      </trkpt>
      <trkpt lat="47.01233" lon="6.9186">
        <ele>860.68</ele>
        <time>2020-07-04T09:27:13.851Z</time>
      </trkpt>
      <trkpt lat="47.01232" lon="6.91853">
        <ele>860.34</ele>
        <time>2020-07-04T09:27:14.327Z</time>
      </trkpt>
      <trkpt lat="47.01242" lon="6.91817">
        <ele>854.59</ele>
        <time>2020-07-04T09:27:16.913Z</time>
      </trkpt>
      <trkpt lat="47.01246" lon="6.91805">
        <ele>852.59</ele>
        <time>2020-07-04T09:27:17.801Z</time>
      </trkpt>
      <trkpt lat="47.01253" lon="6.91795">
        <ele>851.58</ele>
        <time>2020-07-04T09:27:18.755Z</time>
      </trkpt>
      <trkpt lat="47.01253" lon="6.91795">
        <ele>851.58</ele>
        <time>2020-07-04T09:27:18.755Z</time>
      </trkpt>
      <trkpt lat="47.01254" lon="6.91794">
        <ele>850.57</ele>
        <time>2020-07-04T09:27:18.873Z</time>
      </trkpt>
      <trkpt lat="47.01262" lon="6.91787">
        <ele>847.84</ele>
        <time>2020-07-04T09:27:19.781Z</time>
      </trkpt>
      <trkpt lat="47.0127" lon="6.91776">
        <ele>845.65</ele>
        <time>2020-07-04T09:27:20.851Z</time>
      </trkpt>
      <trkpt lat="47.01276" lon="6.91766">
        <ele>844.32</ele>
        <time>2020-07-04T09:27:21.737Z</time>
      </trkpt>
      <trkpt lat="47.01284" lon="6.91753">
        <ele>842.25</ele>
        <time>2020-07-04T09:27:22.902Z</time>
      </trkpt>
      <trkpt lat="47.01291" lon="6.91741">
        <ele>840.6</ele>
        <time>2020-07-04T09:27:23.953Z</time>
      </trkpt>
      <trkpt lat="47.013" lon="6.91728">
        <ele>838.81</ele>
        <time>2020-07-04T09:27:25.185Z</time>
      </trkpt>
      <trkpt lat="47.01307" lon="6.91721">
        <ele>837.86</ele>
        <time>2020-07-04T09:27:26.012Z</time>
      </trkpt>
      <trkpt lat="47.01313" lon="6.91715">
        <ele>837.28</ele>
        <time>2020-07-04T09:27:26.720Z</time>
      </trkpt>
      <trkpt lat="47.01313" lon="6.91715">
        <ele>837.28</ele>
        <time>2020-07-04T09:27:26.720Z</time>
      </trkpt>
      <trkpt lat="47.01313" lon="6.91714">
        <ele>836.69</ele>
        <time>2020-07-04T09:27:26.787Z</time>
      </trkpt>
      <trkpt lat="47.01321" lon="6.91706">
        <ele>835.6</ele>
        <time>2020-07-04T09:27:27.732Z</time>
      </trkpt>
      <trkpt lat="47.01332" lon="6.91697">
        <ele>834.25</ele>
        <time>2020-07-04T09:27:28.961Z</time>
      </trkpt>
      <trkpt lat="47.01345" lon="6.91688">
        <ele>832.66</ele>
        <time>2020-07-04T09:27:30.363Z</time>
      </trkpt>
      <trkpt lat="47.01357" lon="6.91679">
        <ele>831.8</ele>
        <time>2020-07-04T09:27:31.594Z</time>
      </trkpt>
      <trkpt lat="47.0137" lon="6.91674">
        <ele>830.52</ele>
        <time>2020-07-04T09:27:32.906Z</time>
      </trkpt>
      <trkpt lat="47.01388" lon="6.91665">
        <ele>829.39</ele>
        <time>2020-07-04T09:27:34.704Z</time>
      </trkpt>
      <trkpt lat="47.01399" lon="6.91658">
        <ele>827.78</ele>
        <time>2020-07-04T09:27:35.874Z</time>
      </trkpt>
      <trkpt lat="47.0141" lon="6.91657">
        <ele>826.73</ele>
        <time>2020-07-04T09:27:36.949Z</time>
      </trkpt>
      <trkpt lat="47.01425" lon="6.91656">
        <ele>825.56</ele>
        <time>2020-07-04T09:27:38.414Z</time>
      </trkpt>
      <trkpt lat="47.0144" lon="6.91657">
        <ele>824.51</ele>
        <time>2020-07-04T09:27:39.879Z</time>
      </trkpt>
      <trkpt lat="47.01441" lon="6.91657">
        <ele>823.97</ele>
        <time>2020-07-04T09:27:39.977Z</time>
      </trkpt>
      <trkpt lat="47.0144" lon="6.91657">
        <ele>823.97</ele>
        <time>2020-07-04T09:27:40.189Z</time>
      </trkpt>
      <trkpt lat="47.0146" lon="6.91661">
        <ele>823.44</ele>
        <time>2020-07-04T09:27:42.790Z</time>
      </trkpt>
      <trkpt lat="47.01465" lon="6.91662">
        <ele>823.26</ele>
        <time>2020-07-04T09:27:43.379Z</time>
      </trkpt>
      <trkpt lat="47.01491" lon="6.9167">
        <ele>822.37</ele>
        <time>2020-07-04T09:27:46.551Z</time>
      </trkpt>
      <trkpt lat="47.01507" lon="6.91674">
        <ele>822.52</ele>
        <time>2020-07-04T09:27:50.318Z</time>
      </trkpt>
      <trkpt lat="47.0151" lon="6.91675">
        <ele>822.55</ele>
        <time>2020-07-04T09:27:51.036Z</time>
      </trkpt>
      <trkpt lat="47.01516" lon="6.91677">
        <ele>822.59</ele>
        <time>2020-07-04T09:27:52.426Z</time>
      </trkpt>
      <trkpt lat="47.01532" lon="6.91684">
        <ele>822.68</ele>
        <time>2020-07-04T09:27:56.157Z</time>
      </trkpt>
      <trkpt lat="47.01539" lon="6.91687">
        <ele>823.08</ele>
        <time>2020-07-04T09:27:58.955Z</time>
      </trkpt>
      <trkpt lat="47.01552" lon="6.91695">
        <ele>823.18</ele>
        <time>2020-07-04T09:28:02.158Z</time>
      </trkpt>
      <trkpt lat="47.01567" lon="6.91703">
        <ele>823.85</ele>
        <time>2020-07-04T09:28:07.668Z</time>
      </trkpt>
      <trkpt lat="47.01579" lon="6.91712">
        <ele>824.29</ele>
        <time>2020-07-04T09:28:11.753Z</time>
      </trkpt>
      <trkpt lat="47.01596" lon="6.91726">
        <ele>824.34</ele>
        <time>2020-07-04T09:28:15.994Z</time>
      </trkpt>
      <trkpt lat="47.01623" lon="6.91743">
        <ele>825.12</ele>
        <time>2020-07-04T09:28:24.242Z</time>
      </trkpt>
      <trkpt lat="47.01642" lon="6.91751">
        <ele>825.46</ele>
        <time>2020-07-04T09:28:29.227Z</time>
      </trkpt>
      <trkpt lat="47.01661" lon="6.9176">
        <ele>824.6</ele>
        <time>2020-07-04T09:28:31.400Z</time>
      </trkpt>
      <trkpt lat="47.01669" lon="6.91765">
        <ele>824.79</ele>
        <time>2020-07-04T09:28:33.710Z</time>
      </trkpt>
      <trkpt lat="47.01677" lon="6.9177">
        <ele>824.04</ele>
        <time>2020-07-04T09:28:34.558Z</time>
      </trkpt>
      <trkpt lat="47.01691" lon="6.91781">
        <ele>823.11</ele>
        <time>2020-07-04T09:28:36.071Z</time>
      </trkpt>
      <trkpt lat="47.01704" lon="6.91789">
        <ele>821.55</ele>
        <time>2020-07-04T09:28:37.446Z</time>
      </trkpt>
      <trkpt lat="47.01718" lon="6.91798">
        <ele>819.58</ele>
        <time>2020-07-04T09:28:38.938Z</time>
      </trkpt>
      <trkpt lat="47.01731" lon="6.91804">
        <ele>817.58</ele>
        <time>2020-07-04T09:28:40.267Z</time>
      </trkpt>
      <trkpt lat="47.01745" lon="6.91811">
        <ele>815.55</ele>
        <time>2020-07-04T09:28:41.710Z</time>
      </trkpt>
      <trkpt lat="47.01754" lon="6.91815">
        <ele>814.26</ele>
        <time>2020-07-04T09:28:42.628Z</time>
      </trkpt>
      <trkpt lat="47.01755" lon="6.91815">
        <ele>812.87</ele>
        <time>2020-07-04T09:28:42.725Z</time>
      </trkpt>
      <trkpt lat="47.01754" lon="6.91815">
        <ele>812.87</ele>
        <time>2020-07-04T09:28:42.938Z</time>
      </trkpt>
      <trkpt lat="47.01774" lon="6.9182">
        <ele>811.47</ele>
        <time>2020-07-04T09:28:44.917Z</time>
      </trkpt>
      <trkpt lat="47.01786" lon="6.91822">
        <ele>809.83</ele>
        <time>2020-07-04T09:28:46.096Z</time>
      </trkpt>
      <trkpt lat="47.01807" lon="6.91824">
        <ele>806.97</ele>
        <time>2020-07-04T09:28:48.149Z</time>
      </trkpt>
      <trkpt lat="47.0182" lon="6.91827">
        <ele>805.19</ele>
        <time>2020-07-04T09:28:49.433Z</time>
      </trkpt>
      <trkpt lat="47.01832" lon="6.91832">
        <ele>803.43</ele>
        <time>2020-07-04T09:28:50.650Z</time>
      </trkpt>
      <trkpt lat="47.01861" lon="6.91842">
        <ele>799.51</ele>
        <time>2020-07-04T09:28:53.556Z</time>
      </trkpt>
      <trkpt lat="47.01891" lon="6.91852">
        <ele>795.79</ele>
        <time>2020-07-04T09:28:56.558Z</time>
      </trkpt>
      <trkpt lat="47.01932" lon="6.91864">
        <ele>793.44</ele>
        <time>2020-07-04T09:29:00.616Z</time>
      </trkpt>
      <trkpt lat="47.01931" lon="6.91864">
        <ele>793.44</ele>
        <time>2020-07-04T09:29:00.829Z</time>
      </trkpt>
      <trkpt lat="47.01932" lon="6.91864">
        <ele>791.08</ele>
        <time>2020-07-04T09:29:00.926Z</time>
      </trkpt>
      <trkpt lat="47.01942" lon="6.91868">
        <ele>790.41</ele>
        <time>2020-07-04T09:29:01.867Z</time>
      </trkpt>
      <trkpt lat="47.01946" lon="6.91867">
        <ele>790.03</ele>
        <time>2020-07-04T09:29:02.263Z</time>
      </trkpt>
      <trkpt lat="47.01951" lon="6.91866">
        <ele>789.43</ele>
        <time>2020-07-04T09:29:02.755Z</time>
      </trkpt>
      <trkpt lat="47.01964" lon="6.91867">
        <ele>788.28</ele>
        <time>2020-07-04T09:29:04.025Z</time>
      </trkpt>
      <trkpt lat="47.01994" lon="6.91868">
        <ele>785.61</ele>
        <time>2020-07-04T09:29:06.953Z</time>
      </trkpt>
      <trkpt lat="47.02002" lon="6.91869">
        <ele>784.89</ele>
        <time>2020-07-04T09:29:07.736Z</time>
      </trkpt>
      <trkpt lat="47.0201" lon="6.91871">
        <ele>784.52</ele>
        <time>2020-07-04T09:29:08.599Z</time>
      </trkpt>
      <trkpt lat="47.02023" lon="6.91875">
        <ele>783.47</ele>
        <time>2020-07-04T09:29:09.895Z</time>
      </trkpt>
      <trkpt lat="47.02033" lon="6.9188">
        <ele>782.76</ele>
        <time>2020-07-04T09:29:10.926Z</time>
      </trkpt>
      <trkpt lat="47.0204" lon="6.91884">
        <ele>782.68</ele>
        <time>2020-07-04T09:29:12.093Z</time>
      </trkpt>
      <trkpt lat="47.02065" lon="6.91898">
        <ele>781.47</ele>
        <time>2020-07-04T09:29:14.949Z</time>
      </trkpt>
      <trkpt lat="47.02076" lon="6.91902">
        <ele>780.88</ele>
        <time>2020-07-04T09:29:16.088Z</time>
      </trkpt>
      <trkpt lat="47.02081" lon="6.91904">
        <ele>780.6</ele>
        <time>2020-07-04T09:29:16.600Z</time>
      </trkpt>
      <trkpt lat="47.0208" lon="6.91904">
        <ele>780.6</ele>
        <time>2020-07-04T09:29:16.813Z</time>
      </trkpt>
      <trkpt lat="47.02081" lon="6.91904">
        <ele>780.32</ele>
        <time>2020-07-04T09:29:16.910Z</time>
      </trkpt>
      <trkpt lat="47.0209" lon="6.91907">
        <ele>779.53</ele>
        <time>2020-07-04T09:29:17.811Z</time>
      </trkpt>
      <trkpt lat="47.02096" lon="6.91907">
        <ele>778.87</ele>
        <time>2020-07-04T09:29:18.396Z</time>
      </trkpt>
      <trkpt lat="47.02099" lon="6.91907">
        <ele>778.54</ele>
        <time>2020-07-04T09:29:18.689Z</time>
      </trkpt>
      <trkpt lat="47.02102" lon="6.91905">
        <ele>778.57</ele>
        <time>2020-07-04T09:29:19.453Z</time>
      </trkpt>
      <trkpt lat="47.02123" lon="6.91925">
        <ele>777.02</ele>
        <time>2020-07-04T09:29:21.774Z</time>
      </trkpt>
      <trkpt lat="47.02145" lon="6.91945">
        <ele>776.4</ele>
        <time>2020-07-04T09:29:25.195Z</time>
      </trkpt>
      <trkpt lat="47.02163" lon="6.91959">
        <ele>775.27</ele>
        <time>2020-07-04T09:29:27.185Z</time>
      </trkpt>
      <trkpt lat="47.02162" lon="6.91959">
        <ele>775.27</ele>
        <time>2020-07-04T09:29:27.397Z</time>
      </trkpt>
      <trkpt lat="47.02168" lon="6.91964">
        <ele>774.13</ele>
        <time>2020-07-04T09:29:28.071Z</time>
      </trkpt>
      <trkpt lat="47.02197" lon="6.91984">
        <ele>771.23</ele>
        <time>2020-07-04T09:29:31.197Z</time>
      </trkpt>
      <trkpt lat="47.02221" lon="6.91997">
        <ele>768.13</ele>
        <time>2020-07-04T09:29:33.693Z</time>
      </trkpt>
      <trkpt lat="47.0223" lon="6.92001">
        <ele>767.54</ele>
        <time>2020-07-04T09:29:34.559Z</time>
      </trkpt>
      <trkpt lat="47.02245" lon="6.92007">
        <ele>765.55</ele>
        <time>2020-07-04T09:29:36.076Z</time>
      </trkpt>
      <trkpt lat="47.02249" lon="6.92007">
        <ele>764.75</ele>
        <time>2020-07-04T09:29:36.467Z</time>
      </trkpt>
      <trkpt lat="47.02248" lon="6.92007">
        <ele>764.75</ele>
        <time>2020-07-04T09:29:36.679Z</time>
      </trkpt>
      <trkpt lat="47.02255" lon="6.92008">
        <ele>763.96</ele>
        <time>2020-07-04T09:29:37.365Z</time>
      </trkpt>
      <trkpt lat="47.02267" lon="6.92009">
        <ele>762.75</ele>
        <time>2020-07-04T09:29:38.538Z</time>
      </trkpt>
      <trkpt lat="47.02275" lon="6.92009">
        <ele>761.9</ele>
        <time>2020-07-04T09:29:39.318Z</time>
      </trkpt>
      <trkpt lat="47.02285" lon="6.92006">
        <ele>760.55</ele>
        <time>2020-07-04T09:29:40.314Z</time>
      </trkpt>
      <trkpt lat="47.02296" lon="6.92002">
        <ele>759</ele>
        <time>2020-07-04T09:29:41.420Z</time>
      </trkpt>
      <trkpt lat="47.02299" lon="6.91994">
        <ele>758.71</ele>
        <time>2020-07-04T09:29:42.076Z</time>
      </trkpt>
      <trkpt lat="47.02306" lon="6.92">
        <ele>758.65</ele>
        <time>2020-07-04T09:29:43.392Z</time>
      </trkpt>
      <trkpt lat="47.02318" lon="6.92012">
        <ele>758.44</ele>
        <time>2020-07-04T09:29:45.540Z</time>
      </trkpt>
      <trkpt lat="47.02318" lon="6.92011">
        <ele>758.44</ele>
        <time>2020-07-04T09:29:45.685Z</time>
      </trkpt>
      <trkpt lat="47.02328" lon="6.92022">
        <ele>758.22</ele>
        <time>2020-07-04T09:29:47.463Z</time>
      </trkpt>
      <trkpt lat="47.02384" lon="6.9208">
        <ele>757.84</ele>
        <time>2020-07-04T09:30:00.887Z</time>
      </trkpt>
      <trkpt lat="47.02386" lon="6.92076">
        <ele>757.54</ele>
        <time>2020-07-04T09:30:01.217Z</time>
      </trkpt>
      <trkpt lat="47.02387" lon="6.92073">
        <ele>757.25</ele>
        <time>2020-07-04T09:30:01.439Z</time>
      </trkpt>
      <trkpt lat="47.02388" lon="6.92069">
        <ele>756.74</ele>
        <time>2020-07-04T09:30:01.722Z</time>
      </trkpt>
      <trkpt lat="47.02387" lon="6.92065">
        <ele>756.4</ele>
        <time>2020-07-04T09:30:02.006Z</time>
      </trkpt>
      <trkpt lat="47.02386" lon="6.9206">
        <ele>755.68</ele>
        <time>2020-07-04T09:30:02.352Z</time>
      </trkpt>
      <trkpt lat="47.02386" lon="6.92059">
        <ele>755.68</ele>
        <time>2020-07-04T09:30:02.497Z</time>
      </trkpt>
      <trkpt lat="47.02383" lon="6.92045">
        <ele>754.96</ele>
        <time>2020-07-04T09:30:03.473Z</time>
      </trkpt>
      <trkpt lat="47.02382" lon="6.92036">
        <ele>754.42</ele>
        <time>2020-07-04T09:30:04.079Z</time>
      </trkpt>
      <trkpt lat="47.02379" lon="6.92025">
        <ele>753.8</ele>
        <time>2020-07-04T09:30:04.867Z</time>
      </trkpt>
      <trkpt lat="47.02376" lon="6.92017">
        <ele>753.35</ele>
        <time>2020-07-04T09:30:05.475Z</time>
      </trkpt>
      <trkpt lat="47.02368" lon="6.92001">
        <ele>752.13</ele>
        <time>2020-07-04T09:30:06.794Z</time>
      </trkpt>
      <trkpt lat="47.02365" lon="6.91993">
        <ele>751.84</ele>
        <time>2020-07-04T09:30:07.450Z</time>
      </trkpt>
      <trkpt lat="47.02359" lon="6.91963">
        <ele>749.83</ele>
        <time>2020-07-04T09:30:09.530Z</time>
      </trkpt>
      <trkpt lat="47.02358" lon="6.91955">
        <ele>749.3</ele>
        <time>2020-07-04T09:30:10.071Z</time>
      </trkpt>
      <trkpt lat="47.02357" lon="6.91955">
        <ele>749.3</ele>
        <time>2020-07-04T09:30:10.283Z</time>
      </trkpt>
      <trkpt lat="47.02354" lon="6.91938">
        <ele>748.77</ele>
        <time>2020-07-04T09:30:11.572Z</time>
      </trkpt>
      <trkpt lat="47.02352" lon="6.91919">
        <ele>748.13</ele>
        <time>2020-07-04T09:30:12.926Z</time>
      </trkpt>
      <trkpt lat="47.02351" lon="6.91904">
        <ele>747.64</ele>
        <time>2020-07-04T09:30:13.999Z</time>
      </trkpt>
      <trkpt lat="47.0235" lon="6.91883">
        <ele>747.23</ele>
        <time>2020-07-04T09:30:15.802Z</time>
      </trkpt>
      <trkpt lat="47.0235" lon="6.91877">
        <ele>747.03</ele>
        <time>2020-07-04T09:30:16.225Z</time>
      </trkpt>
      <trkpt lat="47.02351" lon="6.9187">
        <ele>746.79</ele>
        <time>2020-07-04T09:30:16.727Z</time>
      </trkpt>
      <trkpt lat="47.02352" lon="6.91863">
        <ele>746.44</ele>
        <time>2020-07-04T09:30:17.202Z</time>
      </trkpt>
      <trkpt lat="47.02353" lon="6.91859">
        <ele>746.26</ele>
        <time>2020-07-04T09:30:17.472Z</time>
      </trkpt>
      <trkpt lat="47.02355" lon="6.91853">
        <ele>745.95</ele>
        <time>2020-07-04T09:30:17.916Z</time>
      </trkpt>
      <trkpt lat="47.02357" lon="6.91846">
        <ele>745.74</ele>
        <time>2020-07-04T09:30:18.492Z</time>
      </trkpt>
      <trkpt lat="47.02363" lon="6.91834">
        <ele>745.45</ele>
        <time>2020-07-04T09:30:19.767Z</time>
      </trkpt>
      <trkpt lat="47.02369" lon="6.91821">
        <ele>745.31</ele>
        <time>2020-07-04T09:30:21.378Z</time>
      </trkpt>
      <trkpt lat="47.02374" lon="6.91811">
        <ele>745.23</ele>
        <time>2020-07-04T09:30:22.712Z</time>
      </trkpt>
      <trkpt lat="47.0238" lon="6.91802">
        <ele>745.1</ele>
        <time>2020-07-04T09:30:23.970Z</time>
      </trkpt>
      <trkpt lat="47.02394" lon="6.9178">
        <ele>744.45</ele>
        <time>2020-07-04T09:30:26.465Z</time>
      </trkpt>
      <trkpt lat="47.02415" lon="6.91749">
        <ele>742.61</ele>
        <time>2020-07-04T09:30:29.231Z</time>
      </trkpt>
      <trkpt lat="47.02451" lon="6.91696">
        <ele>736.82</ele>
        <time>2020-07-04T09:30:34.207Z</time>
      </trkpt>
      <trkpt lat="47.02463" lon="6.91678">
        <ele>735.17</ele>
        <time>2020-07-04T09:30:35.881Z</time>
      </trkpt>
      <trkpt lat="47.02476" lon="6.91659">
        <ele>733.75</ele>
        <time>2020-07-04T09:30:37.672Z</time>
      </trkpt>
      <trkpt lat="47.02491" lon="6.91636">
        <ele>732.91</ele>
        <time>2020-07-04T09:30:40.133Z</time>
      </trkpt>
      <trkpt lat="47.02491" lon="6.91636">
        <ele>732.91</ele>
        <time>2020-07-04T09:30:40.133Z</time>
      </trkpt>
      <trkpt lat="47.02492" lon="6.91635">
        <ele>732.06</ele>
        <time>2020-07-04T09:30:40.251Z</time>
      </trkpt>
      <trkpt lat="47.02503" lon="6.91619">
        <ele>731.11</ele>
        <time>2020-07-04T09:30:41.694Z</time>
      </trkpt>
      <trkpt lat="47.02517" lon="6.91597">
        <ele>729.59</ele>
        <time>2020-07-04T09:30:43.695Z</time>
      </trkpt>
      <trkpt lat="47.0253" lon="6.91576">
        <ele>727.61</ele>
        <time>2020-07-04T09:30:45.582Z</time>
      </trkpt>
      <trkpt lat="47.02546" lon="6.91553">
        <ele>723.98</ele>
        <time>2020-07-04T09:30:47.767Z</time>
      </trkpt>
      <trkpt lat="47.02563" lon="6.91526">
        <ele>719.91</ele>
        <time>2020-07-04T09:30:50.212Z</time>
      </trkpt>
      <trkpt lat="47.02586" lon="6.91493">
        <ele>714.08</ele>
        <time>2020-07-04T09:30:53.351Z</time>
      </trkpt>
      <trkpt lat="47.02594" lon="6.9148">
        <ele>711.89</ele>
        <time>2020-07-04T09:30:54.515Z</time>
      </trkpt>
      <trkpt lat="47.02619" lon="6.91498">
        <ele>711.39</ele>
        <time>2020-07-04T09:30:58.461Z</time>
      </trkpt>
      <trkpt lat="47.02619" lon="6.91497">
        <ele>711.39</ele>
        <time>2020-07-04T09:30:58.606Z</time>
      </trkpt>
      <trkpt lat="47.02646" lon="6.91516">
        <ele>710.9</ele>
        <time>2020-07-04T09:31:02.932Z</time>
      </trkpt>
      <trkpt lat="47.02658" lon="6.91525">
        <ele>710.68</ele>
        <time>2020-07-04T09:31:04.880Z</time>
      </trkpt>
      <trkpt lat="47.02671" lon="6.91533">
        <ele>710.6</ele>
        <time>2020-07-04T09:31:07.635Z</time>
      </trkpt>
      <trkpt lat="47.02715" lon="6.91552">
        <ele>712.04</ele>
        <time>2020-07-04T09:31:21.313Z</time>
      </trkpt>
      <trkpt lat="47.0272" lon="6.91555">
        <ele>712.23</ele>
        <time>2020-07-04T09:31:23.006Z</time>
      </trkpt>
      <trkpt lat="47.0273" lon="6.91562">
        <ele>712.78</ele>
        <time>2020-07-04T09:31:27.112Z</time>
      </trkpt>
      <trkpt lat="47.0275" lon="6.9158">
        <ele>713.29</ele>
        <time>2020-07-04T09:31:33.336Z</time>
      </trkpt>
      <trkpt lat="47.02773" lon="6.91599">
        <ele>711.94</ele>
        <time>2020-07-04T09:31:36.010Z</time>
      </trkpt>
      <trkpt lat="47.02781" lon="6.91607">
        <ele>711.64</ele>
        <time>2020-07-04T09:31:37.196Z</time>
      </trkpt>
      <trkpt lat="47.02784" lon="6.91608">
        <ele>711.65</ele>
        <time>2020-07-04T09:31:37.870Z</time>
      </trkpt>
      <trkpt lat="47.02785" lon="6.91607">
        <ele>711.63</ele>
        <time>2020-07-04T09:31:38.044Z</time>
      </trkpt>
      <trkpt lat="47.02776" lon="6.91587">
        <ele>710.64</ele>
        <time>2020-07-04T09:31:39.575Z</time>
      </trkpt>
      <trkpt lat="47.02769" lon="6.91569">
        <ele>709.96</ele>
        <time>2020-07-04T09:31:41.044Z</time>
      </trkpt>
      <trkpt lat="47.02769" lon="6.91568">
        <ele>709.96</ele>
        <time>2020-07-04T09:31:41.188Z</time>
      </trkpt>
      <trkpt lat="47.02766" lon="6.91562">
        <ele>709.27</ele>
        <time>2020-07-04T09:31:41.683Z</time>
      </trkpt>
      <trkpt lat="47.02764" lon="6.91555">
        <ele>708.85</ele>
        <time>2020-07-04T09:31:42.188Z</time>
      </trkpt>
      <trkpt lat="47.02762" lon="6.91545">
        <ele>708.31</ele>
        <time>2020-07-04T09:31:42.881Z</time>
      </trkpt>
      <trkpt lat="47.02762" lon="6.91535">
        <ele>707.76</ele>
        <time>2020-07-04T09:31:43.546Z</time>
      </trkpt>
      <trkpt lat="47.02762" lon="6.91527">
        <ele>707.61</ele>
        <time>2020-07-04T09:31:44.239Z</time>
      </trkpt>
      <trkpt lat="47.02768" lon="6.91515">
        <ele>706.87</ele>
        <time>2020-07-04T09:31:45.229Z</time>
      </trkpt>
      <trkpt lat="47.02772" lon="6.91509">
        <ele>706.52</ele>
        <time>2020-07-04T09:31:45.762Z</time>
      </trkpt>
      <trkpt lat="47.02777" lon="6.91505">
        <ele>706.08</ele>
        <time>2020-07-04T09:31:46.318Z</time>
      </trkpt>
      <trkpt lat="47.02784" lon="6.91503">
        <ele>705.61</ele>
        <time>2020-07-04T09:31:46.959Z</time>
      </trkpt>
      <trkpt lat="47.0279" lon="6.91502">
        <ele>705.45</ele>
        <time>2020-07-04T09:31:47.735Z</time>
      </trkpt>
      <trkpt lat="47.02797" lon="6.91504">
        <ele>705.05</ele>
        <time>2020-07-04T09:31:48.428Z</time>
      </trkpt>
      <trkpt lat="47.0281" lon="6.91509">
        <ele>704.61</ele>
        <time>2020-07-04T09:31:50.045Z</time>
      </trkpt>
      <trkpt lat="47.02808" lon="6.91509">
        <ele>704.61</ele>
        <time>2020-07-04T09:31:50.470Z</time>
      </trkpt>
      <trkpt lat="47.02812" lon="6.9151">
        <ele>704.17</ele>
        <time>2020-07-04T09:31:50.866Z</time>
      </trkpt>
      <trkpt lat="47.02866" lon="6.9154">
        <ele>699.98</ele>
        <time>2020-07-04T09:31:56.499Z</time>
      </trkpt>
      <trkpt lat="47.02908" lon="6.91562">
        <ele>697.14</ele>
        <time>2020-07-04T09:32:00.578Z</time>
      </trkpt>
      <trkpt lat="47.02916" lon="6.91565">
        <ele>696.35</ele>
        <time>2020-07-04T09:32:01.383Z</time>
      </trkpt>
      <trkpt lat="47.02922" lon="6.91566">
        <ele>695.87</ele>
        <time>2020-07-04T09:32:01.972Z</time>
      </trkpt>
      <trkpt lat="47.02925" lon="6.91566">
        <ele>695.62</ele>
        <time>2020-07-04T09:32:02.265Z</time>
      </trkpt>
      <trkpt lat="47.02925" lon="6.91566">
        <ele>695.62</ele>
        <time>2020-07-04T09:32:02.265Z</time>
      </trkpt>
      <trkpt lat="47.02927" lon="6.91566">
        <ele>695.37</ele>
        <time>2020-07-04T09:32:02.460Z</time>
      </trkpt>
      <trkpt lat="47.02933" lon="6.91565">
        <ele>695.03</ele>
        <time>2020-07-04T09:32:03.046Z</time>
      </trkpt>
      <trkpt lat="47.0294" lon="6.91562">
        <ele>694.42</ele>
        <time>2020-07-04T09:32:03.757Z</time>
      </trkpt>
      <trkpt lat="47.02946" lon="6.91557">
        <ele>694.12</ele>
        <time>2020-07-04T09:32:04.506Z</time>
      </trkpt>
      <trkpt lat="47.02952" lon="6.91549">
        <ele>693.26</ele>
        <time>2020-07-04T09:32:05.297Z</time>
      </trkpt>
      <trkpt lat="47.02958" lon="6.9154">
        <ele>692.32</ele>
        <time>2020-07-04T09:32:06.134Z</time>
      </trkpt>
      <trkpt lat="47.02965" lon="6.91527">
        <ele>691.4</ele>
        <time>2020-07-04T09:32:07.236Z</time>
      </trkpt>
      <trkpt lat="47.0298" lon="6.91495">
        <ele>689.59</ele>
        <time>2020-07-04T09:32:09.818Z</time>
      </trkpt>
      <trkpt lat="47.02989" lon="6.91478">
        <ele>689.59</ele>
        <time>2020-07-04T09:32:12.935Z</time>
      </trkpt>
      <trkpt lat="47.02997" lon="6.91461">
        <ele>689.5</ele>
        <time>2020-07-04T09:32:15.660Z</time>
      </trkpt>
      <trkpt lat="47.03013" lon="6.91429">
        <ele>689.41</ele>
        <time>2020-07-04T09:32:21.128Z</time>
      </trkpt>
      <trkpt lat="47.03024" lon="6.91402">
        <ele>689.55</ele>
        <time>2020-07-04T09:32:25.973Z</time>
      </trkpt>
      <trkpt lat="47.03027" lon="6.91396">
        <ele>689.35</ele>
        <time>2020-07-04T09:32:26.544Z</time>
      </trkpt>
      <trkpt lat="47.03007" lon="6.91382">
        <ele>689.52</ele>
        <time>2020-07-04T09:32:31.608Z</time>
      </trkpt>
      <trkpt lat="47.02985" lon="6.91365">
        <ele>689.48</ele>
        <time>2020-07-04T09:32:36.763Z</time>
      </trkpt>
      <trkpt lat="47.02976" lon="6.91359">
        <ele>689.38</ele>
        <time>2020-07-04T09:32:38.310Z</time>
      </trkpt>
      <trkpt lat="47.02976" lon="6.91358">
        <ele>689.38</ele>
        <time>2020-07-04T09:32:38.455Z</time>
      </trkpt>
      <trkpt lat="47.02959" lon="6.91346">
        <ele>689.27</ele>
        <time>2020-07-04T09:32:42.134Z</time>
      </trkpt>
      <trkpt lat="47.02919" lon="6.91313">
        <ele>689.38</ele>
        <time>2020-07-04T09:32:52.102Z</time>
      </trkpt>
      <trkpt lat="47.02904" lon="6.913">
        <ele>689.54</ele>
        <time>2020-07-04T09:32:56.143Z</time>
      </trkpt>
      <trkpt lat="47.02899" lon="6.91294">
        <ele>689.64</ele>
        <time>2020-07-04T09:32:57.743Z</time>
      </trkpt>
      <trkpt lat="47.02893" lon="6.91284">
        <ele>689.4</ele>
        <time>2020-07-04T09:32:58.910Z</time>
      </trkpt>
      <trkpt lat="47.02885" lon="6.91266">
        <ele>690.49</ele>
        <time>2020-07-04T09:33:05.388Z</time>
      </trkpt>
      <trkpt lat="47.02882" lon="6.9126">
        <ele>690.29</ele>
        <time>2020-07-04T09:33:05.959Z</time>
      </trkpt>
      <trkpt lat="47.02879" lon="6.91257">
        <ele>690.14</ele>
        <time>2020-07-04T09:33:06.361Z</time>
      </trkpt>
      <trkpt lat="47.02876" lon="6.91256">
        <ele>690.07</ele>
        <time>2020-07-04T09:33:06.773Z</time>
      </trkpt>
      <trkpt lat="47.02874" lon="6.91256">
        <ele>689.95</ele>
        <time>2020-07-04T09:33:06.961Z</time>
      </trkpt>
      <trkpt lat="47.02868" lon="6.91256">
        <ele>689.93</ele>
        <time>2020-07-04T09:33:08.174Z</time>
      </trkpt>
      <trkpt lat="47.02868" lon="6.91253">
        <ele>690</ele>
        <time>2020-07-04T09:33:08.807Z</time>
      </trkpt>
      <trkpt lat="47.02867" lon="6.91251">
        <ele>690.06</ele>
        <time>2020-07-04T09:33:09.339Z</time>
      </trkpt>
      <trkpt lat="47.02866" lon="6.91248">
        <ele>690.13</ele>
        <time>2020-07-04T09:33:10.012Z</time>
      </trkpt>
      <trkpt lat="47.02865" lon="6.91246">
        <ele>690.2</ele>
        <time>2020-07-04T09:33:10.591Z</time>
      </trkpt>
      <trkpt lat="47.02877" lon="6.91228">
        <ele>690.79</ele>
        <time>2020-07-04T09:33:15.913Z</time>
      </trkpt>
      <trkpt lat="47.0288" lon="6.91223">
        <ele>691.4</ele>
        <time>2020-07-04T09:33:19.633Z</time>
      </trkpt>
      <trkpt lat="47.0288" lon="6.91223">
        <ele>691.4</ele>
        <time>2020-07-04T09:33:19.633Z</time>
      </trkpt>
      <trkpt lat="47.02885" lon="6.91216">
        <ele>692</ele>
        <time>2020-07-04T09:33:23.017Z</time>
      </trkpt>
      <trkpt lat="47.02892" lon="6.9121">
        <ele>692.88</ele>
        <time>2020-07-04T09:33:27.903Z</time>
      </trkpt>
      <trkpt lat="47.02899" lon="6.91204">
        <ele>693.44</ele>
        <time>2020-07-04T09:33:31.345Z</time>
      </trkpt>
      <trkpt lat="47.0291" lon="6.91195">
        <ele>694.58</ele>
        <time>2020-07-04T09:33:37.714Z</time>
      </trkpt>
      <trkpt lat="47.02947" lon="6.91171">
        <ele>698.42</ele>
        <time>2020-07-04T09:33:59.011Z</time>
      </trkpt>
      <trkpt lat="47.02979" lon="6.91147">
        <ele>701.91</ele>
        <time>2020-07-04T09:34:18.322Z</time>
      </trkpt>
      <trkpt lat="47.03003" lon="6.91128">
        <ele>704.45</ele>
        <time>2020-07-04T09:34:32.444Z</time>
      </trkpt>
      <trkpt lat="47.03018" lon="6.91115">
        <ele>705.44</ele>
        <time>2020-07-04T09:34:39.219Z</time>
      </trkpt>
      <trkpt lat="47.03018" lon="6.91115">
        <ele>705.44</ele>
        <time>2020-07-04T09:34:39.219Z</time>
      </trkpt>
      <trkpt lat="47.03021" lon="6.91113">
        <ele>706.44</ele>
        <time>2020-07-04T09:34:41.919Z</time>
      </trkpt>
      <trkpt lat="47.03045" lon="6.9109">
        <ele>708.88</ele>
        <time>2020-07-04T09:34:55.751Z</time>
      </trkpt>
      <trkpt lat="47.03066" lon="6.91069">
        <ele>710.86</ele>
        <time>2020-07-04T09:35:07.305Z</time>
      </trkpt>
      <trkpt lat="47.03082" lon="6.91051">
        <ele>711.57</ele>
        <time>2020-07-04T09:35:13.628Z</time>
      </trkpt>
      <trkpt lat="47.03082" lon="6.91052">
        <ele>711.57</ele>
        <time>2020-07-04T09:35:13.772Z</time>
      </trkpt>
      <trkpt lat="47.03083" lon="6.91051">
        <ele>712.28</ele>
        <time>2020-07-04T09:35:14.764Z</time>
      </trkpt>
      <trkpt lat="47.03097" lon="6.91034">
        <ele>713.39</ele>
        <time>2020-07-04T09:35:22.044Z</time>
      </trkpt>
      <trkpt lat="47.03107" lon="6.91021">
        <ele>714.08</ele>
        <time>2020-07-04T09:35:27.061Z</time>
      </trkpt>
      <trkpt lat="47.0311" lon="6.91017">
        <ele>714.25</ele>
        <time>2020-07-04T09:35:28.459Z</time>
      </trkpt>
      <trkpt lat="47.03122" lon="6.91001">
        <ele>714.76</ele>
        <time>2020-07-04T09:35:33.298Z</time>
      </trkpt>
      <trkpt lat="47.03122" lon="6.91001">
        <ele>714.76</ele>
        <time>2020-07-04T09:35:33.298Z</time>
      </trkpt>
      <trkpt lat="47.03128" lon="6.90993">
        <ele>715.26</ele>
        <time>2020-07-04T09:35:36.560Z</time>
      </trkpt>
      <trkpt lat="47.03139" lon="6.90976">
        <ele>715.73</ele>
        <time>2020-07-04T09:35:41.206Z</time>
      </trkpt>
      <trkpt lat="47.03154" lon="6.9095">
        <ele>716.22</ele>
        <time>2020-07-04T09:35:47.320Z</time>
      </trkpt>
      <trkpt lat="47.03163" lon="6.90934">
        <ele>716.59</ele>
        <time>2020-07-04T09:35:51.271Z</time>
      </trkpt>
      <trkpt lat="47.0317" lon="6.90921">
        <ele>716.64</ele>
        <time>2020-07-04T09:35:53.772Z</time>
      </trkpt>
      <trkpt lat="47.0317" lon="6.90921">
        <ele>716.64</ele>
        <time>2020-07-04T09:35:53.772Z</time>
      </trkpt>
      <trkpt lat="47.03171" lon="6.9092">
        <ele>716.69</ele>
        <time>2020-07-04T09:35:54.185Z</time>
      </trkpt>
      <trkpt lat="47.03179" lon="6.90902">
        <ele>716.78</ele>
        <time>2020-07-04T09:35:57.483Z</time>
      </trkpt>
      <trkpt lat="47.03192" lon="6.90874">
        <ele>717.23</ele>
        <time>2020-07-04T09:36:03.454Z</time>
      </trkpt>
      <trkpt lat="47.03205" lon="6.90844">
        <ele>717.76</ele>
        <time>2020-07-04T09:36:09.892Z</time>
      </trkpt>
      <trkpt lat="47.03212" lon="6.90828">
        <ele>717.85</ele>
        <time>2020-07-04T09:36:12.832Z</time>
      </trkpt>
      <trkpt lat="47.03212" lon="6.90828">
        <ele>717.85</ele>
        <time>2020-07-04T09:36:12.832Z</time>
      </trkpt>
      <trkpt lat="47.03217" lon="6.90816">
        <ele>717.94</ele>
        <time>2020-07-04T09:36:15.060Z</time>
      </trkpt>
      <trkpt lat="47.03228" lon="6.90791">
        <ele>718.41</ele>
        <time>2020-07-04T09:36:20.530Z</time>
      </trkpt>
      <trkpt lat="47.03237" lon="6.90774">
        <ele>718.8</ele>
        <time>2020-07-04T09:36:24.650Z</time>
      </trkpt>
      <trkpt lat="47.03245" lon="6.90759">
        <ele>719.2</ele>
        <time>2020-07-04T09:36:28.493Z</time>
      </trkpt>
      <trkpt lat="47.03252" lon="6.90749">
        <ele>719.32</ele>
        <time>2020-07-04T09:36:30.832Z</time>
      </trkpt>
      <trkpt lat="47.03254" lon="6.90746">
        <ele>719.44</ele>
        <time>2020-07-04T09:36:31.819Z</time>
      </trkpt>
      <trkpt lat="47.03264" lon="6.90732">
        <ele>719.87</ele>
        <time>2020-07-04T09:36:35.925Z</time>
      </trkpt>
      <trkpt lat="47.03274" lon="6.90719">
        <ele>720.27</ele>
        <time>2020-07-04T09:36:39.836Z</time>
      </trkpt>
      <trkpt lat="47.03286" lon="6.90705">
        <ele>720.74</ele>
        <time>2020-07-04T09:36:44.365Z</time>
      </trkpt>
      <trkpt lat="47.03294" lon="6.90697">
        <ele>721.17</ele>
        <time>2020-07-04T09:36:47.833Z</time>
      </trkpt>
      <trkpt lat="47.03302" lon="6.90691">
        <ele>721.4</ele>
        <time>2020-07-04T09:36:50.326Z</time>
      </trkpt>
      <trkpt lat="47.03308" lon="6.90686">
        <ele>721.6</ele>
        <time>2020-07-04T09:36:52.322Z</time>
      </trkpt>
      <trkpt lat="47.03308" lon="6.90686">
        <ele>721.6</ele>
        <time>2020-07-04T09:36:52.322Z</time>
      </trkpt>
      <trkpt lat="47.03309" lon="6.90685">
        <ele>721.81</ele>
        <time>2020-07-04T09:36:53.314Z</time>
      </trkpt>
      <trkpt lat="47.03323" lon="6.90676">
        <ele>722.31</ele>
        <time>2020-07-04T09:36:57.950Z</time>
      </trkpt>
      <trkpt lat="47.03345" lon="6.90661">
        <ele>722.98</ele>
        <time>2020-07-04T09:37:04.850Z</time>
      </trkpt>
      <trkpt lat="47.03351" lon="6.90657">
        <ele>723.65</ele>
        <time>2020-07-04T09:37:08.551Z</time>
      </trkpt>
      <trkpt lat="47.03348" lon="6.9065">
        <ele>723.71</ele>
        <time>2020-07-04T09:37:09.877Z</time>
      </trkpt>
      <trkpt lat="47.03327" lon="6.90621">
        <ele>723.3</ele>
        <time>2020-07-04T09:37:14.156Z</time>
      </trkpt>
    </trkseg>
  </trk>
</gpx>